[[{"header":{"parameterUnit":"m.s-1","parameterCategory":1,"la1":31.0,"la2":29.5877,"lo1":-88.7671,"lo2":-86.6584,"dy":0.0162,"dx":0.0185,"nx":115,"ny":88,"refTime":"2024-02-29T18:00:00:Z","depth":0,"parameterNumber":2,"parameterNumberName":"U-component_of_WINDS"},"data":[0.0,0.0,0.0,0.0,0.0,0.0,0.0,0.0,0.0,0.0,0.0,0.0,0.0,0.0,0.0,0.0,0.0,0.0,0.0,0.0,0.0,0.0,0.0,0.0,0.0,0.0,0.0,0.0,0.0,0.0,0.0,0.0,0.0,0.0,0.0,0.0,0.0,0.0,0.0,0.0,0.0,0.0,0.0,0.0,0.0,0.0,0.0,0.0,0.0,0.0,0.0,0.0,0.0,0.0,0.0,0.0,0.0,0.0,0.0,0.0,0.0,0.0,0.0,0.0,0.0,0.0,0.0,0.0,0.0,0.0,0.0,0.0,0.0,0.0,0.0,0.0,0.0,0.0,0.0,0.0,0.0,0.0,0.0,0.0,0.0,0.0,0.0,0.0,0.0,0.0,0.0,0.0,0.0,0.0,0.0,0.0,0.0,0.0,0.0,0.0,0.0,0.0,0.0,0.0,0.0,0.0,0.0,0.0,0.0,0.0,0.0,0.0,0.0,0.0,0.0,0.0,0.0,0.0,0.0,0.0,0.0,0.0,0.0,0.0,0.0,0.0,0.0,0.0,0.0,0.0,0.0,0.0,0.0,0.0,0.0,0.0,0.0,0.0,0.0,0.0,0.0,0.0,0.0,0.0,0.0,0.0,0.0,0.0,0.0,0.0,0.0,0.0,0.0,0.0,0.0,0.0,0.0,0.0,0.0,0.0,0.0,0.0,0.0,0.0,0.0,0.0,0.0,0.0,0.0,0.0,0.0,0.0,0.0,0.0,0.0,0.0,0.0,0.0,0.0,0.0,0.0,0.0,0.0,0.0,0.0,0.0,0.0,0.0,0.0,0.0,0.0,0.0,0.0,0.0,0.0,0.0,0.0,0.0,0.0,0.0,0.0,0.0,0.0,0.0,0.0,0.0,0.0,0.0,0.0,0.0,0.0,0.0,0.0,0.0,0.0,0.0,0.0,0.0,0.0,0.0,0.0,0.0,0.0,0.0,0.0,0.0,0.0,0.0,0.0,0.0,0.0,0.0,0.0,0.0,0.0,0.0,0.0,0.0,0.0,0.0,0.0,0.0,0.0,0.0,0.0,0.0,0.0,0.0,0.0,0.0,0.0,0.0,0.0,0.0,0.0,0.0,0.0,0.0,0.0,0.0,0.0,0.0,0.0,0.0,0.0,0.0,0.0,0.0,0.0,0.0,0.0,0.0,0.0,0.0,0.0,0.0,0.0,0.0,0.0,0.0,0.0,0.0,0.0,0.0,0.0,0.0,0.0,0.0,0.0,0.0,0.0,0.0,0.0,0.0,0.0,0.0,0.0,0.0,0.0,0.0,0.0,0.0,0.0,0.0,0.0,0.0,0.0,0.0,0.0,0.0,0.0,0.0,0.0,0.0,0.0,0.0,0.0,0.0,0.0,0.0,0.0,0.0,0.0,0.0,0.0,0.0,0.0,0.0,0.0,0.0,0.0,0.0,0.0,0.0,0.0,0.0,0.0,0.0,0.0,0.0,0.0,0.0,0.0,0.0,0.0,0.0,0.0,0.0,0.0,0.0,0.0,0.0,0.0,0.0,0.0,0.0,0.0,0.0,0.0,0.0,0.0,0.0,0.0,0.0,0.0,0.0,0.0,0.0,0.0,0.0,0.0,0.0,0.0,0.0,0.0,0.0,0.0,0.0,0.0,0.0,0.0,0.0,0.0,0.0,0.0,0.0,0.0,0.0,0.0,0.0,0.0,0.0,0.0,0.0,0.0,0.0,0.0,0.0,0.0,0.0,0.0,0.0,0.0,0.0,0.0,0.0,0.0,0.0,0.0,0.0,0.0,0.0,0.0,0.0,0.0,0.0,0.0,0.0,0.0,0.0,0.0,0.0,0.0,0.0,0.0,0.0,0.0,0.0,0.0,0.0,0.0,0.0,0.0,0.0,0.0,0.0,0.0,0.0,0.0,0.0,0.0,0.0,0.0,0.0,0.0,0.0,0.0,0.0,0.0,0.0,0.0,0.0,0.0,0.0,0.0,0.0,0.0,0.0,0.0,0.0,0.0,0.0,0.0,0.0,0.0,0.0,0.0,0.0,0.0,0.0,0.0,0.0,0.0,0.0,0.0,0.0,0.0,0.0,0.0,0.0,0.0,0.0,0.0,0.0,0.0,0.0,0.0,0.0,0.0,0.0,0.0,0.0,0.0,0.0,0.0,0.0,0.0,0.0,0.0,0.0,0.0,0.0,0.0,0.0,0.0,0.0,0.0,0.0,0.0,0.0,0.0,0.0,0.0,0.0,0.0,0.0,0.0,0.0,0.0,0.0,0.0,0.0,0.0,0.0,0.0,0.0,0.0,0.0,0.0,0.0,0.0,0.0,0.0,0.0,0.0,0.0,0.0,0.0,0.0,0.0,0.0,0.0,0.0,0.0,0.0,0.0,0.0,0.0,0.0,0.0,0.0,0.0,0.0,0.0,0.0,0.0,0.0,0.0,0.0,0.0,0.0,0.0,0.0,0.0,0.0,0.0,0.0,0.0,0.0,0.0,0.0,0.0,0.0,0.0,0.0,0.0,0.0,0.0,0.0,0.0,0.0,0.0,0.0,0.0,0.0,0.0,0.0,0.0,0.0,0.0,0.0,0.0,0.0,0.0,0.0,0.0,0.0,0.0,0.0,0.0,0.0,0.0,0.0,0.0,0.0,0.0,0.0,0.0,0.0,0.0,0.0,0.0,0.0,0.0,0.0,0.0,0.0,0.0,0.0,0.0,0.0,0.0,0.0,0.0,0.0,0.0,0.0,0.0,0.0,0.0,0.0,0.0,0.0,0.0,0.0,0.0,0.0,0.0,0.0,0.0,0.0,0.0,0.0,0.0,0.0,0.0,0.0,0.0,0.0,0.0,0.0,0.0,0.0,0.0,0.0,0.0,0.0,0.0,0.0,0.0,0.0,0.0,0.0,0.0,0.0,0.0,0.0,0.0,0.0,0.0,0.0,0.0,0.0,0.0,0.0,0.0,0.0,0.0,0.0,0.0,0.0,0.0,0.0,0.0,0.0,0.0,0.0,0.0,0.0,0.0,0.0,0.0,0.0,0.0,0.0,0.0,0.0,0.0,0.0,0.0,0.0,0.0,0.0,0.0,0.0,0.0,0.0,0.0,0.0,0.0,0.0,0.0,0.0,0.0,0.0,0.0,0.0,0.0,0.0,0.0,0.0,0.0,0.0,0.0,0.0,0.0,0.0,0.0,0.0,0.0,0.0,0.0,0.0,0.0,0.0,0.0,0.0,0.0,0.0,0.0,0.0,0.0,0.0,0.0,0.0,0.0,0.0,0.0,0.0,0.0,0.0,0.0,0.0,0.0,0.0,0.0,0.0,0.0,0.0,0.0,0.0,0.0,0.0,0.0,0.0,0.0,0.0,0.0,0.0,0.0,0.0,0.0,0.0,0.0,0.0,0.0,0.0,0.0,0.0,0.0,0.0,0.0,0.0,0.0,0.0,0.0,0.0,0.0,0.0,0.0,0.0,0.0,0.0,0.0,0.0,0.0,0.0,0.0,0.0,0.0,0.0,0.0,0.0,0.0,0.0,0.0,0.0,0.0,0.0,0.0,0.0,0.0,0.0,0.0,0.0,0.0,0.0,0.0,0.0,0.0,0.0,0.0,0.0,0.0,0.0,0.0,0.0,0.0,0.0,0.0,0.0,0.0,0.0,0.0,0.0,0.0,0.0,0.0,0.0,0.0,0.0,0.0,0.0,0.0,0.0,0.0,0.0,0.0,0.0,0.0,0.0,0.0,0.0,0.0,0.0,0.0,0.0,0.0,0.0,0.0,0.0,0.0,0.0,0.0,0.0,0.0,0.0,0.0,0.0,0.0,0.0,0.0,0.0,0.0,0.0,0.0,0.0,0.0,0.0,0.0,0.0,0.0,0.0,0.0,0.0,0.0,0.0,0.0,0.0,0.0,0.0,0.0,0.0,0.0,0.0,0.0,0.0,0.0,0.0,0.0,0.0,0.0,0.0,0.0,0.0,0.0,0.0,0.0,0.0,0.0,0.0,0.0,0.0,0.0,0.0,0.0,0.0,0.0,0.0,0.0,0.0,0.0,0.0,0.0,0.0,0.0,0.0,0.0,0.0,0.0,0.0,0.0,0.0,0.0,0.0,0.0,0.0,0.0,0.0,0.0,0.0,0.0,0.0,0.0,0.0,0.0,0.0,0.0,0.0,0.0,0.0,0.0,0.0,0.0,0.0,0.0,0.0,0.0,0.0,0.0,0.0,0.0,0.0,0.0,0.0,0.0,-1.3314,0.0,0.0,0.0,0.0,0.0,0.0,0.0,0.0,0.0,0.0,0.0,0.0,0.0,0.0,0.0,0.0,0.0,0.0,0.0,0.0,0.0,0.0,0.0,0.0,0.0,0.0,0.0,0.0,0.0,0.0,0.0,0.0,0.0,0.0,0.0,0.0,0.0,0.0,0.0,0.0,0.0,0.0,0.0,0.0,0.0,0.0,0.0,0.0,0.0,0.0,0.0,0.0,0.0,0.0,0.0,0.0,0.0,0.0,0.0,0.0,0.0,0.0,0.0,0.0,0.0,0.0,0.0,0.0,0.0,0.0,0.0,0.0,0.0,0.0,0.0,0.0,0.0,0.0,0.0,0.0,0.0,0.0,0.0,0.0,0.0,0.0,0.0,0.0,0.0,0.0,0.0,0.0,0.0,0.0,0.0,0.0,0.0,0.0,0.0,0.0,0.0,0.0,0.0,0.0,0.0,0.0,0.0,0.0,0.0,0.0,-1.3763,-1.4022,-1.3884,-1.381,-1.3739,0.0,0.0,0.0,0.0,0.0,0.0,0.0,0.0,0.0,0.0,0.0,0.0,0.0,0.0,0.0,0.0,0.0,0.0,0.0,0.0,0.0,0.0,0.0,0.0,0.0,0.0,0.0,0.0,0.0,0.0,0.0,0.0,0.0,0.0,0.0,0.0,0.0,0.0,0.0,0.0,0.0,0.0,0.0,0.0,0.0,0.0,0.0,0.0,0.0,0.0,0.0,0.0,0.0,0.0,0.0,0.0,0.0,0.0,0.0,0.0,0.0,0.0,0.0,0.0,0.0,0.0,0.0,0.0,0.0,0.0,0.0,0.0,0.0,0.0,0.0,0.0,0.0,0.0,0.0,0.0,0.0,0.0,0.0,0.0,0.0,0.0,0.0,0.0,0.0,0.0,0.0,0.0,0.0,0.0,0.0,0.0,0.0,0.0,0.0,0.0,0.0,0.0,0.0,0.0,0.0,0.0,0.0,0.0,0.0,0.0,0.0,0.0,-1.4724,-1.4517,-1.4193,0.0,0.0,0.0,0.0,0.0,0.0,0.0,0.0,0.0,0.0,0.0,0.0,0.0,0.0,0.0,0.0,0.0,0.0,0.0,0.0,0.0,0.0,0.0,0.0,0.0,0.0,0.0,0.0,0.0,0.0,0.0,0.0,0.0,0.0,0.0,0.0,0.0,0.0,0.0,0.0,0.0,0.0,0.0,0.0,0.0,0.0,0.0,0.0,0.0,0.0,0.0,0.0,0.0,0.0,0.0,0.0,0.0,0.0,0.0,0.0,0.0,0.0,0.0,0.0,0.0,0.0,0.0,0.0,0.0,0.0,0.0,0.0,0.0,0.0,0.0,0.0,0.0,0.0,0.0,0.0,0.0,0.0,0.0,0.0,0.0,0.0,0.0,0.0,0.0,0.0,0.0,0.0,0.0,0.0,0.0,0.0,0.0,0.0,0.0,0.0,0.0,0.0,0.0,0.0,0.0,0.0,0.0,0.0,0.0,0.0,-1.5495,-1.6115,-1.609,0.0,-1.4855,0.0,0.0,0.0,0.0,0.0,0.0,0.0,0.0,0.0,0.0,0.0,0.0,0.0,0.0,0.0,0.0,0.0,0.0,0.0,0.0,0.0,0.0,0.0,0.0,0.0,0.0,0.0,0.0,0.0,0.0,0.0,0.0,0.0,0.0,0.0,0.0,0.0,0.0,0.0,0.0,0.0,0.0,0.0,0.0,0.0,0.0,0.0,0.0,0.0,0.0,0.0,0.0,0.0,0.0,0.0,0.0,0.0,0.0,0.0,0.0,0.0,0.0,0.0,0.0,0.0,0.0,0.0,0.0,0.0,0.0,0.0,0.0,0.0,0.0,0.0,0.0,0.0,0.0,0.0,0.0,0.0,0.0,0.0,0.0,0.0,0.0,0.0,0.0,0.0,0.0,0.0,0.0,0.0,0.0,0.0,0.0,0.0,0.0,0.0,0.0,0.0,0.0,0.0,0.0,0.0,0.0,0.0,0.0,0.0,0.0,-1.5926,-1.6748,-1.63,-1.5854,0.0,0.0,0.0,0.0,0.0,0.0,0.0,0.0,0.0,0.0,0.0,0.0,0.0,0.0,0.0,0.0,0.0,0.0,0.0,0.0,0.0,0.0,0.0,0.0,0.0,0.0,0.0,0.0,0.0,0.0,0.0,0.0,0.0,0.0,0.0,0.0,0.0,0.0,0.0,0.0,0.0,0.0,0.0,0.0,0.0,0.0,0.0,0.0,0.0,0.0,0.0,0.0,0.0,0.0,0.0,0.0,0.0,0.0,0.0,0.0,0.0,0.0,0.0,0.0,0.0,0.0,0.0,0.0,0.0,0.0,0.0,0.0,0.0,0.0,0.0,0.0,0.0,0.0,0.0,0.0,0.0,0.0,0.0,0.0,0.0,0.0,0.0,0.0,0.0,0.0,0.0,0.0,0.0,0.0,0.0,0.0,0.0,0.0,0.0,0.0,0.0,0.0,0.0,0.0,0.0,0.0,0.0,0.0,0.0,0.0,-1.5856,-1.6518,-1.7446,-1.6638,-1.6073,-1.6,0.0,0.0,0.0,0.0,0.0,0.0,0.0,0.0,0.0,0.0,0.0,0.0,0.0,0.0,0.0,0.0,0.0,0.0,0.0,0.0,0.0,0.0,0.0,0.0,0.0,0.0,0.0,0.0,0.0,0.0,0.0,0.0,0.0,0.0,0.0,0.0,0.0,0.0,0.0,0.0,0.0,0.0,0.0,0.0,0.0,0.0,0.0,0.0,0.0,0.0,0.0,0.0,0.0,0.0,0.0,0.0,0.0,0.0,0.0,0.0,0.0,0.0,0.0,0.0,0.0,0.0,0.0,0.0,0.0,0.0,0.0,0.0,0.0,0.0,0.0,0.0,0.0,0.0,0.0,0.0,0.0,0.0,0.0,0.0,0.0,0.0,0.0,0.0,0.0,0.0,0.0,0.0,0.0,0.0,0.0,0.0,0.0,0.0,0.0,0.0,0.0,0.0,0.0,0.0,0.0,0.0,0.0,0.0,-1.6009,-1.66,-1.7465,-1.8643,-1.7463,-1.6749,0.0,0.0,0.0,0.0,0.0,0.0,0.0,0.0,0.0,0.0,0.0,0.0,0.0,0.0,0.0,0.0,0.0,0.0,0.0,0.0,0.0,0.0,0.0,0.0,0.0,0.0,0.0,0.0,0.0,0.0,0.0,0.0,0.0,0.0,0.0,0.0,0.0,0.0,0.0,0.0,0.0,0.0,0.0,0.0,0.0,0.0,0.0,0.0,0.0,0.0,0.0,0.0,0.0,0.0,0.0,0.0,0.0,0.0,0.0,0.0,0.0,0.0,0.0,0.0,0.0,0.0,0.0,0.0,0.0,0.0,0.0,0.0,0.0,0.0,0.0,0.0,0.0,0.0,0.0,0.0,0.0,0.0,0.0,0.0,0.0,0.0,0.0,0.0,0.0,0.0,0.0,0.0,0.0,0.0,0.0,0.0,0.0,0.0,0.0,0.0,0.0,0.0,0.0,0.0,0.0,0.0,0.0,0.0,0.0,-1.645,-1.7808,-1.8718,-1.9135,-1.7939,-1.7216,0.0,0.0,0.0,0.0,0.0,0.0,0.0,0.0,0.0,0.0,0.0,0.0,0.0,0.0,0.0,0.0,0.0,0.0,0.0,0.0,0.0,0.0,0.0,0.0,0.0,0.0,0.0,0.0,0.0,0.0,0.0,0.0,0.0,0.0,0.0,0.0,0.0,0.0,0.0,0.0,0.0,0.0,0.0,0.0,0.0,0.0,0.0,0.0,0.0,0.0,0.0,0.0,0.0,0.0,0.0,0.0,0.0,0.0,0.0,0.0,0.0,0.0,0.0,0.0,0.0,0.0,0.0,0.0,0.0,0.0,0.0,0.0,0.0,0.0,0.0,0.0,0.0,0.0,0.0,0.0,0.0,0.0,0.0,0.0,0.0,0.0,0.0,0.0,0.0,0.0,0.0,0.0,0.0,0.0,0.0,0.0,0.0,0.0,0.0,0.0,0.0,0.0,0.0,0.0,0.0,0.0,0.0,0.0,0.0,-1.7095,0.0,-1.9603,-1.9553,-1.8363,-1.7654,0.0,0.0,0.0,0.0,0.0,0.0,0.0,0.0,0.0,0.0,0.0,0.0,0.0,0.0,0.0,0.0,0.0,0.0,0.0,0.0,0.0,0.0,0.0,0.0,0.0,0.0,0.0,0.0,0.0,0.0,0.0,0.0,0.0,0.0,0.0,0.0,0.0,0.0,0.0,0.0,0.0,0.0,0.0,0.0,0.0,0.0,0.0,0.0,0.0,0.0,0.0,0.0,0.0,0.0,0.0,0.0,0.0,0.0,0.0,0.0,0.0,0.0,0.0,0.0,0.0,0.0,0.0,0.0,0.0,0.0,0.0,0.0,0.0,0.0,0.0,0.0,0.0,0.0,0.0,0.0,0.0,0.0,0.0,0.0,0.0,0.0,0.0,0.0,0.0,0.0,0.0,0.0,0.0,0.0,0.0,0.0,0.0,0.0,0.0,0.0,0.0,0.0,0.0,0.0,0.0,0.0,0.0,0.0,-1.5684,-1.794,-1.9283,-1.9965,-1.9965,-1.8802,-1.8058,0.0,0.0,0.0,0.0,0.0,0.0,0.0,0.0,0.0,0.0,0.0,0.0,0.0,0.0,0.0,0.0,0.0,0.0,0.0,0.0,0.0,0.0,0.0,0.0,0.0,0.0,0.0,0.0,0.0,0.0,0.0,0.0,0.0,0.0,0.0,0.0,0.0,0.0,0.0,0.0,0.0,0.0,0.0,0.0,0.0,0.0,0.0,0.0,0.0,0.0,0.0,0.0,0.0,0.0,0.0,0.0,0.0,0.0,0.0,0.0,0.0,0.0,0.0,0.0,0.0,0.0,0.0,0.0,0.0,0.0,0.0,0.0,0.0,0.0,0.0,0.0,0.0,0.0,0.0,0.0,0.0,0.0,0.0,0.0,0.0,0.0,0.0,0.0,0.0,0.0,0.0,0.0,0.0,0.0,0.0,0.0,0.0,0.0,0.0,0.0,0.0,0.0,0.0,0.0,0.0,0.0,0.0,0.0,0.0,-1.8656,-1.9466,-1.9813,-1.9691,-1.8685,-1.8003,0.0,0.0,0.0,0.0,0.0,0.0,0.0,0.0,0.0,0.0,0.0,0.0,0.0,0.0,0.0,0.0,0.0,0.0,0.0,0.0,0.0,0.0,0.0,0.0,0.0,0.0,0.0,0.0,0.0,0.0,0.0,0.0,0.0,0.0,0.0,0.0,0.0,0.0,0.0,0.0,0.0,0.0,0.0,0.0,0.0,0.0,0.0,0.0,0.0,0.0,0.0,0.0,0.0,0.0,0.0,0.0,0.0,0.0,0.0,0.0,0.0,0.0,0.0,0.0,0.0,0.0,0.0,0.0,0.0,0.0,0.0,0.0,0.0,0.0,0.0,0.0,0.0,0.0,0.0,0.0,0.0,0.0,0.0,0.0,0.0,0.0,0.0,0.0,0.0,0.0,0.0,0.0,0.0,0.0,0.0,0.0,0.0,0.0,0.0,0.0,0.0,0.0,0.0,0.0,0.0,0.0,0.0,0.0,0.0,-1.8539,-1.9189,-1.9419,-1.9266,-1.8575,-1.8072,-1.776,0.0,0.0,0.0,0.0,0.0,0.0,0.0,0.0,0.0,0.0,0.0,0.0,0.0,0.0,0.0,0.0,0.0,0.0,0.0,0.0,0.0,0.0,0.0,0.0,0.0,0.0,0.0,0.0,0.0,0.0,0.0,0.0,0.0,0.0,0.0,0.0,0.0,0.0,0.0,0.0,0.0,0.0,0.0,0.0,0.0,0.0,0.0,0.0,0.0,0.0,0.0,0.0,0.0,0.0,0.0,0.0,0.0,0.0,0.0,0.0,0.0,0.0,0.0,0.0,0.0,0.0,0.0,0.0,0.0,0.0,0.0,0.0,0.0,0.0,0.0,0.0,0.0,0.0,0.0,0.0,0.0,0.0,0.0,0.0,0.0,0.0,0.0,0.0,0.0,0.0,0.0,0.0,0.0,0.0,0.0,0.0,0.0,0.0,0.0,0.0,0.0,0.0,0.0,0.0,0.0,0.0,0.0,0.0,-1.771,-1.8455,-1.8745,-1.8626,-1.8446,-1.8154,0.0,0.0,0.0,0.0,0.0,0.0,0.0,0.0,0.0,0.0,0.0,0.0,0.0,0.0,0.0,0.0,0.0,0.0,0.0,0.0,0.0,0.0,0.0,0.0,0.0,0.0,0.0,0.0,0.0,0.0,0.0,0.0,0.0,0.0,0.0,0.0,0.0,0.0,0.0,0.0,0.0,0.0,0.0,0.0,0.0,0.0,0.0,0.0,0.0,0.0,0.0,0.0,0.0,0.0,0.0,0.0,0.0,0.0,0.0,0.0,0.0,0.0,0.0,0.0,0.0,0.0,0.0,0.0,0.0,0.0,0.0,0.0,0.0,0.0,0.0,0.0,0.0,0.0,0.0,0.0,0.0,0.0,0.0,0.0,0.0,0.0,0.0,0.0,0.0,0.0,0.0,0.0,0.0,0.0,0.0,0.0,0.0,0.0,0.0,0.0,0.0,0.0,0.0,0.0,0.0,0.0,0.0,0.0,0.0,-1.6819,-1.6784,-1.703,-1.7558,-1.763,-1.773,0.0,0.0,0.0,0.0,0.0,0.0,0.0,0.0,0.0,0.0,0.0,0.0,0.0,0.0,0.0,0.0,0.0,0.0,0.0,0.0,0.0,0.0,0.0,0.0,0.0,0.0,0.0,0.0,0.0,0.0,0.0,0.0,0.0,0.0,0.0,0.0,0.0,0.0,0.0,0.0,0.0,0.0,0.0,0.0,0.0,0.0,0.0,0.0,0.0,0.0,0.0,0.0,0.0,0.0,0.0,0.0,0.0,0.0,0.0,0.0,0.0,0.0,0.0,0.0,0.0,0.0,0.0,0.0,0.0,0.0,0.0,0.0,0.0,0.0,0.0,0.0,0.0,0.0,0.0,0.0,0.0,0.0,0.0,0.0,0.0,0.0,0.0,0.0,0.0,0.0,0.0,0.0,0.0,0.0,0.0,0.0,0.0,0.0,0.0,0.0,0.0,0.0,0.0,0.0,0.0,0.0,0.0,0.0,-1.6834,-1.6082,-1.5771,-1.5818,-1.632,-1.6981,-1.7587,0.0,0.0,0.0,0.0,0.0,0.0,0.0,0.0,0.0,0.0,0.0,0.0,0.0,0.0,0.0,0.0,0.0,0.0,0.0,0.0,0.0,0.0,0.0,0.0,0.0,0.0,0.0,0.0,0.0,0.0,0.0,0.0,0.0,0.0,0.0,0.0,0.0,0.0,0.0,0.0,0.0,0.0,0.0,0.0,0.0,0.0,0.0,0.0,0.0,0.0,0.0,0.0,0.0,0.0,0.0,0.0,0.0,0.0,0.0,0.0,0.0,0.0,0.0,0.0,0.0,0.0,0.0,0.0,0.0,0.0,0.0,0.0,0.0,0.0,0.0,0.0,0.0,0.0,0.0,0.0,0.0,0.0,0.0,0.0,0.0,0.0,0.0,0.0,0.0,0.0,0.0,0.0,0.0,0.0,0.0,0.0,0.0,0.0,0.0,0.0,0.0,0.0,0.0,0.0,0.0,0.0,0.0,0.0,-1.6516,-1.5648,-1.5297,-1.5167,-1.5265,-1.6573,-1.7685,0.0,0.0,0.0,0.0,0.0,0.0,0.0,0.0,0.0,0.0,0.0,0.0,0.0,0.0,0.0,0.0,0.0,0.0,0.0,0.0,0.0,0.0,0.0,0.0,0.0,0.0,0.0,0.0,0.0,0.0,0.0,0.0,0.0,0.0,0.0,0.0,0.0,0.0,0.0,0.0,0.0,0.0,0.0,0.0,0.0,0.0,0.0,0.0,0.0,0.0,0.0,0.0,0.0,0.0,0.0,0.0,0.0,0.0,0.0,0.0,0.0,0.0,0.0,0.0,0.0,0.0,0.0,0.0,0.0,0.0,0.0,0.0,0.0,0.0,0.0,0.0,0.0,0.0,0.0,0.0,0.0,0.0,0.0,0.0,0.0,0.0,0.0,0.0,0.0,0.0,0.0,0.0,0.0,0.0,0.0,0.0,0.0,0.0,0.0,0.0,0.0,0.0,0.0,0.0,0.0,0.0,0.0,0.0,-1.6652,-1.5847,-1.5463,-1.5568,-1.6208,-1.719,-1.7973,0.0,0.0,0.0,0.0,0.0,0.0,0.0,0.0,0.0,0.0,0.0,0.0,0.0,0.0,0.0,0.0,0.0,0.0,0.0,0.0,0.0,0.0,0.0,0.0,0.0,0.0,0.0,0.0,0.0,0.0,0.0,0.0,0.0,0.0,0.0,0.0,0.0,0.0,0.0,0.0,0.0,0.0,0.0,0.0,0.0,0.0,0.0,0.0,-3.4815,0.0,0.0,0.0,0.0,0.0,0.0,0.0,0.0,0.0,0.0,0.0,0.0,0.0,0.0,0.0,0.0,0.0,0.0,0.0,0.0,0.0,0.0,0.0,0.0,0.0,0.0,0.0,0.0,0.0,0.0,0.0,0.0,0.0,0.0,0.0,0.0,0.0,0.0,0.0,0.0,0.0,0.0,0.0,0.0,0.0,0.0,0.0,0.0,0.0,0.0,0.0,0.0,0.0,0.0,0.0,0.0,0.0,0.0,0.0,-1.6821,-1.5974,-1.5923,-1.6139,-1.6616,-1.8029,-1.894,0.0,0.0,0.0,0.0,0.0,0.0,0.0,0.0,0.0,0.0,0.0,0.0,0.0,0.0,0.0,0.0,0.0,0.0,0.0,0.0,0.0,0.0,0.0,0.0,0.0,0.0,0.0,0.0,0.0,0.0,0.0,0.0,0.0,0.0,0.0,0.0,0.0,0.0,0.0,0.0,0.0,0.0,0.0,0.0,0.0,0.0,0.0,0.0,0.0,0.0,0.0,0.0,0.0,0.0,0.0,0.0,0.0,0.0,0.0,0.0,0.0,0.0,0.0,0.0,0.0,0.0,0.0,0.0,0.0,0.0,0.0,0.0,0.0,0.0,0.0,0.0,0.0,0.0,0.0,0.0,0.0,0.0,0.0,0.0,0.0,0.0,0.0,0.0,0.0,0.0,0.0,0.0,0.0,0.0,0.0,0.0,0.0,0.0,0.0,0.0,0.0,0.0,0.0,0.0,0.0,0.0,0.0,-1.7318,-1.6934,-1.6299,-1.6487,-1.6747,-1.6955,-1.891,-2.001,-2.0105,0.0,0.0,0.0,0.0,0.0,0.0,0.0,0.0,0.0,0.0,0.0,0.0,0.0,0.0,0.0,0.0,0.0,0.0,0.0,0.0,0.0,0.0,0.0,0.0,0.0,0.0,0.0,0.0,0.0,0.0,0.0,0.0,0.0,0.0,0.0,0.0,0.0,0.0,-3.1899,-3.411,0.0,0.0,0.0,0.0,0.0,0.0,0.0,0.0,-3.9081,0.0,0.0,0.0,0.0,0.0,0.0,0.0,0.0,0.0,0.0,0.0,0.0,0.0,0.0,0.0,0.0,0.0,0.0,0.0,0.0,0.0,0.0,0.0,0.0,0.0,0.0,0.0,0.0,0.0,0.0,0.0,0.0,0.0,0.0,0.0,0.0,0.0,0.0,0.0,0.0,0.0,0.0,0.0,0.0,0.0,0.0,0.0,0.0,0.0,0.0,0.0,0.0,0.0,0.0,0.0,0.0,-1.7701,-1.7133,-1.6965,-1.7249,-1.6995,-1.7192,-1.798,-1.9556,-2.0284,-2.0122,0.0,0.0,0.0,0.0,0.0,0.0,0.0,0.0,0.0,0.0,0.0,0.0,0.0,0.0,0.0,0.0,0.0,0.0,0.0,0.0,0.0,0.0,0.0,0.0,0.0,0.0,0.0,0.0,0.0,0.0,0.0,0.0,0.0,0.0,0.0,0.0,0.0,0.0,0.0,-3.7472,-3.8801,0.0,0.0,0.0,0.0,0.0,0.0,0.0,0.0,-3.9683,0.0,0.0,0.0,0.0,0.0,0.0,0.0,0.0,0.0,0.0,0.0,0.0,0.0,0.0,0.0,0.0,0.0,0.0,0.0,0.0,0.0,0.0,0.0,0.0,0.0,0.0,0.0,0.0,0.0,0.0,0.0,0.0,0.0,0.0,0.0,0.0,0.0,0.0,0.0,0.0,0.0,0.0,0.0,0.0,0.0,0.0,0.0,0.0,0.0,0.0,0.0,0.0,0.0,0.0,0.0,-1.7957,-1.7634,-1.7547,-1.7704,-1.7648,-1.8038,-1.8968,-2.0079,-2.0881,0.0,0.0,0.0,0.0,0.0,0.0,0.0,0.0,0.0,0.0,0.0,0.0,0.0,0.0,0.0,0.0,0.0,0.0,0.0,0.0,0.0,0.0,0.0,0.0,0.0,0.0,0.0,0.0,0.0,0.0,0.0,0.0,0.0,0.0,0.0,0.0,0.0,0.0,0.0,0.0,-3.9296,-4.0562,-4.1023,0.0,0.0,0.0,0.0,0.0,0.0,-4.1695,-4.1497,0.0,0.0,0.0,0.0,0.0,0.0,0.0,0.0,0.0,0.0,0.0,0.0,0.0,0.0,0.0,0.0,0.0,0.0,0.0,0.0,0.0,0.0,0.0,0.0,0.0,0.0,0.0,0.0,0.0,0.0,0.0,0.0,0.0,0.0,0.0,0.0,0.0,0.0,0.0,0.0,0.0,0.0,0.0,0.0,0.0,0.0,0.0,0.0,0.0,0.0,0.0,0.0,0.0,0.0,0.0,-1.8098,-1.8087,-1.8052,-1.8027,-1.8447,-1.9029,-1.9795,-2.0841,-2.1815,0.0,0.0,0.0,0.0,0.0,0.0,0.0,0.0,0.0,0.0,0.0,0.0,0.0,0.0,0.0,0.0,0.0,0.0,0.0,0.0,0.0,0.0,0.0,0.0,0.0,0.0,0.0,0.0,0.0,0.0,0.0,0.0,0.0,0.0,0.0,0.0,0.0,0.0,0.0,0.0,0.0,-4.213,-4.3464,-4.384,0.0,0.0,0.0,0.0,-4.4014,-4.3875,0.0,0.0,0.0,0.0,0.0,0.0,0.0,0.0,0.0,0.0,0.0,0.0,0.0,0.0,0.0,0.0,0.0,0.0,0.0,0.0,0.0,0.0,0.0,0.0,0.0,0.0,0.0,0.0,0.0,0.0,0.0,0.0,0.0,0.0,0.0,0.0,0.0,0.0,0.0,0.0,0.0,0.0,0.0,0.0,0.0,0.0,0.0,0.0,0.0,0.0,0.0,0.0,0.0,0.0,0.0,0.0,-1.8014,-1.7825,-1.796,-1.8388,-1.9375,-1.9992,-2.0182,-2.2303,-2.3287,0.0,0.0,0.0,0.0,0.0,0.0,0.0,0.0,0.0,0.0,0.0,0.0,0.0,0.0,0.0,0.0,0.0,0.0,0.0,0.0,0.0,0.0,0.0,0.0,0.0,0.0,0.0,0.0,0.0,0.0,0.0,0.0,0.0,0.0,0.0,0.0,0.0,0.0,0.0,0.0,0.0,-4.4193,-4.4515,-4.5734,-4.6274,0.0,0.0,-4.6368,-4.6403,-4.5701,0.0,0.0,0.0,0.0,0.0,0.0,0.0,0.0,0.0,0.0,0.0,0.0,0.0,0.0,0.0,0.0,0.0,0.0,0.0,0.0,0.0,0.0,0.0,0.0,0.0,0.0,0.0,0.0,0.0,0.0,0.0,0.0,0.0,0.0,0.0,0.0,0.0,0.0,0.0,0.0,0.0,0.0,0.0,0.0,0.0,0.0,0.0,0.0,0.0,0.0,0.0,0.0,0.0,0.0,0.0,-1.7976,-1.8292,-1.8609,-1.9004,-1.9498,-2.0514,-2.1581,-2.2641,-2.3529,-2.4423,0.0,0.0,0.0,0.0,0.0,0.0,0.0,0.0,0.0,0.0,0.0,0.0,0.0,0.0,0.0,0.0,0.0,0.0,0.0,0.0,0.0,0.0,0.0,0.0,0.0,0.0,0.0,0.0,0.0,0.0,0.0,0.0,0.0,0.0,0.0,0.0,0.0,0.0,0.0,0.0,0.0,0.0,-4.6404,-4.7605,0.0,0.0,0.0,-4.8612,-4.8612,0.0,0.0,0.0,0.0,0.0,0.0,0.0,0.0,0.0,0.0,0.0,0.0,0.0,0.0,0.0,0.0,0.0,0.0,0.0,0.0,0.0,0.0,0.0,0.0,0.0,0.0,0.0,0.0,0.0,0.0,0.0,0.0,0.0,0.0,0.0,0.0,0.0,0.0,0.0,0.0,0.0,0.0,0.0,0.0,0.0,0.0,0.0,0.0,0.0,0.0,0.0,0.0,0.0,0.0,0.0,0.0,0.0,-1.8704,-1.9398,-1.9975,-2.047,-2.1852,-2.3236,-2.4549,-2.5011,0.0,0.0,0.0,0.0,0.0,0.0,0.0,0.0,0.0,0.0,0.0,0.0,0.0,0.0,0.0,0.0,0.0,0.0,0.0,0.0,0.0,0.0,0.0,0.0,0.0,0.0,0.0,-3.0607,0.0,0.0,0.0,0.0,0.0,0.0,0.0,0.0,0.0,0.0,0.0,0.0,0.0,0.0,-4.5925,-4.8352,-4.9582,-5.0453,0.0,0.0,-5.0897,-5.0897,-5.0011,-4.873,0.0,0.0,0.0,0.0,0.0,0.0,0.0,0.0,0.0,0.0,0.0,0.0,0.0,0.0,0.0,0.0,0.0,0.0,0.0,0.0,0.0,0.0,0.0,0.0,0.0,0.0,0.0,0.0,0.0,0.0,0.0,0.0,0.0,0.0,0.0,0.0,0.0,0.0,0.0,0.0,0.0,0.0,0.0,0.0,0.0,0.0,0.0,0.0,0.0,0.0,0.0,0.0,0.0,0.0,-1.8738,-1.9252,-1.991,-2.0486,-2.0899,-2.3383,-2.4757,-2.4929,-2.7047,-2.8016,0.0,0.0,0.0,0.0,0.0,0.0,0.0,0.0,0.0,0.0,0.0,0.0,0.0,0.0,0.0,0.0,0.0,0.0,0.0,0.0,0.0,0.0,0.0,0.0,0.0,0.0,0.0,0.0,0.0,0.0,0.0,0.0,0.0,0.0,0.0,0.0,0.0,0.0,0.0,0.0,0.0,-4.8211,-5.0015,-5.1619,-5.2933,0.0,-5.357,-5.3359,-5.3329,-5.1877,-5.0159,-4.8533,0.0,0.0,0.0,0.0,0.0,0.0,0.0,0.0,0.0,0.0,0.0,0.0,0.0,0.0,0.0,0.0,0.0,0.0,0.0,0.0,0.0,0.0,0.0,0.0,0.0,0.0,0.0,0.0,0.0,0.0,0.0,0.0,0.0,0.0,0.0,0.0,0.0,0.0,0.0,0.0,0.0,0.0,0.0,0.0,0.0,0.0,0.0,0.0,0.0,0.0,0.0,0.0,0.0,-1.977,-2.0347,-2.1064,-2.206,-2.348,-2.5594,-2.7178,-2.8211,-2.9527,-3.0229,0.0,0.0,0.0,0.0,0.0,0.0,0.0,0.0,0.0,0.0,0.0,0.0,0.0,0.0,0.0,0.0,0.0,0.0,0.0,0.0,0.0,0.0,0.0,0.0,0.0,0.0,0.0,0.0,-3.7369,-3.8019,-3.7761,0.0,0.0,0.0,0.0,0.0,0.0,0.0,0.0,0.0,0.0,-4.9507,-5.2253,-5.3597,0.0,0.0,-5.5552,-5.5022,-5.5022,-5.3176,-5.1245,-4.9941,-4.7836,0.0,0.0,0.0,0.0,0.0,0.0,0.0,0.0,0.0,0.0,0.0,0.0,0.0,0.0,0.0,0.0,0.0,0.0,0.0,0.0,0.0,0.0,0.0,0.0,0.0,0.0,0.0,0.0,0.0,0.0,0.0,0.0,0.0,0.0,0.0,0.0,0.0,0.0,0.0,0.0,0.0,0.0,0.0,0.0,0.0,0.0,0.0,0.0,0.0,0.0,0.0,0.0,-2.0879,-2.1483,-2.2463,-2.3803,-2.5527,-2.7544,-2.9367,-3.1002,-3.1697,-3.2269,0.0,0.0,0.0,0.0,0.0,0.0,0.0,0.0,0.0,0.0,0.0,0.0,0.0,0.0,0.0,0.0,0.0,0.0,0.0,0.0,0.0,0.0,0.0,0.0,0.0,0.0,0.0,0.0,-3.8621,-3.9124,-3.9363,0.0,0.0,0.0,0.0,0.0,0.0,0.0,0.0,0.0,0.0,-5.1065,-5.3789,-5.4834,-5.5854,-5.746,-5.6694,-5.5952,-5.5983,-5.4001,-5.2035,-5.0796,0.0,0.0,0.0,0.0,0.0,0.0,0.0,0.0,0.0,0.0,0.0,0.0,0.0,0.0,0.0,0.0,0.0,0.0,0.0,0.0,0.0,0.0,0.0,0.0,0.0,0.0,0.0,0.0,0.0,0.0,-2.2545,0.0,0.0,0.0,0.0,0.0,0.0,0.0,0.0,0.0,0.0,0.0,0.0,0.0,0.0,0.0,0.0,0.0,0.0,0.0,0.0,0.0,0.0,-2.2074,-2.2612,-2.4099,-2.5417,-2.6627,-2.9061,-3.118,-3.2852,-3.3448,-3.4024,-3.4555,0.0,0.0,0.0,0.0,0.0,0.0,0.0,0.0,0.0,0.0,0.0,0.0,0.0,0.0,0.0,0.0,0.0,0.0,0.0,0.0,0.0,0.0,0.0,0.0,0.0,0.0,-3.9786,-3.97,-3.977,0.0,0.0,0.0,0.0,0.0,0.0,0.0,0.0,0.0,0.0,-5.1305,-5.3252,-5.418,-5.4987,-5.6039,-5.7548,-5.6846,-5.614,-5.6171,-5.4447,-5.2526,0.0,0.0,0.0,0.0,0.0,0.0,0.0,0.0,0.0,0.0,0.0,0.0,0.0,0.0,0.0,0.0,0.0,0.0,0.0,0.0,0.0,0.0,0.0,0.0,0.0,0.0,0.0,-1.9064,-1.9561,0.0,0.0,0.0,0.0,0.0,0.0,0.0,0.0,0.0,0.0,0.0,-1.9459,-1.9762,0.0,0.0,0.0,0.0,0.0,0.0,0.0,0.0,0.0,0.0,0.0,0.0,-2.4136,-2.5137,-2.6115,-2.7707,-2.9867,-3.1847,-3.3911,-3.602,-3.6764,-3.7293,-3.7667,0.0,0.0,0.0,0.0,0.0,0.0,0.0,0.0,0.0,0.0,0.0,0.0,0.0,0.0,0.0,0.0,0.0,0.0,0.0,0.0,0.0,0.0,0.0,0.0,0.0,-4.1905,0.0,0.0,0.0,0.0,0.0,0.0,0.0,0.0,0.0,0.0,0.0,-4.9404,-5.1653,-5.3057,-5.4384,-5.583,-5.6129,-5.6631,0.0,0.0,0.0,0.0,0.0,0.0,0.0,0.0,0.0,0.0,0.0,0.0,0.0,0.0,-4.8714,-4.6756,-4.7394,-4.8331,-4.8601,0.0,0.0,0.0,0.0,0.0,0.0,0.0,0.0,0.0,0.0,0.0,0.0,0.0,0.0,-1.751,0.0,-1.9248,0.0,0.0,0.0,0.0,0.0,0.0,0.0,0.0,-1.8703,-1.9161,-1.9664,-2.0308,-2.1292,0.0,-2.239,-2.2245,0.0,0.0,0.0,0.0,0.0,0.0,0.0,0.0,-2.6229,-2.7352,-2.8613,-3.0387,-3.2764,-3.4458,-3.6596,-3.9223,-4.0214,-4.0766,-4.0882,-4.0385,-3.9549,0.0,0.0,0.0,0.0,0.0,0.0,0.0,0.0,0.0,0.0,0.0,0.0,0.0,0.0,0.0,0.0,0.0,0.0,0.0,0.0,0.0,0.0,0.0,-4.4571,0.0,0.0,0.0,0.0,0.0,0.0,0.0,0.0,0.0,-4.7997,-4.9802,-5.1784,-5.3741,-5.4769,-5.5706,-5.6875,0.0,0.0,0.0,0.0,0.0,0.0,0.0,-5.5233,-5.5253,-5.4952,-5.4586,-5.4325,-5.3784,-5.3345,-5.3345,0.0,0.0,-5.0094,-5.0737,-5.1883,-5.2233,-5.2846,-5.3489,-5.3742,-5.3836,-5.3929,0.0,0.0,0.0,0.0,0.0,0.0,0.0,0.0,-1.6045,-1.6219,0.0,-1.7743,0.0,0.0,0.0,0.0,0.0,-2.0032,0.0,0.0,-1.9492,-2.0254,-2.0149,-2.1655,-2.2944,-2.3924,-2.3959,-2.4423,-2.5273,-2.4246,0.0,0.0,0.0,0.0,0.0,0.0,-2.8334,-2.9353,-3.1524,-3.3485,-3.5242,-3.6889,-3.9237,-4.2307,-4.3745,-4.4378,-4.4228,-4.3345,-4.2343,-4.1172,-3.9184,0.0,0.0,0.0,0.0,0.0,0.0,0.0,0.0,0.0,0.0,0.0,0.0,0.0,0.0,0.0,0.0,0.0,0.0,0.0,0.0,-4.6954,0.0,0.0,0.0,0.0,0.0,0.0,0.0,0.0,0.0,0.0,-5.0513,-5.2537,-5.4358,-5.5303,0.0,0.0,0.0,0.0,-5.8703,-6.0251,-5.9738,-5.9089,-5.8864,-5.8572,-5.8133,-5.7476,0.0,0.0,-5.7637,-5.7603,-5.7603,-5.7603,-5.7603,-5.6611,-5.3645,-5.4192,-5.5144,-5.5477,-5.6159,-5.6674,-5.6909,-5.7073,-5.7235,-1.2593,0.0,0.0,0.0,0.0,-1.5272,-1.5034,-1.4952,-1.4931,-1.5024,-1.5313,-1.653,0.0,0.0,0.0,0.0,0.0,0.0,-1.8786,-1.9074,-1.9416,-2.0516,-2.2244,-2.2882,-2.3993,-2.5458,-2.5482,-2.6249,-2.7644,-2.7288,-2.6879,-2.6553,0.0,0.0,0.0,0.0,-3.1208,-3.2002,-3.4517,-3.6735,-3.8583,-4.0067,-4.2272,-4.5282,-4.685,-4.7562,-4.7394,-4.6513,-4.5582,-4.4525,-4.2541,0.0,0.0,0.0,0.0,0.0,0.0,0.0,0.0,0.0,0.0,0.0,0.0,0.0,0.0,0.0,0.0,0.0,0.0,0.0,-5.0259,-4.9985,-4.9198,0.0,0.0,0.0,0.0,0.0,0.0,0.0,0.0,0.0,-5.6267,-5.7064,-5.787,0.0,0.0,-6.0389,-6.099,-6.0974,-6.1259,-6.232,-6.2128,0.0,-6.1565,-6.1501,-6.1476,-6.1695,-6.209,-6.2265,-6.2053,-6.191,-6.1838,-6.1803,-6.1803,-6.1529,-6.0841,-5.9391,-5.8668,-5.8806,-5.953,-6.0186,-6.0391,-6.0459,-6.0595,-1.2287,-1.3063,-1.3955,-1.4576,-1.4909,-1.4533,-1.432,-1.4266,-1.4408,-1.4596,-1.4892,-1.5921,-1.677,-1.7425,-1.8317,0.0,0.0,0.0,-1.9251,-1.9993,-2.0569,-2.172,-2.3388,-2.4226,-2.5536,-2.722,-2.7253,-2.8185,-2.9915,-3.0161,-3.0192,-3.001,0.0,0.0,-3.1446,-3.3015,-3.4197,-3.5116,-3.7723,-4.0033,-4.1815,-4.4178,-4.624,-4.7913,-4.9222,-4.9822,-4.964,-4.8808,-4.8016,-4.7352,-4.5166,-4.3353,0.0,0.0,0.0,0.0,0.0,0.0,0.0,0.0,0.0,0.0,0.0,-3.8706,-4.018,0.0,0.0,0.0,-4.9379,-5.1922,-5.3778,-5.3068,0.0,0.0,0.0,0.0,0.0,0.0,0.0,-5.4464,-5.7099,-5.9452,-6.1193,-6.2379,-6.2645,-6.16,-6.222,-6.2994,-6.3519,0.0,-6.4443,-6.5193,-6.549,-6.5539,-6.5409,-6.5625,-6.588,-6.607,-6.6005,-6.5828,-6.5649,-6.5261,-6.4943,-6.487,-6.487,-6.4941,-6.505,-6.376,-6.2577,-6.2299,-6.2924,-6.3552,-6.3693,-6.3693,-6.3764,-1.227,-1.2762,-1.3392,-1.3906,-1.4259,-1.3967,-1.3752,-1.3595,-1.4425,-1.4863,-1.498,-1.5928,-1.6948,-1.8028,-1.9028,0.0,-1.9697,-2.0006,-2.0345,-2.0697,-2.2506,-2.3647,-2.4191,-2.5749,-2.7483,-2.9203,-2.9293,-3.0254,-3.1972,-3.2755,-3.3547,-3.4376,-3.3223,-3.2978,-3.3803,-3.5657,-3.7185,-3.8302,-4.0991,-4.3248,-4.5063,-4.868,-5.046,-5.0285,-5.0972,-5.1322,-5.1226,-5.0395,-4.9837,-4.9605,-4.7214,-4.5665,-4.5096,0.0,0.0,0.0,0.0,0.0,0.0,0.0,0.0,0.0,0.0,0.0,0.0,0.0,0.0,-4.9845,-5.4063,0.0,-5.6939,-5.6072,0.0,0.0,0.0,-5.3588,-5.5079,-5.612,-5.7299,-5.893,0.0,0.0,-6.5215,-6.7722,-6.7981,-6.4289,-6.4747,-6.5555,-6.5743,-6.6952,-6.8012,-6.873,-6.9451,-6.9851,-6.9542,-7.0045,-7.0336,-7.006,-6.946,-6.8823,-6.8573,-6.8009,-6.748,-6.737,-6.7194,-6.7194,-6.7229,-6.7233,-6.6917,-6.5929,-6.6136,-6.652,-6.6417,-6.6382,-6.6383,-1.3106,-1.3546,-1.407,-1.4216,-1.4116,-1.4381,-1.4562,-1.4755,-1.5345,-1.6104,-1.6933,-1.7471,-1.8418,-1.9576,-2.004,-2.03,-2.036,-2.0558,-2.1369,-2.2704,-2.3354,-2.5052,-2.7558,-2.8216,-2.9451,-3.1065,-3.1202,-3.2124,-3.3735,-3.4005,-3.4899,-3.6308,-3.7243,-3.71,-3.595,-3.759,-3.8965,-4.0008,-4.3114,-4.609,-4.8866,-5.0984,-5.1974,-5.1785,-5.2364,-5.2663,-5.2522,-5.1669,-5.1104,-5.0918,-4.9153,-4.7687,-4.6671,-4.4418,0.0,0.0,0.0,0.0,0.0,0.0,0.0,0.0,0.0,-4.3271,-4.5693,0.0,-5.1587,0.0,-5.6486,-5.8399,-5.8454,-5.8101,0.0,0.0,-5.8423,-5.9093,-5.9717,-6.1563,-6.3012,-6.3484,-6.5286,-6.6884,-6.7889,-6.9705,-7.0842,-7.0413,-7.035,-7.0611,-7.126,-7.134,-7.1693,-7.2348,-7.2479,-7.2492,-7.2422,-7.2568,-7.2608,-7.2401,-7.2118,-7.1907,-7.1588,-7.1445,-7.1231,-7.0978,-7.0447,-7.0377,-7.0801,-7.0095,-6.9459,-6.9493,-6.847,-6.7341,-6.7341,-6.7376,-6.7341,-1.4533,-1.4893,-1.5671,-1.6006,-1.5919,-1.5384,-1.5521,-1.6186,-1.6628,-1.7504,-1.864,-1.9156,-1.9795,-2.0512,-2.0749,-2.1059,-2.1421,-2.1918,-2.2869,-2.4163,-2.5481,-2.7104,-2.895,-2.9905,-3.1088,-3.2378,-3.2806,-3.3721,-3.5011,-3.5803,-3.6888,-3.8189,-3.9827,-4.025,-3.956,-4.07,-4.1651,-4.2287,-4.6193,-4.943,-5.184,-5.3051,-5.3548,-5.331,-5.3219,-5.3066,-5.2828,-5.2324,-5.1958,-5.1778,-5.0588,-4.9519,-4.8685,-4.6849,-4.5094,0.0,0.0,0.0,0.0,0.0,0.0,0.0,0.0,0.0,0.0,0.0,-5.4437,-5.7333,-5.9358,-6.0633,-6.1048,-6.0697,-6.0561,-6.0954,-6.1741,-6.2648,-6.3572,-6.5148,-6.6361,-6.6873,-6.8083,-6.9168,-6.99,-7.1182,-7.2295,-7.3027,-7.3325,-7.3447,-7.3556,-7.3652,-7.3921,-7.4356,-7.4552,-7.4704,-7.4704,-7.4636,-7.4534,-7.4395,-7.4039,-7.3685,-7.351,-7.3225,-7.2869,-7.2548,-7.2121,-7.1979,-7.2333,-7.1764,-7.1304,-7.1517,-7.0877,-6.9775,-6.8857,-6.861,-6.8575,-1.6192,-1.6494,-1.7575,-1.8223,-1.843,-1.6897,-1.6828,-1.7799,-1.8148,-1.9033,-2.0241,-2.0894,-2.1228,-2.139,-2.1688,-2.2154,-2.2803,-2.3727,-2.4588,-2.5503,-2.7833,-2.9106,-2.9488,-3.1165,-3.2504,-3.3452,-3.4209,-3.5138,-3.6166,-3.7749,-3.89,-3.9802,-4.1531,-4.2718,-4.3332,-4.4236,-4.4854,-4.5267,-4.9596,-5.262,-5.4149,-5.4797,-5.497,-5.4622,-5.3781,-5.3105,-5.2736,-5.2618,-5.2467,-5.2233,-5.1669,-5.1143,-5.0662,-4.9241,-4.7858,0.0,-4.6395,0.0,0.0,0.0,0.0,0.0,0.0,0.0,0.0,-5.4221,-5.7105,-6.1041,-6.2007,-6.2729,-6.356,-6.3089,-6.3048,-6.3794,-6.4196,-6.5058,-6.6506,-6.7439,-6.8264,-6.9182,-6.9937,-7.0604,-7.1276,-7.2163,-7.2882,-7.351,-7.4188,-7.4362,-7.4037,-7.4579,-7.5158,-7.5195,-7.5774,-7.5959,-7.5995,-7.6,-7.5861,-7.5861,-7.5323,-7.4822,-7.4753,-7.4214,-7.3644,-7.3296,-7.3119,-7.2977,-7.2941,-7.2798,-7.2691,-7.2905,-7.2867,-7.2296,-7.0806,-7.0239,-7.0168,-1.7807,-1.8098,-1.8582,-1.8979,-1.9274,-1.9161,-1.9154,-1.9226,-1.9681,-2.0592,-2.1823,-2.2696,-2.3146,-2.3345,-2.4164,-2.461,-2.4782,-2.5617,-2.6486,-2.7379,-2.8515,-2.988,-3.1322,-3.2411,-3.3769,-3.5259,-3.551,-3.6393,-3.792,-3.8945,-3.9885,-4.0789,-4.3,-4.4472,-4.5163,0.0,0.0,0.0,-5.2252,-5.4128,-5.5606,-5.569,-5.5634,-5.5376,-5.4371,0.0,-5.3432,-5.2736,-5.2246,-5.2005,-5.2483,0.0,0.0,0.0,0.0,0.0,0.0,0.0,0.0,0.0,0.0,0.0,-5.5706,-5.6322,-5.5654,-5.8382,-6.0945,-6.2635,-6.2946,-6.3146,-6.3408,-6.3908,-6.4353,-6.4842,-6.6017,-6.7076,-6.7674,-6.8422,-6.9188,-6.9823,-7.0076,-7.0626,-7.1726,-7.2194,-7.2554,-7.3204,-7.3598,-7.3668,-7.349,-7.4742,-7.5749,-7.5821,-7.5754,-7.5867,-7.5867,-7.5934,-7.5969,-7.5967,-7.6068,-7.5889,-7.568,-7.5574,-7.5362,-7.4976,-7.4476,-7.419,-7.4582,-7.369,-7.3083,-7.3867,-7.3545,-7.2972,-7.2581,-7.2009,-7.1546,-1.9258,0.0,-2.0119,-2.0558,0.0,-2.1049,-2.117,-2.1168,-2.1108,-2.2025,-2.3616,-2.4172,-2.4709,-2.5272,-2.5772,-2.6053,-2.609,-2.6901,-2.7759,-2.8602,-2.985,-3.1162,-3.2489,-3.3844,-3.4944,-3.5852,-3.6705,-3.7766,-3.9046,-3.9922,-4.1178,-4.2812,-4.4753,-4.6292,-4.7436,-4.9981,-5.1677,-5.2549,-5.3754,-5.5124,-5.6582,-5.6525,-5.6374,-5.6161,-5.5167,0.0,0.0,0.0,0.0,0.0,0.0,0.0,0.0,-5.451,0.0,-5.4174,-5.4892,-5.5289,-5.5239,-5.6606,-5.7653,-5.8006,-5.9949,-6.0466,-5.8959,-6.1184,-6.2858,-6.3477,-6.3928,-6.4273,-6.4433,-6.4884,-6.5292,-6.5576,-6.6767,-6.7672,-6.7903,-6.8639,-6.926,-6.9462,-6.9507,-6.9913,-7.0806,-7.0916,-7.1173,-7.1858,-7.236,-7.2575,-7.2683,-7.3786,-7.4676,-7.4713,-7.504,-7.5222,-7.5222,-7.5652,-7.5901,-7.5901,-7.6039,-7.6106,-7.6003,-7.6072,-7.6003,-7.5727,-7.5298,-7.5155,-7.5119,-7.4511,-7.419,-7.469,-7.4653,-7.4471,-7.4433,-7.3536,-7.25,-2.0569,-2.0749,-2.1532,-2.1988,-2.2169,-2.2329,-2.2588,-2.2854,0.0,0.0,0.0,-2.5398,-2.5993,-2.672,-2.6941,-2.7063,-2.7138,-2.7961,-2.8756,-2.9513,-3.1073,-3.2341,-3.3448,-3.5034,-3.6013,-3.6419,-3.7905,-3.9096,-3.9962,-4.1065,-4.2624,-4.4616,-4.6396,-4.8134,-4.9877,-5.2475,-5.3896,-5.4101,-5.4859,-5.6006,-5.7392,-5.742,-5.7338,-5.7226,-5.636,-5.5762,-5.5559,-5.5328,-5.5169,-5.5199,-5.5929,-5.6345,-5.6419,-5.7611,-5.8238,-5.813,-5.8976,-5.9503,-5.9517,-6.0156,-6.0858,-6.1628,-6.2989,-6.3196,-6.1792,-6.3084,-6.3958,-6.3992,-6.4794,-6.5313,-6.5477,-6.5707,-6.5867,-6.6021,-6.6844,-6.7389,-6.7522,-6.8156,-6.862,-6.8641,-6.8615,-6.885,-6.9529,-6.9642,-6.9754,-7.0441,-7.1155,-7.1478,-7.1619,-7.2612,-7.343,-7.3466,-7.3898,-7.4256,-7.4362,-7.4757,-7.5296,-7.5187,-7.5362,-7.5538,-7.5572,-7.5817,-7.5891,-7.5475,-7.5619,-7.5585,-7.5262,-7.5118,-7.5262,-7.5478,-7.5657,-7.5798,-7.5793,-7.4822,-7.3606,-2.1602,-2.1807,-2.2027,-2.2242,-2.2377,-2.2515,-2.2812,-2.3294,-2.4052,-2.471,-2.5299,-2.6123,-2.6622,-2.6925,-2.7727,-2.8082,-2.8147,-2.8795,-2.9613,-3.0505,-3.1399,-3.2717,-3.4422,-3.5435,-3.6656,-3.8113,-3.918,-4.0085,-4.1002,-4.3077,-4.4293,-4.4885,-4.7485,-5.0019,-5.2085,-5.3748,-5.4884,-5.5607,-5.6383,-5.7205,-5.8039,-5.8717,-5.8947,-5.8712,-5.8542,-5.8385,-5.8176,-5.746,-5.73,-5.7732,-5.8464,-5.9132,-5.9716,-6.0439,-6.1055,-6.1527,-6.1472,-6.1648,-6.2126,-6.2736,-6.3408,-6.411,-6.4391,-6.4179,-6.3407,-6.4108,-6.4633,-6.4838,-6.5112,-6.5313,-6.5477,-6.5675,-6.5867,-6.599,-6.6124,-6.6351,-6.6668,-6.6746,-6.7045,-6.7595,-6.7541,-6.8023,-6.9046,-6.9334,-6.9656,-7.03,-7.0623,-7.0693,-7.0942,-7.1941,-7.2761,-7.2869,-7.294,-7.3011,-7.3153,-7.3259,-7.3614,-7.3471,-7.3751,-7.3926,-7.3996,-7.4564,-7.4927,-7.4581,-7.5189,-7.5513,-7.5262,-7.5225,-7.5262,-7.5442,-7.5514,-7.5585,-7.5798,-7.5545,-7.5149,-2.1882,-2.1955,-2.2123,-2.2257,-2.2307,-2.2515,-2.2799,-2.3221,-2.429,-2.5143,-2.5877,-2.6444,-2.7261,-2.8207,-2.8725,-2.897,-2.9026,-2.9772,-3.0594,-3.1495,-3.227,-3.358,-3.5286,-3.6249,-3.731,-3.8561,-3.987,-4.1153,-4.2435,-4.3917,-4.5453,-4.7192,-4.9795,-5.1936,-5.3578,-5.4769,-5.5681,-5.6389,-5.6808,-5.7641,-5.8804,-5.9141,-5.9452,-5.9736,-5.9688,-5.9591,-5.9529,-5.9527,-5.9619,-5.974,-6.09,-6.1679,-6.1912,-6.2926,-6.3615,-6.3794,-6.3788,-6.3896,-6.4087,-6.4173,-6.4355,-6.4706,-6.4706,-6.4601,-6.4214,-6.453,-6.474,-6.4809,-6.5048,-6.5216,-6.5382,-6.5545,-6.5707,-6.5863,-6.5922,-6.6083,-6.6207,-6.6269,-6.6418,-6.6684,-6.7016,-6.7536,-6.8418,-6.8984,-6.9485,-7.0059,-7.0237,-7.0341,-7.048,-7.1049,-7.1585,-7.1585,-7.1906,-7.2156,-7.2227,-7.2618,-7.2868,-7.2939,-7.3078,-7.3182,-7.3252,-7.3748,-7.4072,-7.4295,-7.4689,-7.5012,-7.5118,-7.5225,-7.5262,-7.5442,-7.5478,-7.5585,-7.5727,-7.5798,-7.5545,-2.194,-2.1945,-2.2046,-2.2152,-2.2175,-2.246,-2.2694,-2.3047,-2.3944,-2.5051,-2.6218,-2.6759,-2.7853,-2.9211,-2.9444,-2.955,-2.9729,-3.0412,-3.1294,-3.2139,-3.3006,-3.4421,-3.6152,-3.7014,-3.7931,-3.915,-4.0788,-4.2347,-4.3704,-4.4974,-4.7222,-5.0181,-5.1991,-5.345,-5.4791,-5.5573,-5.6242,-5.6763,-5.7022,-5.7862,-5.9274,-5.9391,-5.9797,-6.0579,-6.0762,-6.086,-6.108,-6.1601,-6.1922,-6.2192,-6.3303,-6.3947,-6.4033,-6.5012,-6.552,-6.5412,-6.551,-6.5445,-6.5249,-6.4912,-6.4706,-6.4706,-6.4706,-6.4706,-6.4706,-6.4706,-6.4706,-6.4706,-6.4946,-6.5149,-6.5316,-6.548,-6.5643,-6.5804,-6.5895,-6.599,-6.6021,-6.6115,-6.6253,-6.6272,-6.6746,-6.7335,-6.803,-6.8742,-6.9383,-6.9814,-7.0097,-7.0272,-7.0411,-7.048,-7.0514,-7.0621,-7.1049,-7.1371,-7.1478,-7.1834,-7.2156,-7.2298,-7.2332,-7.2364,-7.247,-7.2751,-7.3288,-7.3759,-7.4082,-7.4512,-7.4974,-7.5115,-7.5116,-7.5189,-7.5225,-7.5298,-7.5514,-7.5585,-7.5441,-2.1838,-2.1882,-2.1945,-2.1955,-2.2041,-2.2287,-2.2582,-2.2859,-2.3207,-2.4408,-2.6164,-2.7336,-2.8355,-2.9258,-2.9511,-2.9607,-2.9691,-3.045,-3.1334,-3.2239,-3.3037,-3.4764,-3.7089,-3.736,-3.8606,-4.0771,-4.2486,-4.364,-4.4547,-4.7394,-5.0288,-5.2882,-5.3239,-5.4075,-5.5558,-5.6226,-5.6553,-5.6603,-5.7238,-5.8053,-5.9171,-5.9785,-6.0555,-6.1484,-6.2193,-6.2927,-6.3514,-6.3643,-6.4181,-6.5396,-6.5512,-6.5843,-6.6351,-6.6391,-6.6313,-6.6161,-6.5927,-6.5542,-6.5082,-6.4844,-6.4706,-6.4706,-6.4706,-6.4706,-6.4706,-6.4706,-6.4706,-6.474,-6.5048,-6.5249,-6.5316,-6.5578,-6.5775,-6.5879,-6.5875,-6.5867,-6.6066,-6.5895,-6.6149,-6.7024,-6.6984,-6.7285,-6.8533,-6.8856,-6.9176,-6.9849,-7.0062,-7.0202,-7.0272,-7.0375,-7.0514,-7.0514,-7.0621,-7.0693,-7.0728,-7.0657,-7.0907,-7.0871,-7.0764,-7.0977,-7.126,-7.1792,-7.2362,-7.3261,-7.3619,-7.4225,-7.4684,-7.4782,-7.4669,-7.4782,-7.4782,-7.4782,-7.4931,-7.5151,-7.5048,-2.1723,-2.1723,-2.1768,-2.1827,-2.193,-2.2223,-2.2474,-2.2694,-2.304,-2.4265,-2.5973,-2.6753,-2.7848,-2.9238,-2.9353,-2.9725,-3.0338,-3.1202,-3.2059,-3.2986,-3.3911,-3.5405,-3.7303,-3.7894,-3.9195,-4.1149,-4.3126,-4.4472,-4.5731,-4.9172,-5.1899,-5.3285,-5.4154,-5.5148,-5.6113,-5.635,-5.6705,-5.718,-5.7376,-5.8166,-5.9554,-6.0005,-6.0834,-6.2057,-6.2533,-6.3082,-6.3888,-6.4234,-6.484,-6.5831,-6.6199,-6.646,-6.6602,-6.6452,-6.63,-6.6115,-6.5736,-6.5382,-6.5048,-6.4809,-6.4706,-6.4706,-6.4706,-6.4706,-6.4706,-6.4706,-6.4706,-6.474,-6.498,-6.5149,-6.5149,-6.5447,-6.5785,-6.6245,-6.6417,-6.6692,-6.7186,-6.7094,-6.7242,-6.756,-6.782,-6.8077,-6.8611,-6.8999,-6.9352,-6.9813,-6.9991,-7.0062,-7.0167,-7.0411,-7.048,-7.055,-7.0871,-7.0942,-7.0657,-7.0514,-7.0514,-7.0514,-7.0514,-7.0585,-7.1227,-7.1475,-7.2154,-7.3119,-7.3581,-7.4078,-7.4602,-7.4633,-7.4593,-7.4591,-7.4593,-7.4631,-7.4707,-7.4782,-7.4753,-2.1604,-2.1543,-2.1617,-2.1723,-2.1827,-2.2152,-2.2391,-2.2649,-2.299,-2.4217,-2.5936,-2.6254,-2.7402,-2.8975,-2.9249,-2.9851,-3.0804,-3.1699,-3.2616,-3.3571,-3.4697,-3.6005,-3.7409,-3.8483,-3.9902,-4.1769,-4.3823,-4.5574,-4.7276,-5.0639,-5.297,-5.3784,-5.5133,-5.6141,-5.6671,-5.6696,-5.6927,-5.7474,-5.7449,-5.8151,-5.9645,-5.9983,-6.0825,-6.238,-6.2552,-6.3027,-6.4025,-6.4485,-6.5121,-6.6025,-6.6467,-6.6608,-6.6452,-6.63,-6.6146,-6.5927,-6.5542,-6.5249,-6.5082,-6.4878,-6.4706,-6.4706,-6.4706,-6.4706,-6.4706,-6.4706,-6.4706,-6.4706,-6.4844,-6.4946,-6.5048,-6.5459,-6.6015,-6.6581,-6.6894,-6.742,-6.785,-6.7858,-6.7861,-6.8145,-6.8397,-6.8753,-6.8785,-6.9098,-6.9414,-6.9669,-6.9813,-6.992,-7.0097,-7.0307,-7.0481,-7.08,-7.1336,-7.1337,-7.0944,-7.1156,-7.1085,-7.1121,-7.1228,-7.1442,-7.187,-7.1977,-7.2264,-7.3332,-7.3685,-7.4212,-7.4874,-7.4939,-7.4935,-7.4759,-7.4653,-7.4547,-7.4517,-7.4517,-7.4555,-2.1387,-2.1373,-2.1543,-2.1678,-2.1827,-2.2089,-2.2377,-2.2731,-2.2987,-2.4191,-2.5887,-2.6258,-2.7289,-2.8915,-2.9222,-2.982,-3.0791,-3.1716,-3.2681,-3.3694,-3.5264,-3.6487,-3.7485,-3.9012,-4.095,-4.3074,-4.4711,-4.719,-5.0357,-5.2222,-5.3756,-5.5053,-5.5905,-5.6744,-5.7316,-5.7267,-5.7351,-5.7363,-5.7264,-5.7985,-5.9398,-5.9646,-6.0503,-6.2172,-6.2407,-6.3099,-6.4421,-6.45,-6.512,-6.6677,-6.6416,-6.6336,-6.6305,-6.6115,-6.5927,-6.5804,-6.548,-6.5282,-6.5216,-6.4912,-6.4706,-6.4706,-6.4706,-6.4706,-6.4706,-6.4706,-6.4672,-6.4672,-6.4706,-6.4775,-6.4982,-6.5714,-6.6309,-6.6521,-6.7159,-6.7618,-6.7724,-6.7901,-6.8008,-6.854,-6.8647,-6.8749,-6.9237,-6.9192,-6.9227,-6.9412,-6.956,-6.9705,-6.9991,-7.0168,-7.0663,-7.1302,-7.1552,-7.1517,-7.1693,-7.1871,-7.2335,-7.2299,-7.205,-7.262,-7.2691,-7.2834,-7.3226,-7.3685,-7.4352,-7.4906,-7.5313,-7.5548,-7.5569,-7.5358,-7.4761,-7.4589,-7.4639,-7.4431,-7.4361,-2.1356,-2.1387,-2.1572,-2.1738,-2.1882,-2.2231,-2.2815,-2.35,-2.3852,-2.5024,-2.6498,-2.6934,-2.774,-2.8929,-2.9673,-3.0527,-3.1523,-3.2424,-3.3412,-3.4411,-3.5567,-3.6818,-3.8245,-3.978,-4.1719,-4.3887,-4.5392,-4.7642,-5.0635,-5.2703,-5.4096,-5.5038,-5.6261,-5.701,-5.7076,-5.7036,-5.7036,-5.7112,-5.701,-5.7752,-5.9311,-5.9394,-6.0151,-6.1759,-6.1978,-6.2512,-6.3627,-6.3906,-6.4518,-6.5472,-6.5832,-6.5895,-6.5768,-6.564,-6.551,-6.548,-6.5249,-6.508,-6.5082,-6.4843,-6.4706,-6.4706,-6.4706,-6.4672,-6.4706,-6.4706,-6.4637,-6.4533,-6.4498,-6.4533,-6.4708,-6.5547,-6.6388,-6.6813,-6.7728,-6.854,-6.8929,-6.8965,-6.9,-6.9175,-6.9029,-6.8947,-6.8975,-6.9043,-6.9115,-6.9227,-6.9451,-6.9844,-7.0377,-7.0628,-7.1126,-7.1871,-7.2403,-7.2721,-7.2722,-7.2439,-7.2368,-7.2405,-7.2439,-7.3114,-7.3434,-7.3897,-7.4319,-7.5089,-7.5571,-7.5811,-7.6247,-7.6132,-7.6187,-7.6011,-7.5414,-7.5033,-7.4936,-7.4765,-7.4593,-2.1356,-2.1495,-2.1663,-2.1842,-2.2032,-2.2629,-2.3295,-2.4072,-2.4635,-2.5704,-2.6966,-2.7393,-2.8201,-2.9331,-3.0339,-3.1325,-3.2251,-3.2991,-3.3944,-3.5151,-3.6054,-3.736,-3.9014,-4.0779,-4.2636,-4.4661,-4.67,-4.8764,-5.0821,-5.3108,-5.4326,-5.4785,-5.6303,-5.6959,-5.6839,-5.6812,-5.6865,-5.6881,-5.6855,-5.7611,-5.9105,-5.9202,-5.9873,-6.1221,-6.153,-6.2011,-6.2853,-6.3219,-6.3717,-6.4317,-6.4951,-6.5294,-6.5412,-6.5349,-6.5316,-6.5282,-6.5115,-6.4945,-6.4912,-6.4706,-6.4568,-6.4533,-6.4498,-6.4568,-6.4533,-6.4533,-6.4463,-6.4358,-6.4323,-6.4252,-6.4425,-6.5442,-6.6461,-6.6951,-6.8008,-6.8925,-6.9383,-6.9344,-6.927,-6.9198,-6.8973,-6.8819,-6.8743,-6.8816,-6.8892,-6.8965,-6.937,-7.0049,-7.0545,-7.1152,-7.1688,-7.2432,-7.289,-7.3277,-7.3454,-7.3239,-7.3246,-7.3248,-7.346,-7.3989,-7.4484,-7.498,-7.5504,-7.6336,-7.678,-7.6951,-7.6941,-7.6824,-7.6713,-7.6643,-7.6222,-7.577,-7.5525,-7.5244,-7.5037,-2.1402,-2.162,-2.1738,-2.1993,-2.2406,-2.319,-2.3784,-2.4396,-2.5322,-2.63,-2.7279,-2.755,-2.8675,-3.0015,-3.1113,-3.2154,-3.2976,-3.3407,-3.4303,-3.5683,-3.6873,-3.8154,-3.9701,-4.1887,-4.3789,-4.5436,-4.8632,-5.0489,-5.1226,-5.3267,-5.4445,-5.4777,-5.5975,-5.6704,-5.6786,-5.676,-5.675,-5.6776,-5.6767,-5.7549,-5.8942,-5.9023,-5.9688,-6.1019,-6.1146,-6.1592,-6.2572,-6.2451,-6.2699,-6.328,-6.3847,-6.4433,-6.4931,-6.5004,-6.5143,-6.497,-6.4941,-6.4807,-6.4601,-6.4428,-6.4253,-6.4287,-6.4216,-6.4251,-6.4251,-6.4251,-6.4216,-6.418,-6.418,-6.4143,-6.4208,-6.5393,-6.6445,-6.6651,-6.7808,-6.8717,-6.8784,-6.8743,-6.8705,-6.8743,-6.859,-6.8513,-6.859,-6.8551,-6.8586,-6.8948,-6.9523,-7.0272,-7.0775,-7.1417,-7.2315,-7.299,-7.3264,-7.3393,-7.378,-7.4135,-7.429,-7.4476,-7.4832,-7.5257,-7.5638,-7.6097,-7.6442,-7.7133,-7.7515,-7.7685,-7.7814,-7.7661,-7.7486,-7.7345,-7.6854,-7.6573,-7.6257,-7.5976,-7.552,-2.162,-2.1738,-2.1842,-2.2362,-2.311,-2.3624,-2.4524,-2.5791,-2.6406,-2.7176,-2.8088,-2.8894,-2.96,-3.0381,-3.1703,-3.2933,-3.387,-3.4535,-3.5212,-3.6042,-3.7776,-3.9214,-4.0496,-4.2582,-4.4798,-4.6961,-4.9023,-5.0376,-5.1249,-5.2858,-5.3864,-5.442,-5.5327,-5.6062,-5.651,-5.6519,-5.6573,-5.6653,-5.6564,-5.7101,-5.8195,-5.8609,-5.9309,-6.023,-6.0683,-6.1111,-6.1385,-6.1829,-6.2067,-6.2132,-6.2746,-6.3148,-6.3193,-6.3161,-6.3094,-6.2992,-6.2889,-6.31,-6.345,-6.352,-6.3694,-6.4041,-6.4215,-6.4215,-6.4215,-6.418,-6.4109,-6.4036,-6.3999,-6.3892,-6.4023,-6.5129,-6.6072,-6.6326,-6.7724,-6.8667,-6.8667,-6.8667,-6.8628,-6.8513,-6.8435,-6.8397,-6.8319,-6.828,-6.8605,-6.9168,-6.971,-7.0357,-7.1408,-7.187,-7.2394,-7.3138,-7.3198,-7.3317,-7.3677,-7.4067,-7.4396,-7.4765,-7.5301,-7.5979,-7.6508,-7.7032,-7.7374,-7.7685,-7.8072,-7.8383,-7.851,-7.8504,-7.8328,-7.8293,-7.8118,-7.7696,-7.7205,-7.6819,-7.6468,-2.1693,-2.1812,-2.1959,-2.2599,-2.3556,-2.4066,-2.5178,-2.6599,-2.7192,-2.8004,-2.8969,-2.9646,-3.0417,-3.1201,-3.2268,-3.3462,-3.4611,-3.5539,-3.6272,-3.6918,-3.8387,-3.9951,-4.1408,-4.3771,-4.6157,-4.8206,-4.9293,-5.021,-5.1166,-5.2384,-5.3264,-5.3723,-5.4776,-5.55,-5.5955,-5.624,-5.6437,-5.6492,-5.6418,-5.6748,-5.7489,-5.7939,-5.8494,-5.9277,-5.9935,-6.02,-6.0276,-6.099,-6.1321,-6.1242,-6.1712,-6.2075,-6.2155,-6.2192,-6.202,-6.1917,-6.1918,-6.2231,-6.2788,-6.2926,-6.3203,-6.3827,-6.3965,-6.3965,-6.3965,-6.3965,-6.3892,-6.382,-6.3818,-6.3747,-6.3844,-6.4979,-6.5883,-6.6066,-6.7496,-6.837,-6.8474,-6.8474,-6.8435,-6.8319,-6.828,-6.8201,-6.8162,-6.8197,-6.8626,-6.9323,-6.9931,-7.057,-7.1752,-7.2354,-7.2841,-7.3154,-7.3235,-7.3392,-7.3502,-7.3926,-7.4421,-7.4967,-7.555,-7.6262,-7.6935,-7.7574,-7.806,-7.8165,-7.8405,-7.8798,-7.896,-7.9101,-7.9066,-7.9136,-7.9276,-7.9101,-7.8679,-7.8012,-7.7521,-2.1753,-2.1842,-2.2089,-2.2767,-2.3721,-2.464,-2.5687,-2.6789,-2.7717,-2.869,-2.9551,-3.0023,-3.1027,-3.2315,-3.2906,-3.3952,-3.5246,-3.6232,-3.7321,-3.8339,-3.9276,-4.0473,-4.2844,-4.5093,-4.7259,-4.9167,-4.9341,-5.0065,-5.1388,-5.2161,-5.2643,-5.2953,-5.4243,-5.5143,-5.5338,-5.5999,-5.6328,-5.63,-5.6217,-5.6517,-5.7121,-5.722,-5.7488,-5.8261,-5.891,-5.9345,-5.9501,-6.0078,-6.0435,-6.0438,-6.0747,-6.1212,-6.1774,-6.1881,-6.1605,-6.1466,-6.1709,-6.1988,-6.2438,-6.2645,-6.2989,-6.3535,-6.3673,-6.36,-6.3673,-6.3673,-6.3673,-6.3637,-6.3637,-6.3637,-6.3841,-6.4841,-6.5707,-6.6048,-6.7264,-6.8093,-6.8123,-6.8123,-6.8123,-6.8123,-6.8083,-6.8044,-6.8044,-6.8044,-6.8452,-6.925,-7.0027,-7.0799,-7.1739,-7.2403,-7.3031,-7.3129,-7.297,-7.3129,-7.3164,-7.3767,-7.4295,-7.5212,-7.579,-7.6607,-7.725,-7.7846,-7.8196,-7.8378,-7.8701,-7.9094,-7.9374,-7.9507,-7.9866,-8.0189,-8.0294,-8.04,-8.0014,-7.9276,-7.882,-2.1988,-2.2094,-2.2209,-2.3153,-2.4476,-2.5016,-2.6121,-2.7565,-2.8125,-2.8917,-2.9849,-3.0659,-3.1541,-3.2733,-3.3997,-3.5128,-3.6012,-3.691,-3.8043,-3.9284,-3.9982,-4.1829,-4.4139,-4.5524,-4.7201,-4.8948,-4.9124,-4.9816,-5.1244,-5.1598,-5.1979,-5.2582,-5.3495,-5.4338,-5.4942,-5.5616,-5.6014,-5.6049,-5.5986,-5.6064,-5.6347,-5.685,-5.7175,-5.7423,-5.8048,-5.8628,-5.9162,-5.9717,-5.9975,-5.9978,-5.9923,-5.9969,-6.0146,-6.0114,-6.008,-6.0013,-6.0393,-6.0981,-6.1637,-6.2224,-6.2845,-6.3496,-6.3637,-6.36,-6.36,-6.36,-6.36,-6.36,-6.36,-6.36,-6.3738,-6.4462,-6.5186,-6.5945,-6.7118,-6.798,-6.8049,-6.8083,-6.8083,-6.8083,-6.7999,-6.7919,-6.7879,-6.7868,-6.8158,-6.922,-6.9879,-7.0477,-7.1488,-7.2107,-7.2586,-7.2416,-7.2331,-7.2544,-7.2885,-7.3522,-7.4279,-7.5345,-7.6133,-7.69,-7.7438,-7.7856,-7.7996,-7.8066,-7.8675,-7.9102,-7.9538,-7.9818,-8.0403,-8.1007,-8.1015,-8.0937,-8.0813,-8.0322,-8.0217,-2.2132,-2.2271,-2.2363,-2.3425,-2.491,-2.522,-2.6366,-2.7875,-2.8327,-2.9186,-3.0285,-3.0974,-3.1942,-3.3143,-3.4426,-3.5416,-3.6259,-3.7314,-3.8615,-4.0124,-4.1668,-4.334,-4.4854,-4.5809,-4.7107,-4.8338,-4.8735,-4.9472,-5.0505,-5.1017,-5.1467,-5.1953,-5.2723,-5.3379,-5.3804,-5.4909,-5.544,-5.5511,-5.5667,-5.5786,-5.5857,-5.6188,-5.637,-5.6547,-5.7092,-5.7907,-5.8901,-5.9179,-5.9364,-5.9644,-5.9619,-5.9419,-5.9319,-5.9183,-5.9115,-5.9012,-5.9461,-6.0151,-6.1151,-6.1772,-6.2461,-6.336,-6.3673,-6.371,-6.3747,-6.3783,-6.382,-6.3747,-6.3747,-6.3673,-6.3703,-6.4255,-6.5014,-6.5807,-6.6669,-6.729,-6.7566,-6.7911,-6.8049,-6.8044,-6.7959,-6.7799,-6.7799,-6.7632,-6.8131,-6.891,-6.9533,-7.0319,-7.1208,-7.1643,-7.1942,-7.1942,-7.1942,-7.2202,-7.2708,-7.3335,-7.4144,-7.5181,-7.6184,-7.699,-7.7407,-7.7798,-7.8093,-7.8233,-7.8685,-7.9251,-7.9826,-8.0438,-8.104,-8.1478,-8.1462,-8.1392,-8.1261,-8.1209,-8.1174,-2.2265,-2.2335,-2.261,-2.3674,-2.508,-2.553,-2.665,-2.7986,-2.8406,-2.9429,-3.0717,-3.1114,-3.2078,-3.3646,-3.4608,-3.5344,-3.6058,-3.7616,-3.9224,-4.1051,-4.3017,-4.4621,-4.4884,-4.6167,-4.7062,-4.7752,-4.8348,-4.9107,-4.9925,-5.0682,-5.1034,-5.1378,-5.2015,-5.2386,-5.2799,-5.3851,-5.4543,-5.4776,-5.512,-5.5414,-5.5555,-5.5637,-5.5677,-5.5812,-5.641,-5.7293,-5.8219,-5.8593,-5.8848,-5.9606,-5.9382,-5.9285,-5.9251,-5.9081,-5.9012,-5.9081,-5.9288,-5.9944,-6.1047,-6.1496,-6.2153,-6.3363,-6.3783,-6.3927,-6.3929,-6.4037,-6.4037,-6.3891,-6.3927,-6.3783,-6.3706,-6.4186,-6.4703,-6.5328,-6.5673,-6.6156,-6.6742,-6.7502,-6.798,-6.8083,-6.7919,-6.7839,-6.7759,-6.7666,-6.7742,-6.8614,-6.9186,-6.9918,-7.0735,-7.1348,-7.1664,-7.1766,-7.181,-7.1898,-7.2488,-7.3181,-7.4011,-7.4977,-7.6049,-7.6882,-7.7194,-7.7638,-7.8083,-7.8474,-7.8657,-7.9463,-8.0556,-8.1168,-8.1631,-8.1941,-8.2007,-8.1893,-8.1698,-8.1738,-8.1723,-2.2474,-2.259,-2.3363,-2.4329,-2.537,-2.6269,-2.7237,-2.834,-2.8497,-2.9494,-3.0793,-3.1111,-3.2069,-3.3597,-3.4882,-3.567,-3.6134,-3.8019,-3.9985,-4.194,-4.3622,-4.4778,-4.5244,-4.6247,-4.6907,-4.7462,-4.8256,-4.8968,-4.9706,-5.0408,-5.0873,-5.0862,-5.1478,-5.1885,-5.1976,-5.2698,-5.3521,-5.3946,-5.4261,-5.4704,-5.5214,-5.5289,-5.5354,-5.5548,-5.6174,-5.6701,-5.7232,-5.8097,-5.8634,-5.8751,-5.8936,-5.9046,-5.9081,-5.9012,-5.9012,-5.9116,-5.9599,-6.0289,-6.1151,-6.1842,-6.2637,-6.3541,-6.3858,-6.3999,-6.4109,-6.418,-6.4109,-6.3929,-6.3927,-6.382,-6.3671,-6.3703,-6.4051,-6.4361,-6.4853,-6.5273,-6.5582,-6.6543,-6.7398,-6.7876,-6.789,-6.7799,-6.7799,-6.751,-6.7721,-6.8318,-6.8948,-6.9524,-7.027,-7.106,-7.1376,-7.159,-7.159,-7.1702,-7.2359,-7.322,-7.4321,-7.5014,-7.5936,-7.6553,-7.6873,-7.7192,-7.7592,-7.8052,-7.8475,-7.9521,-8.0697,-8.1296,-8.1607,-8.2107,-8.2396,-8.2095,-8.1829,-8.2059,-8.2081,-2.2689,-2.2837,-2.3737,-2.4704,-2.5654,-2.6605,-2.7548,-2.835,-2.86,-2.9544,-3.0776,-3.103,-3.2125,-3.3912,-3.5094,-3.5896,-3.7001,-3.8922,-4.1165,-4.2939,-4.413,-4.489,-4.5741,-4.62,-4.668,-4.7036,-4.8045,-4.8783,-4.9354,-5.0241,-5.0873,-5.0729,-5.1094,-5.1144,-5.1213,-5.1818,-5.2376,-5.2863,-5.3594,-5.4147,-5.455,-5.4994,-5.5289,-5.5478,-5.5929,-5.621,-5.6706,-5.7215,-5.7929,-5.8398,-5.8656,-5.8803,-5.8978,-5.9012,-5.9012,-5.9116,-5.9357,-6.0013,-6.0737,-6.1602,-6.2401,-6.3303,-6.3794,-6.4111,-6.4287,-6.4393,-6.4358,-6.418,-6.4073,-6.3963,-6.3637,-6.36,-6.3637,-6.3816,-6.4166,-6.4657,-6.5289,-6.6115,-6.7007,-6.7592,-6.7605,-6.7655,-6.7633,-6.7523,-6.7721,-6.8326,-6.8991,-6.9567,-7.0182,-7.0859,-7.1187,-7.1401,-7.1356,-7.1604,-7.2271,-7.33,-7.4623,-7.5293,-7.5897,-7.6228,-7.6414,-7.6712,-7.6963,-7.7703,-7.8571,-7.944,-8.0501,-8.1098,-8.1407,-8.1551,-8.1646,-8.1741,-8.1767,-8.1757,-8.1851,-2.2946,-2.3196,-2.412,-2.5123,-2.6048,-2.6974,-2.7772,-2.8464,-2.8782,-2.9686,-3.0798,-3.1137,-3.2544,-3.4143,-3.546,-3.6682,-3.8309,-3.9799,-4.1824,-4.3514,-4.4021,-4.4812,-4.5703,-4.6125,-4.6277,-4.6354,-4.7799,-4.8537,-4.8977,-4.9995,-5.0811,-5.0819,-5.0702,-5.0697,-5.0774,-5.1081,-5.1523,-5.1871,-5.2676,-5.3401,-5.3774,-5.4451,-5.5019,-5.5513,-5.5607,-5.5883,-5.631,-5.6676,-5.718,-5.8447,-5.8497,-5.8724,-5.8975,-5.9081,-5.9047,-5.9047,-5.9219,-5.9667,-6.0393,-6.1086,-6.1814,-6.2682,-6.3624,-6.4253,-6.4428,-6.4602,-6.4568,-6.4393,-6.4251,-6.4072,-6.3747,-6.3747,-6.382,-6.3927,-6.3999,-6.4493,-6.5301,-6.5929,-6.6556,-6.7449,-6.7645,-6.7734,-6.7881,-6.7919,-6.8111,-6.841,-6.9033,-6.9687,-7.026,-7.0703,-7.1109,-7.1312,-7.1312,-7.1921,-7.2655,-7.3434,-7.4788,-7.5411,-7.5947,-7.5994,-7.5994,-7.6048,-7.6483,-7.7843,-7.8791,-7.9473,-8.0122,-8.0765,-8.1005,-8.0956,-8.1102,-8.1311,-8.1407,-8.1359,-8.1503,-2.3475,-2.4232,-2.5149,-2.6083,-2.6939,-2.7857,-2.8366,-2.867,-2.9248,-3.0053,-3.1022,-3.2131,-3.3147,-3.4588,-3.6328,-3.8195,-3.9771,-4.0804,-4.1739,-4.317,-4.3722,-4.4471,-4.5226,-4.5884,-4.6059,-4.65,-4.7627,-4.8415,-4.8872,-5.003,-5.067,-5.0667,-5.0612,-5.0557,-5.0453,-5.0493,-5.0853,-5.12,-5.1701,-5.2122,-5.2795,-5.3739,-5.464,-5.5302,-5.5555,-5.5754,-5.5965,-5.6529,-5.7143,-5.7899,-5.8377,-5.8883,-5.9309,-5.9485,-5.9453,-5.9319,-5.9386,-5.9732,-6.0357,-6.0737,-6.1708,-6.2822,-6.3622,-6.411,-6.453,-6.4809,-6.4775,-6.4533,-6.4323,-6.418,-6.4143,-6.4073,-6.4109,-6.4216,-6.4428,-6.4707,-6.5159,-6.5649,-6.639,-6.7618,-6.7819,-6.7942,-6.82,-6.8487,-6.8762,-6.9022,-6.9567,-7.0106,-7.0648,-7.0982,-7.1255,-7.1312,-7.1312,-7.2191,-7.3071,-7.3916,-7.4897,-7.5419,-7.5805,-7.5757,-7.5709,-7.5518,-7.6121,-7.7343,-7.8152,-7.8695,-7.9457,-8.0186,-8.044,-8.0338,-8.0588,-8.0921,-8.0921,-8.0921,-8.1019,-2.3803,-2.4669,-2.5503,-2.6389,-2.7268,-2.8124,-2.8766,-2.9251,-2.9623,-3.0617,-3.1866,-3.2819,-3.4211,-3.5809,-3.6881,-3.8744,-4.0359,-4.1067,-4.1943,-4.3104,-4.3593,-4.4324,-4.5132,-4.5805,-4.5935,-4.6345,-4.7321,-4.8205,-4.8565,-4.9644,-5.0425,-5.0721,-5.0675,-5.0557,-5.0481,-5.0348,-5.0408,-5.0732,-5.0996,-5.1282,-5.1919,-5.3098,-5.4261,-5.4899,-5.5437,-5.5735,-5.5892,-5.6104,-5.6711,-5.7399,-5.8114,-5.8734,-5.9306,-5.98,-5.9914,-5.9586,-5.9553,-5.9725,-6.0211,-6.059,-6.1595,-6.2641,-6.3436,-6.4203,-6.4801,-6.5046,-6.5013,-6.474,-6.4672,-6.4568,-6.4463,-6.4428,-6.4498,-6.4637,-6.4843,-6.5147,-6.5551,-6.6064,-6.7069,-6.8042,-6.787,-6.8148,-6.8868,-6.9161,-6.9406,-6.9779,-7.0175,-7.0644,-7.1147,-7.1304,-7.1535,-7.1717,-7.1842,-7.2766,-7.368,-7.4458,-7.5033,-7.5439,-7.5662,-7.5614,-7.5518,-7.5325,-7.5748,-7.6653,-7.7309,-7.7579,-7.8219,-7.8842,-7.9263,-7.9667,-7.9786,-7.9972,-8.0258,-8.046,-8.044,-2.4156,-2.5158,-2.5709,-2.6561,-2.7609,-2.8453,-2.9202,-2.9784,-3.0374,-3.152,-3.3009,-3.3896,-3.5464,-3.7202,-3.8234,-3.9329,-4.099,-4.1314,-4.2125,-4.3068,-4.3461,-4.4198,-4.5196,-4.5819,-4.593,-4.6095,-4.669,-4.7643,-4.8556,-4.9398,-5.0136,-5.0635,-5.0702,-5.0647,-5.0564,-5.0369,-5.0257,-5.0351,-5.0616,-5.0873,-5.1573,-5.2612,-5.3871,-5.455,-5.5206,-5.561,-5.5929,-5.6,-5.6489,-5.7133,-5.7748,-5.8395,-5.9249,-6.0012,-6.0246,-5.9943,-5.9849,-5.9818,-6.0056,-6.0531,-6.153,-6.2655,-6.3509,-6.4418,-6.5199,-6.5445,-6.5308,-6.5039,-6.4866,-6.4621,-6.4344,-6.4524,-6.4695,-6.4933,-6.5202,-6.5675,-6.6442,-6.7158,-6.7971,-6.8375,-6.8093,-6.8608,-6.9565,-6.9974,-7.0234,-7.058,-7.099,-7.1373,-7.1773,-7.1712,-7.1913,-7.2202,-7.2655,-7.3535,-7.4335,-7.4965,-7.5371,-7.5574,-7.5614,-7.5518,-7.5373,-7.5179,-7.5668,-7.5889,-7.5739,-7.6074,-7.6743,-7.7513,-7.8102,-7.8573,-7.8755,-7.8873,-7.8977,-7.9095,-7.9128,-2.4671,-2.6042,-2.6115,-2.7067,-2.8542,-2.9377,-2.9777,-3.0249,-3.1974,-3.2904,-3.3661,-3.5821,-3.7148,-3.8112,-3.97,-4.0798,-4.1406,-4.1503,-4.1916,-4.2799,-4.3201,-4.3831,-4.4621,-4.5458,-4.5794,-4.5939,-4.622,-4.7197,-4.8275,-4.9188,-5.003,-5.0627,-5.0811,-5.0792,-5.0585,-5.0425,-5.0348,-5.0206,-5.0201,-5.0576,-5.1361,-5.1796,-5.2949,-5.4099,-5.479,-5.5249,-5.5885,-5.6019,-5.6418,-5.7128,-5.7227,-5.8078,-5.9307,-5.9692,-6.0279,-6.0575,-6.0671,-6.0485,-6.0552,-6.0817,-6.1574,-6.2733,-6.3678,-6.4588,-6.5519,-6.5815,-6.5502,-6.4674,-6.4638,-6.4425,-6.4108,-6.4286,-6.4595,-6.5144,-6.5653,-6.6571,-6.7576,-6.8866,-6.9616,-7.0205,-7.0309,-7.0201,-7.0587,-7.0842,-7.108,-7.1406,-7.1822,-7.2261,-7.2402,-7.2279,-7.2311,-7.2604,-7.3107,-7.3956,-7.4632,-7.533,-7.5588,-7.5676,-7.5614,-7.5422,-7.5228,-7.5067,-7.4821,-7.4939,-7.4789,-7.5088,-7.609,-7.6809,-7.7212,-7.7429,-7.7576,-7.7545,-7.7481,-7.7632,-7.7917,-2.5398,-2.6417,-2.6854,-2.8031,-2.9478,-2.9905,-3.0802,-3.201,-3.2937,-3.4305,-3.5761,-3.7004,-3.8347,-3.9608,-4.1029,-4.1612,-4.1823,-4.1538,-4.2033,-4.2834,-4.3364,-4.3994,-4.4974,-4.5613,-4.5879,-4.593,-4.616,-4.674,-4.7819,-4.8661,-4.9434,-5.0171,-5.0662,-5.0819,-5.0585,-5.0481,-5.0313,-5.0235,-5.0212,-5.0408,-5.0926,-5.1542,-5.232,-5.3411,-5.3973,-5.474,-5.5472,-5.5659,-5.6078,-5.6783,-5.7148,-5.7782,-5.8752,-5.9545,-6.0447,-6.0719,-6.1221,-6.1263,-6.1058,-6.1176,-6.1937,-6.2968,-6.3914,-6.4997,-6.6083,-6.6125,-6.5777,-6.5328,-6.4704,-6.4249,-6.3991,-6.4302,-6.4786,-6.5373,-6.6236,-6.7469,-6.8739,-7.0429,-7.1496,-7.2055,-7.2556,-7.2387,-7.2247,-7.2319,-7.2513,-7.2535,-7.2903,-7.3295,-7.3125,-7.2728,-7.2837,-7.3039,-7.3615,-7.4253,-7.4818,-7.5472,-7.5683,-7.5805,-7.5709,-7.5518,-7.5213,-7.4968,-7.4722,-7.4506,-7.4422,-7.4921,-7.5605,-7.5871,-7.6105,-7.6304,-7.642,-7.6489,-7.6641,-7.6908,-7.711,-2.6398,-2.7301,-2.7857,-2.8934,-3.0269,-3.0564,-3.1796,-3.3492,-3.3923,-3.5439,-3.7415,-3.8347,-3.9627,-4.1029,-4.1661,-4.1909,-4.1945,-4.1595,-4.2323,-4.3101,-4.3715,-4.4371,-4.524,-4.5889,-4.599,-4.6015,-4.6105,-4.653,-4.7116,-4.7889,-4.8731,-4.9671,-5.0206,-5.0546,-5.0585,-5.0481,-5.0348,-5.02,-5.0206,-5.032,-5.0649,-5.1262,-5.195,-5.2608,-5.3282,-5.4082,-5.4935,-5.5079,-5.5436,-5.6241,-5.6734,-5.7263,-5.8188,-5.915,-6.0205,-6.0711,-6.1407,-6.177,-6.1715,-6.1895,-6.2312,-6.3266,-6.4558,-6.5852,-6.6948,-6.6537,-6.5743,-6.5569,-6.4767,-6.4284,-6.4075,-6.4267,-6.4968,-6.5907,-6.6985,-6.8228,-6.962,-7.1468,-7.3017,-7.3803,-7.4284,-7.4712,-7.4501,-7.422,-7.4028,-7.3833,-7.4035,-7.434,-7.3975,-7.3403,-7.3621,-7.3869,-7.415,-7.483,-7.5493,-7.5888,-7.5986,-7.5899,-7.5805,-7.5566,-7.531,-7.4968,-7.4672,-7.4473,-7.4272,-7.4438,-7.4904,-7.4968,-7.5083,-7.5252,-7.5435,-7.5701,-7.5918,-7.6169,-7.6205,-2.7791,-2.9309,-2.9243,-2.9724,-3.0582,-3.1937,-3.2976,-3.3986,-3.5027,-3.6348,-3.8061,-3.9617,-4.0978,-4.1739,-4.1846,-4.1902,-4.1966,-4.1582,-4.2462,-4.3231,-4.3718,-4.4565,-4.5461,-4.5955,-4.603,-4.609,-4.6214,-4.6298,-4.6484,-4.7191,-4.8326,-4.953,-4.9811,-5.0161,-5.0375,-5.0481,-5.0376,-5.0257,-5.0228,-5.0453,-5.064,-5.1041,-5.1511,-5.2386,-5.288,-5.3391,-5.4235,-5.4358,-5.4902,-5.5708,-5.6021,-5.6809,-5.7877,-5.8647,-5.9615,-6.0584,-6.1343,-6.1857,-6.2263,-6.2438,-6.285,-6.3946,-6.5331,-6.6715,-6.7665,-6.7284,-6.6519,-6.5617,-6.4853,-6.4042,-6.3881,-6.4138,-6.5294,-6.6526,-6.8007,-6.9714,-7.1153,-7.2755,-7.4246,-7.5325,-7.5973,-7.6245,-7.622,-7.5794,-7.5265,-7.5002,-7.5048,-7.5401,-7.4874,-7.4431,-7.47,-7.4886,-7.4956,-7.548,-7.6347,-7.6576,-7.6427,-7.6228,-7.6041,-7.5757,-7.5373,-7.5115,-7.4919,-7.4656,-7.4506,-7.4322,-7.4221,-7.4487,-7.4586,-7.4387,-7.4453,-7.4902,-7.5002,-7.5086,-7.5054,-2.8531,-2.9748,-3.1236,-3.1966,-3.2124,-3.3155,-3.4181,-3.5192,-3.608,-3.7431,-3.9035,-4.0724,-4.169,-4.1917,-4.1888,-4.1837,-4.1929,-4.2211,-4.2928,-4.3734,-4.4436,-4.5231,-4.5958,-4.6253,-4.6374,-4.635,-4.6423,-4.6447,-4.6517,-4.6846,-4.747,-4.8398,-4.9222,-4.9985,-5.0375,-5.0474,-5.0369,-5.0369,-5.0397,-5.0585,-5.0749,-5.1026,-5.1387,-5.187,-5.2197,-5.2742,-5.3476,-5.367,-5.45,-5.5321,-5.5685,-5.657,-5.7601,-5.8249,-5.9152,-6.0176,-6.0909,-6.1837,-6.2459,-6.272,-6.326,-6.4425,-6.5807,-6.7081,-6.785,-6.7193,-6.6602,-6.5854,-6.517,-6.4422,-6.4422,-6.5136,-6.6256,-6.7441,-6.9099,-7.102,-7.2684,-7.4226,-7.5408,-7.6525,-7.7218,-7.7652,-7.7487,-7.7216,-7.6673,-7.6178,-7.6289,-7.6267,-7.579,-7.5475,-7.5755,-7.5919,-7.5966,-7.6002,-7.6814,-7.6858,-7.6793,-7.6599,-7.6322,-7.6041,-7.5757,-7.5566,-7.5325,-7.5018,-7.4672,-7.4573,-7.4423,-7.4272,-7.4221,-7.4221,-7.4221,-7.4321,-7.4288,-7.4221,-7.4272,-2.9438,-3.065,-3.2645,-3.336,-3.3265,-3.4068,-3.5108,-3.6098,-3.6624,-3.7954,-3.9822,-4.1202,-4.1923,-4.1923,-4.188,-4.2078,-4.2326,-4.2732,-4.3532,-4.4272,-4.5059,-4.58,-4.6247,-4.6518,-4.6542,-4.6613,-4.6613,-4.659,-4.6566,-4.659,-4.7168,-4.7968,-4.868,-4.9442,-5.0231,-5.046,-5.0418,-5.0509,-5.0564,-5.0721,-5.0946,-5.1158,-5.1402,-5.1653,-5.1904,-5.2267,-5.2821,-5.3098,-5.3761,-5.4701,-5.545,-5.6128,-5.7073,-5.7996,-5.8807,-5.9595,-6.0397,-6.1445,-6.2202,-6.2937,-6.3692,-6.4799,-6.597,-6.7005,-6.7444,-6.731,-6.7133,-6.6843,-6.6016,-6.5322,-6.5374,-6.6402,-6.7328,-6.8544,-7.0704,-7.2606,-7.4086,-7.5582,-7.6643,-7.77,-7.8144,-7.8336,-7.8193,-7.7887,-7.7604,-7.7065,-7.6925,-7.7018,-7.6982,-7.6787,-7.6831,-7.6971,-7.7035,-7.709,-7.717,-7.7337,-7.7421,-7.7099,-7.6828,-7.6553,-7.6275,-7.6041,-7.5757,-7.5373,-7.5082,-7.487,-7.4672,-7.4523,-7.4372,-7.4221,-7.4221,-7.4221,-7.4221,-7.4221,-7.4221,-3.0678,-3.2212,-3.3137,-3.345,-3.3556,-3.4773,-3.5729,-3.6289,-3.6951,-3.8115,-3.9782,-4.1075,-4.1815,-4.1958,-4.1951,-4.2391,-4.2995,-4.3248,-4.4005,-4.5126,-4.5632,-4.607,-4.6389,-4.6684,-4.6708,-4.6613,-4.6637,-4.6661,-4.6637,-4.6661,-4.7098,-4.7558,-4.8112,-4.8695,-4.9863,-5.0336,-5.0515,-5.055,-5.0472,-5.0619,-5.0849,-5.0944,-5.1038,-5.1469,-5.1716,-5.197,-5.2306,-5.2593,-5.3277,-5.4096,-5.4953,-5.5725,-5.6692,-5.7661,-5.8529,-5.9374,-5.9693,-6.0715,-6.222,-6.3186,-6.4056,-6.4933,-6.5956,-6.7063,-6.7844,-6.8015,-6.7877,-6.7546,-6.6989,-6.6581,-6.6986,-6.7748,-6.8638,-7.0218,-7.2398,-7.3958,-7.5416,-7.6453,-7.7479,-7.8162,-7.842,-7.8613,-7.8546,-7.8404,-7.8326,-7.8029,-7.7707,-7.7696,-7.7883,-7.8128,-7.8179,-7.8004,-7.8075,-7.8048,-7.8034,-7.8077,-7.8031,-7.7641,-7.7323,-7.7065,-7.6748,-7.6473,-7.6148,-7.5805,-7.5518,-7.5277,-7.5018,-7.4771,-7.4573,-7.4322,-7.4221,-7.4221,-7.4221,-7.4221,-7.4221,-3.1307,-3.243,-3.3779,-3.4593,-3.5031,-3.5802,-3.6209,-3.6545,-3.8138,-3.937,-4.0012,-4.1286,-4.1931,-4.2072,-4.2554,-4.2973,-4.3436,-4.4609,-4.5404,-4.5749,-4.6284,-4.6676,-4.6962,-4.6939,-4.6916,-4.687,-4.6883,-4.6883,-4.6847,-4.6824,-4.6954,-4.7287,-4.7701,-4.836,-4.8902,-4.9223,-4.9214,-4.9249,-4.9223,-4.9328,-4.969,-4.9811,-5.015,-5.0887,-5.1227,-5.1598,-5.2078,-5.2374,-5.2944,-5.3727,-5.4642,-5.5629,-5.6539,-5.7483,-5.823,-5.8835,-5.9161,-6.0351,-6.1855,-6.3014,-6.3773,-6.4678,-6.5886,-6.6917,-6.7321,-6.7906,-6.8073,-6.8161,-6.7884,-6.7744,-6.8419,-6.9244,-7.0353,-7.2266,-7.4127,-7.5276,-7.6464,-7.7177,-7.7966,-7.8364,-7.8682,-7.8414,-7.8228,-7.8618,-7.8673,-7.9044,-7.8826,-7.8777,-7.8927,-7.939,-7.9594,-7.9206,-7.9068,-7.9019,-7.8958,-7.8788,-7.8581,-7.8244,-7.7945,-7.7685,-7.7377,-7.7157,-7.6851,-7.6597,-7.6203,-7.5723,-7.5422,-7.5115,-7.4722,-7.4506,-7.4423,-7.4272,-7.4221,-7.4221,-7.4221,-3.1872,-3.2524,-3.4129,-3.5206,-3.584,-3.6435,-3.6902,-3.7711,-3.9547,-4.0545,-4.1166,-4.223,-4.2915,-4.3173,-4.3487,-4.4078,-4.4378,-4.5235,-4.6114,-4.6442,-4.6922,-4.7151,-4.7187,-4.7209,-4.7165,-4.7098,-4.7111,-4.7133,-4.7075,-4.7088,-4.7079,-4.713,-4.7381,-4.763,-4.8038,-4.8363,-4.8739,-4.8818,-4.8828,-4.8886,-4.9018,-4.9153,-4.9586,-5.0365,-5.0904,-5.1299,-5.1993,-5.2493,-5.2867,-5.3636,-5.4509,-5.5515,-5.6286,-5.7132,-5.7884,-5.8303,-5.9071,-6.0172,-6.1417,-6.2387,-6.3111,-6.3788,-6.563,-6.6629,-6.703,-6.7894,-6.8382,-6.8527,-6.8575,-6.8981,-6.9522,-7.0444,-7.2131,-7.4043,-7.5304,-7.6391,-7.7115,-7.7866,-7.8266,-7.8663,-7.8629,-7.8267,-7.8056,-7.8591,-7.8991,-7.949,-7.9982,-7.9932,-7.9865,-8.0187,-8.0433,-8.0056,-7.9747,-7.9594,-7.9436,-7.9271,-7.9069,-7.8823,-7.8679,-7.8524,-7.8441,-7.8266,-7.7861,-7.742,-7.6919,-7.6402,-7.5852,-7.547,-7.5131,-7.487,-7.4722,-7.4523,-7.4272,-7.4221,-7.4221,-3.2354,-3.2562,-3.4109,-3.5233,-3.593,-3.6845,-3.8169,-3.9879,-4.058,-4.1631,-4.2866,-4.3568,-4.4209,-4.4829,-4.4988,-4.5384,-4.5903,-4.6226,-4.6701,-4.7097,-4.7356,-4.7385,-4.7363,-4.7341,-4.732,-4.7298,-4.7298,-4.7254,-4.7298,-4.7201,-4.7111,-4.702,-4.7036,-4.7133,-4.7429,-4.7889,-4.8282,-4.8181,-4.8191,-4.8247,-4.83,-4.86,-4.915,-4.9865,-5.0521,-5.1166,-5.1811,-5.244,-5.2694,-5.3251,-5.3961,-5.4766,-5.5631,-5.655,-5.7368,-5.823,-5.9057,-5.995,-6.0822,-6.1717,-6.2563,-6.3465,-6.533,-6.6223,-6.7005,-6.7888,-6.8735,-6.914,-6.9372,-6.985,-7.0401,-7.1933,-7.349,-7.496,-7.6281,-7.7092,-7.7742,-7.8266,-7.8641,-7.8812,-7.8682,-7.8396,-7.8137,-7.8492,-7.9251,-7.957,-8.006,-8.0618,-8.0515,-8.0442,-8.0619,-8.0433,-8.0133,-8.0018,-7.9861,-7.9661,-7.9675,-7.9468,-7.9617,-7.9536,-7.9465,-7.9312,-7.8903,-7.8395,-7.7678,-7.7067,-7.6461,-7.6007,-7.558,-7.5373,-7.5033,-7.4722,-7.4473,-7.4322,-7.4322,-3.2426,-3.2572,-3.4168,-3.5629,-3.7088,-3.8888,-3.9906,-4.034,-4.2036,-4.3195,-4.3412,-4.4766,-4.5403,-4.5388,-4.5892,-4.6311,-4.6654,-4.7052,-4.7477,-4.7695,-4.7726,-4.7684,-4.7657,-4.7536,-4.7472,-4.7385,-4.7327,-4.7371,-4.7298,-4.7245,-4.7237,-4.7111,-4.6913,-4.6858,-4.6954,-4.7322,-4.7286,-4.7258,-4.734,-4.7448,-4.7439,-4.7536,-4.8235,-4.9018,-4.9898,-5.0672,-5.1529,-5.2409,-5.2733,-5.3083,-5.3959,-5.469,-5.4736,-5.6132,-5.7383,-5.8042,-5.8837,-5.9669,-6.0465,-6.1345,-6.219,-6.3197,-6.4901,-6.5854,-6.6708,-6.7718,-6.8996,-6.9495,-6.9957,-7.0382,-7.1365,-7.2919,-7.4263,-7.5482,-7.6754,-7.7627,-7.8202,-7.8541,-7.889,-7.8812,-7.8655,-7.848,-7.8219,-7.8792,-7.9438,-7.9682,-8.0065,-8.0728,-8.1021,-8.0912,-8.0767,-8.0582,-8.0575,-8.0496,-8.0235,-8.0003,-8.0167,-8.0217,-8.0435,-8.0653,-8.069,-8.0513,-7.9966,-7.9356,-7.8606,-7.7836,-7.7009,-7.6633,-7.6386,-7.5709,-7.5373,-7.5018,-7.4672,-7.4523,-7.4306,-3.2686,-3.3155,-3.4747,-3.6384,-3.8099,-4.0422,-4.128,-4.1458,-4.3252,-4.4262,-4.4885,-4.6091,-4.6671,-4.6854,-4.718,-4.7378,-4.7375,-4.768,-4.7955,-4.7975,-4.8032,-4.7911,-4.7809,-4.7804,-4.772,-4.76,-4.7542,-4.7585,-4.745,-4.7377,-4.7312,-4.7143,-4.6874,-4.6556,-4.6488,-4.6466,-4.6374,-4.6412,-4.646,-4.659,-4.6696,-4.6754,-4.7426,-4.8276,-4.9225,-5.0259,-5.1316,-5.2302,-5.282,-5.3002,-5.3839,-5.4197,-5.4537,-5.5978,-5.6971,-5.7616,-5.8217,-5.9268,-6.0223,-6.0774,-6.1716,-6.2916,-6.445,-6.5398,-6.6395,-6.7417,-6.8628,-6.9594,-7.0201,-7.0933,-7.2299,-7.3665,-7.4795,-7.5939,-7.6998,-7.8084,-7.8487,-7.8789,-7.8838,-7.876,-7.8597,-7.8415,-7.8633,-7.9202,-7.9731,-8.0047,-8.039,-8.0872,-8.1092,-8.0985,-8.0876,-8.0693,-8.0832,-8.0894,-8.0708,-8.0697,-8.0966,-8.1266,-8.1678,-8.1827,-8.1909,-8.167,-8.1203,-8.0419,-7.9565,-7.8877,-7.8222,-7.7581,-7.7159,-7.6548,-7.6015,-7.5648,-7.5213,-7.4722,-7.4439,-3.3058,-3.3928,-3.5675,-3.7242,-3.8947,-4.1241,-4.229,-4.2617,-4.4118,-4.5467,-4.6635,-4.7564,-4.8093,-4.8162,-4.8274,-4.8254,-4.8142,-4.8212,-4.8229,-4.8226,-4.8151,-4.8072,-4.8032,-4.8012,-4.7891,-4.7927,-4.7907,-4.7809,-4.772,-4.7572,-4.7385,-4.7115,-4.6484,-4.6082,-4.5837,-4.5779,-4.5842,-4.606,-4.6372,-4.6692,-4.6801,-4.7,-4.7433,-4.8304,-4.9253,-5.0226,-5.1282,-5.2171,-5.2944,-5.3066,-5.3261,-5.3718,-5.4654,-5.5677,-5.6463,-5.7138,-5.7776,-5.8927,-5.9894,-6.0433,-6.1274,-6.2581,-6.416,-6.4923,-6.5837,-6.7284,-6.8581,-6.9743,-7.0424,-7.1317,-7.2569,-7.4145,-7.5474,-7.6292,-7.7165,-7.799,-7.8506,-7.876,-7.8787,-7.8783,-7.8885,-7.874,-7.8877,-7.9448,-8.0085,-8.0442,-8.0788,-8.1196,-8.1308,-8.1201,-8.1274,-8.1091,-8.1157,-8.1361,-8.1568,-8.1591,-8.1973,-8.2312,-8.2694,-8.2963,-8.2974,-8.2742,-8.2404,-8.155,-8.0696,-8.0209,-7.9592,-7.9049,-7.837,-7.7525,-7.6965,-7.6458,-7.592,-7.5344,-7.472,-3.3124,-3.401,-3.633,-3.789,-3.9059,-4.1483,-4.2547,-4.2851,-4.5595,-4.6714,-4.7168,-4.8234,-4.8866,-4.8801,-4.8803,-4.8696,-4.855,-4.8513,-4.8513,-4.8458,-4.8363,-4.8248,-4.8209,-4.8151,-4.8072,-4.7992,-4.7972,-4.7935,-4.7761,-4.7617,-4.7274,-4.6684,-4.611,-4.5695,-4.5165,-4.5165,-4.5337,-4.5795,-4.6167,-4.6614,-4.6858,-4.687,-4.7176,-4.7806,-4.8568,-4.9619,-5.0635,-5.1615,-5.2438,-5.2999,-5.313,-5.365,-5.4384,-5.5376,-5.6147,-5.6785,-5.7542,-5.8744,-5.97,-6.0249,-6.0943,-6.2109,-6.344,-6.4297,-6.5469,-6.7167,-6.8564,-6.9725,-7.0739,-7.1632,-7.2796,-7.4434,-7.5899,-7.6557,-7.7253,-7.792,-7.8549,-7.8629,-7.8734,-7.8928,-7.9118,-7.9251,-7.935,-7.9756,-8.036,-8.0798,-8.1112,-8.1413,-8.1598,-8.1599,-8.2033,-8.1921,-8.1621,-8.1789,-8.2102,-8.2485,-8.283,-8.304,-8.328,-8.3625,-8.3929,-8.3519,-8.3003,-8.2488,-8.186,-8.1366,-8.0985,-8.0516,-7.9784,-7.8752,-7.8117,-7.764,-7.6861,-7.6164,-7.5504,-3.3785,-3.4716,-3.679,-3.864,-4.0253,-4.1952,-4.2896,-4.3725,-4.5925,-4.686,-4.6927,-4.8468,-4.9305,-4.9044,-4.901,-4.887,-4.873,-4.8732,-4.8696,-4.8642,-4.8569,-4.8457,-4.8381,-4.8267,-4.8207,-4.8092,-4.7995,-4.7882,-4.7574,-4.7328,-4.688,-4.6074,-4.5642,-4.5106,-4.4561,-4.4556,-4.4895,-4.5573,-4.5889,-4.6448,-4.6936,-4.6985,-4.703,-4.7491,-4.8229,-4.9264,-5.0299,-5.1307,-5.2218,-5.2926,-5.3167,-5.334,-5.406,-5.5095,-5.5845,-5.6544,-5.7404,-5.857,-5.948,-6.0127,-6.0674,-6.1802,-6.3053,-6.4035,-6.4965,-6.6565,-6.7952,-6.9136,-7.0369,-7.1298,-7.2648,-7.4185,-7.5378,-7.6223,-7.7291,-7.82,-7.8522,-7.8629,-7.8928,-7.9322,-7.9595,-7.9911,-8.0112,-8.064,-8.1144,-8.131,-8.1585,-8.1849,-8.1961,-8.2287,-8.2648,-8.286,-8.2668,-8.2616,-8.2965,-8.3307,-8.3646,-8.3825,-8.3825,-8.4069,-8.4231,-8.3934,-8.3561,-8.3271,-8.2974,-8.263,-8.2206,-8.1704,-8.0945,-7.987,-7.9317,-7.8875,-7.7995,-7.7114,-7.648,-3.47,-3.5806,-3.7346,-3.9393,-4.1604,-4.2488,-4.3302,-4.4268,-4.5731,-4.6297,-4.6405,-4.8282,-4.9017,-4.8958,-4.9027,-4.8949,-4.8847,-4.8853,-4.8855,-4.8804,-4.8642,-4.8569,-4.8494,-4.8363,-4.8157,-4.797,-4.7819,-4.7363,-4.687,-4.6645,-4.6219,-4.5285,-4.4663,-4.4041,-4.3907,-4.3992,-4.4441,-4.5292,-4.5936,-4.665,-4.6988,-4.7143,-4.7209,-4.7571,-4.8251,-4.9285,-5.032,-5.1313,-5.226,-5.2815,-5.3209,-5.3309,-5.3923,-5.4923,-5.5549,-5.6322,-5.7464,-5.8442,-5.9221,-5.9859,-6.0491,-6.1375,-6.2725,-6.3836,-6.4729,-6.5877,-6.7263,-6.8589,-6.9821,-7.1135,-7.2447,-7.3824,-7.4954,-7.6084,-7.7263,-7.8332,-7.8468,-7.8688,-7.9156,-7.9687,-8.0135,-8.0477,-8.0911,-8.1434,-8.1755,-8.1925,-8.213,-8.2392,-8.2686,-8.3157,-8.359,-8.3838,-8.3824,-8.3882,-8.39,-8.3956,-8.4222,-8.4212,-8.4253,-8.4467,-8.4533,-8.4272,-8.4195,-8.4344,-8.4006,-8.3471,-8.304,-8.2608,-8.1777,-8.0911,-8.0507,-7.9962,-7.8881,-7.8083,-7.765,-3.5451,-3.7501,-3.8492,-4.0013,-4.1703,-4.2616,-4.3425,-4.4365,-4.5715,-4.6271,-4.6316,-4.6955,-4.7513,-4.7311,-4.8059,-4.8279,-4.841,-4.8712,-4.903,-4.9016,-4.8787,-4.8679,-4.8569,-4.8458,-4.7959,-4.7626,-4.7313,-4.6818,-4.6232,-4.5974,-4.5589,-4.4821,-4.4618,-4.4088,-4.3596,-4.3959,-4.4776,-4.5537,-4.6223,-4.6928,-4.7409,-4.7515,-4.7363,-4.7818,-4.846,-4.945,-5.0383,-5.1412,-5.2302,-5.2952,-5.3293,-5.3339,-5.39,-5.4847,-5.5586,-5.6272,-5.7417,-5.8319,-5.9067,-5.9881,-6.0591,-6.1112,-6.2391,-6.356,-6.438,-6.5191,-6.6596,-6.8025,-6.9315,-7.0602,-7.1975,-7.3579,-7.4873,-7.6094,-7.7301,-7.8024,-7.8468,-7.8925,-7.9465,-8.0135,-8.0814,-8.1095,-8.1383,-8.187,-8.2311,-8.2504,-8.2636,-8.2935,-8.3375,-8.3918,-8.4497,-8.4634,-8.4804,-8.482,-8.4725,-8.4465,-8.4595,-8.462,-8.461,-8.461,-8.461,-8.461,-8.4569,-8.4527,-8.4403,-8.3981,-8.3621,-8.318,-8.2725,-8.1927,-8.1646,-8.105,-7.994,-7.9033,-7.8559]},{"header":{"parameterUnit":"m.s-1","parameterCategory":1,"la1":31.0,"la2":29.5877,"lo1":-88.7671,"lo2":-86.6584,"dy":0.0162,"dx":0.0185,"nx":115,"ny":88,"refTime":"2024-02-29T18:00:00:Z","depth":0,"parameterNumber":3,"parameterNumberName":"V-component_of_WINDS"},"data":[0.0,0.0,0.0,0.0,0.0,0.0,0.0,0.0,0.0,0.0,0.0,0.0,0.0,0.0,0.0,0.0,0.0,0.0,0.0,0.0,0.0,0.0,0.0,0.0,0.0,0.0,0.0,0.0,0.0,0.0,0.0,0.0,0.0,0.0,0.0,0.0,0.0,0.0,0.0,0.0,0.0,0.0,0.0,0.0,0.0,0.0,0.0,0.0,0.0,0.0,0.0,0.0,0.0,0.0,0.0,0.0,0.0,0.0,0.0,0.0,0.0,0.0,0.0,0.0,0.0,0.0,0.0,0.0,0.0,0.0,0.0,0.0,0.0,0.0,0.0,0.0,0.0,0.0,0.0,0.0,0.0,0.0,0.0,0.0,0.0,0.0,0.0,0.0,0.0,0.0,0.0,0.0,0.0,0.0,0.0,0.0,0.0,0.0,0.0,0.0,0.0,0.0,0.0,0.0,0.0,0.0,0.0,0.0,0.0,0.0,0.0,0.0,0.0,0.0,0.0,0.0,0.0,0.0,0.0,0.0,0.0,0.0,0.0,0.0,0.0,0.0,0.0,0.0,0.0,0.0,0.0,0.0,0.0,0.0,0.0,0.0,0.0,0.0,0.0,0.0,0.0,0.0,0.0,0.0,0.0,0.0,0.0,0.0,0.0,0.0,0.0,0.0,0.0,0.0,0.0,0.0,0.0,0.0,0.0,0.0,0.0,0.0,0.0,0.0,0.0,0.0,0.0,0.0,0.0,0.0,0.0,0.0,0.0,0.0,0.0,0.0,0.0,0.0,0.0,0.0,0.0,0.0,0.0,0.0,0.0,0.0,0.0,0.0,0.0,0.0,0.0,0.0,0.0,0.0,0.0,0.0,0.0,0.0,0.0,0.0,0.0,0.0,0.0,0.0,0.0,0.0,0.0,0.0,0.0,0.0,0.0,0.0,0.0,0.0,0.0,0.0,0.0,0.0,0.0,0.0,0.0,0.0,0.0,0.0,0.0,0.0,0.0,0.0,0.0,0.0,0.0,0.0,0.0,0.0,0.0,0.0,0.0,0.0,0.0,0.0,0.0,0.0,0.0,0.0,0.0,0.0,0.0,0.0,0.0,0.0,0.0,0.0,0.0,0.0,0.0,0.0,0.0,0.0,0.0,0.0,0.0,0.0,0.0,0.0,0.0,0.0,0.0,0.0,0.0,0.0,0.0,0.0,0.0,0.0,0.0,0.0,0.0,0.0,0.0,0.0,0.0,0.0,0.0,0.0,0.0,0.0,0.0,0.0,0.0,0.0,0.0,0.0,0.0,0.0,0.0,0.0,0.0,0.0,0.0,0.0,0.0,0.0,0.0,0.0,0.0,0.0,0.0,0.0,0.0,0.0,0.0,0.0,0.0,0.0,0.0,0.0,0.0,0.0,0.0,0.0,0.0,0.0,0.0,0.0,0.0,0.0,0.0,0.0,0.0,0.0,0.0,0.0,0.0,0.0,0.0,0.0,0.0,0.0,0.0,0.0,0.0,0.0,0.0,0.0,0.0,0.0,0.0,0.0,0.0,0.0,0.0,0.0,0.0,0.0,0.0,0.0,0.0,0.0,0.0,0.0,0.0,0.0,0.0,0.0,0.0,0.0,0.0,0.0,0.0,0.0,0.0,0.0,0.0,0.0,0.0,0.0,0.0,0.0,0.0,0.0,0.0,0.0,0.0,0.0,0.0,0.0,0.0,0.0,0.0,0.0,0.0,0.0,0.0,0.0,0.0,0.0,0.0,0.0,0.0,0.0,0.0,0.0,0.0,0.0,0.0,0.0,0.0,0.0,0.0,0.0,0.0,0.0,0.0,0.0,0.0,0.0,0.0,0.0,0.0,0.0,0.0,0.0,0.0,0.0,0.0,0.0,0.0,0.0,0.0,0.0,0.0,0.0,0.0,0.0,0.0,0.0,0.0,0.0,0.0,0.0,0.0,0.0,0.0,0.0,0.0,0.0,0.0,0.0,0.0,0.0,0.0,0.0,0.0,0.0,0.0,0.0,0.0,0.0,0.0,0.0,0.0,0.0,0.0,0.0,0.0,0.0,0.0,0.0,0.0,0.0,0.0,0.0,0.0,0.0,0.0,0.0,0.0,0.0,0.0,0.0,0.0,0.0,0.0,0.0,0.0,0.0,0.0,0.0,0.0,0.0,0.0,0.0,0.0,0.0,0.0,0.0,0.0,0.0,0.0,0.0,0.0,0.0,0.0,0.0,0.0,0.0,0.0,0.0,0.0,0.0,0.0,0.0,0.0,0.0,0.0,0.0,0.0,0.0,0.0,0.0,0.0,0.0,0.0,0.0,0.0,0.0,0.0,0.0,0.0,0.0,0.0,0.0,0.0,0.0,0.0,0.0,0.0,0.0,0.0,0.0,0.0,0.0,0.0,0.0,0.0,0.0,0.0,0.0,0.0,0.0,0.0,0.0,0.0,0.0,0.0,0.0,0.0,0.0,0.0,0.0,0.0,0.0,0.0,0.0,0.0,0.0,0.0,0.0,0.0,0.0,0.0,0.0,0.0,0.0,0.0,0.0,0.0,0.0,0.0,0.0,0.0,0.0,0.0,0.0,0.0,0.0,0.0,0.0,0.0,0.0,0.0,0.0,0.0,0.0,0.0,0.0,0.0,0.0,0.0,0.0,0.0,0.0,0.0,0.0,0.0,0.0,0.0,0.0,0.0,0.0,0.0,0.0,0.0,0.0,0.0,0.0,0.0,0.0,0.0,0.0,0.0,0.0,0.0,0.0,0.0,0.0,0.0,0.0,0.0,0.0,0.0,0.0,0.0,0.0,0.0,0.0,0.0,0.0,0.0,0.0,0.0,0.0,0.0,0.0,0.0,0.0,0.0,0.0,0.0,0.0,0.0,0.0,0.0,0.0,0.0,0.0,0.0,0.0,0.0,0.0,0.0,0.0,0.0,0.0,0.0,0.0,0.0,0.0,0.0,0.0,0.0,0.0,0.0,0.0,0.0,0.0,0.0,0.0,0.0,0.0,0.0,0.0,0.0,0.0,0.0,0.0,0.0,0.0,0.0,0.0,0.0,0.0,0.0,0.0,0.0,0.0,0.0,0.0,0.0,0.0,0.0,0.0,0.0,0.0,0.0,0.0,0.0,0.0,0.0,0.0,0.0,0.0,0.0,0.0,0.0,0.0,0.0,0.0,0.0,0.0,0.0,0.0,0.0,0.0,0.0,0.0,0.0,0.0,0.0,0.0,0.0,0.0,0.0,0.0,0.0,0.0,0.0,0.0,0.0,0.0,0.0,0.0,0.0,0.0,0.0,0.0,0.0,0.0,0.0,0.0,0.0,0.0,0.0,0.0,0.0,0.0,0.0,0.0,0.0,0.0,0.0,0.0,0.0,0.0,0.0,0.0,0.0,0.0,0.0,0.0,0.0,0.0,0.0,0.0,0.0,0.0,0.0,0.0,0.0,0.0,0.0,0.0,0.0,0.0,0.0,0.0,0.0,0.0,0.0,0.0,0.0,0.0,0.0,0.0,0.0,0.0,0.0,0.0,0.0,0.0,0.0,0.0,0.0,0.0,0.0,0.0,0.0,0.0,0.0,0.0,0.0,0.0,0.0,0.0,0.0,0.0,0.0,0.0,0.0,0.0,0.0,0.0,0.0,0.0,0.0,0.0,0.0,0.0,0.0,0.0,0.0,0.0,0.0,0.0,0.0,0.0,0.0,0.0,0.0,0.0,0.0,0.0,0.0,0.0,0.0,0.0,0.0,0.0,0.0,0.0,0.0,0.0,0.0,0.0,0.0,0.0,0.0,0.0,0.0,0.0,0.0,0.0,0.0,0.0,0.0,0.0,0.0,0.0,0.0,0.0,0.0,0.0,0.0,0.0,0.0,0.0,0.0,0.0,0.0,0.0,0.0,0.0,0.0,0.0,0.0,0.0,0.0,0.0,0.0,0.0,0.0,0.0,0.0,0.0,0.0,0.0,0.0,0.0,0.0,0.0,0.0,0.0,0.0,0.0,0.0,0.0,0.0,0.0,0.0,0.0,0.0,0.0,0.0,0.0,0.0,0.0,0.0,0.0,0.0,0.0,0.0,0.0,0.0,0.0,0.0,0.0,0.0,0.0,0.0,0.0,0.0,0.0,0.0,0.0,0.0,0.0,0.0,0.0,0.0,0.0,0.0,0.0,0.0,0.0,0.0,0.0,0.0,0.0,0.0,0.0,0.0,0.0,0.0,0.0,0.0,0.0,0.0,0.0,0.0,0.0,0.0,0.0,0.0,0.0,0.0,0.0,2.194,0.0,0.0,0.0,0.0,0.0,0.0,0.0,0.0,0.0,0.0,0.0,0.0,0.0,0.0,0.0,0.0,0.0,0.0,0.0,0.0,0.0,0.0,0.0,0.0,0.0,0.0,0.0,0.0,0.0,0.0,0.0,0.0,0.0,0.0,0.0,0.0,0.0,0.0,0.0,0.0,0.0,0.0,0.0,0.0,0.0,0.0,0.0,0.0,0.0,0.0,0.0,0.0,0.0,0.0,0.0,0.0,0.0,0.0,0.0,0.0,0.0,0.0,0.0,0.0,0.0,0.0,0.0,0.0,0.0,0.0,0.0,0.0,0.0,0.0,0.0,0.0,0.0,0.0,0.0,0.0,0.0,0.0,0.0,0.0,0.0,0.0,0.0,0.0,0.0,0.0,0.0,0.0,0.0,0.0,0.0,0.0,0.0,0.0,0.0,0.0,0.0,0.0,0.0,0.0,0.0,0.0,0.0,0.0,0.0,0.0,2.1708,2.1541,2.1584,2.1678,2.1723,0.0,0.0,0.0,0.0,0.0,0.0,0.0,0.0,0.0,0.0,0.0,0.0,0.0,0.0,0.0,0.0,0.0,0.0,0.0,0.0,0.0,0.0,0.0,0.0,0.0,0.0,0.0,0.0,0.0,0.0,0.0,0.0,0.0,0.0,0.0,0.0,0.0,0.0,0.0,0.0,0.0,0.0,0.0,0.0,0.0,0.0,0.0,0.0,0.0,0.0,0.0,0.0,0.0,0.0,0.0,0.0,0.0,0.0,0.0,0.0,0.0,0.0,0.0,0.0,0.0,0.0,0.0,0.0,0.0,0.0,0.0,0.0,0.0,0.0,0.0,0.0,0.0,0.0,0.0,0.0,0.0,0.0,0.0,0.0,0.0,0.0,0.0,0.0,0.0,0.0,0.0,0.0,0.0,0.0,0.0,0.0,0.0,0.0,0.0,0.0,0.0,0.0,0.0,0.0,0.0,0.0,0.0,0.0,0.0,0.0,0.0,0.0,2.1779,2.1777,2.1803,0.0,0.0,0.0,0.0,0.0,0.0,0.0,0.0,0.0,0.0,0.0,0.0,0.0,0.0,0.0,0.0,0.0,0.0,0.0,0.0,0.0,0.0,0.0,0.0,0.0,0.0,0.0,0.0,0.0,0.0,0.0,0.0,0.0,0.0,0.0,0.0,0.0,0.0,0.0,0.0,0.0,0.0,0.0,0.0,0.0,0.0,0.0,0.0,0.0,0.0,0.0,0.0,0.0,0.0,0.0,0.0,0.0,0.0,0.0,0.0,0.0,0.0,0.0,0.0,0.0,0.0,0.0,0.0,0.0,0.0,0.0,0.0,0.0,0.0,0.0,0.0,0.0,0.0,0.0,0.0,0.0,0.0,0.0,0.0,0.0,0.0,0.0,0.0,0.0,0.0,0.0,0.0,0.0,0.0,0.0,0.0,0.0,0.0,0.0,0.0,0.0,0.0,0.0,0.0,0.0,0.0,0.0,0.0,0.0,0.0,2.2387,2.2908,2.2925,0.0,2.2443,0.0,0.0,0.0,0.0,0.0,0.0,0.0,0.0,0.0,0.0,0.0,0.0,0.0,0.0,0.0,0.0,0.0,0.0,0.0,0.0,0.0,0.0,0.0,0.0,0.0,0.0,0.0,0.0,0.0,0.0,0.0,0.0,0.0,0.0,0.0,0.0,0.0,0.0,0.0,0.0,0.0,0.0,0.0,0.0,0.0,0.0,0.0,0.0,0.0,0.0,0.0,0.0,0.0,0.0,0.0,0.0,0.0,0.0,0.0,0.0,0.0,0.0,0.0,0.0,0.0,0.0,0.0,0.0,0.0,0.0,0.0,0.0,0.0,0.0,0.0,0.0,0.0,0.0,0.0,0.0,0.0,0.0,0.0,0.0,0.0,0.0,0.0,0.0,0.0,0.0,0.0,0.0,0.0,0.0,0.0,0.0,0.0,0.0,0.0,0.0,0.0,0.0,0.0,0.0,0.0,0.0,0.0,0.0,0.0,0.0,2.2275,2.2789,2.2487,2.2278,0.0,0.0,0.0,0.0,0.0,0.0,0.0,0.0,0.0,0.0,0.0,0.0,0.0,0.0,0.0,0.0,0.0,0.0,0.0,0.0,0.0,0.0,0.0,0.0,0.0,0.0,0.0,0.0,0.0,0.0,0.0,0.0,0.0,0.0,0.0,0.0,0.0,0.0,0.0,0.0,0.0,0.0,0.0,0.0,0.0,0.0,0.0,0.0,0.0,0.0,0.0,0.0,0.0,0.0,0.0,0.0,0.0,0.0,0.0,0.0,0.0,0.0,0.0,0.0,0.0,0.0,0.0,0.0,0.0,0.0,0.0,0.0,0.0,0.0,0.0,0.0,0.0,0.0,0.0,0.0,0.0,0.0,0.0,0.0,0.0,0.0,0.0,0.0,0.0,0.0,0.0,0.0,0.0,0.0,0.0,0.0,0.0,0.0,0.0,0.0,0.0,0.0,0.0,0.0,0.0,0.0,0.0,0.0,0.0,0.0,2.2229,2.2425,2.3047,2.2433,2.2072,2.2174,0.0,0.0,0.0,0.0,0.0,0.0,0.0,0.0,0.0,0.0,0.0,0.0,0.0,0.0,0.0,0.0,0.0,0.0,0.0,0.0,0.0,0.0,0.0,0.0,0.0,0.0,0.0,0.0,0.0,0.0,0.0,0.0,0.0,0.0,0.0,0.0,0.0,0.0,0.0,0.0,0.0,0.0,0.0,0.0,0.0,0.0,0.0,0.0,0.0,0.0,0.0,0.0,0.0,0.0,0.0,0.0,0.0,0.0,0.0,0.0,0.0,0.0,0.0,0.0,0.0,0.0,0.0,0.0,0.0,0.0,0.0,0.0,0.0,0.0,0.0,0.0,0.0,0.0,0.0,0.0,0.0,0.0,0.0,0.0,0.0,0.0,0.0,0.0,0.0,0.0,0.0,0.0,0.0,0.0,0.0,0.0,0.0,0.0,0.0,0.0,0.0,0.0,0.0,0.0,0.0,0.0,0.0,0.0,2.3077,2.2848,2.3229,2.4296,2.328,2.2739,0.0,0.0,0.0,0.0,0.0,0.0,0.0,0.0,0.0,0.0,0.0,0.0,0.0,0.0,0.0,0.0,0.0,0.0,0.0,0.0,0.0,0.0,0.0,0.0,0.0,0.0,0.0,0.0,0.0,0.0,0.0,0.0,0.0,0.0,0.0,0.0,0.0,0.0,0.0,0.0,0.0,0.0,0.0,0.0,0.0,0.0,0.0,0.0,0.0,0.0,0.0,0.0,0.0,0.0,0.0,0.0,0.0,0.0,0.0,0.0,0.0,0.0,0.0,0.0,0.0,0.0,0.0,0.0,0.0,0.0,0.0,0.0,0.0,0.0,0.0,0.0,0.0,0.0,0.0,0.0,0.0,0.0,0.0,0.0,0.0,0.0,0.0,0.0,0.0,0.0,0.0,0.0,0.0,0.0,0.0,0.0,0.0,0.0,0.0,0.0,0.0,0.0,0.0,0.0,0.0,0.0,0.0,0.0,0.0,2.2957,2.3313,2.3744,2.411,2.3064,2.2487,0.0,0.0,0.0,0.0,0.0,0.0,0.0,0.0,0.0,0.0,0.0,0.0,0.0,0.0,0.0,0.0,0.0,0.0,0.0,0.0,0.0,0.0,0.0,0.0,0.0,0.0,0.0,0.0,0.0,0.0,0.0,0.0,0.0,0.0,0.0,0.0,0.0,0.0,0.0,0.0,0.0,0.0,0.0,0.0,0.0,0.0,0.0,0.0,0.0,0.0,0.0,0.0,0.0,0.0,0.0,0.0,0.0,0.0,0.0,0.0,0.0,0.0,0.0,0.0,0.0,0.0,0.0,0.0,0.0,0.0,0.0,0.0,0.0,0.0,0.0,0.0,0.0,0.0,0.0,0.0,0.0,0.0,0.0,0.0,0.0,0.0,0.0,0.0,0.0,0.0,0.0,0.0,0.0,0.0,0.0,0.0,0.0,0.0,0.0,0.0,0.0,0.0,0.0,0.0,0.0,0.0,0.0,0.0,0.0,2.2481,0.0,2.3833,2.3773,2.2677,2.2095,0.0,0.0,0.0,0.0,0.0,0.0,0.0,0.0,0.0,0.0,0.0,0.0,0.0,0.0,0.0,0.0,0.0,0.0,0.0,0.0,0.0,0.0,0.0,0.0,0.0,0.0,0.0,0.0,0.0,0.0,0.0,0.0,0.0,0.0,0.0,0.0,0.0,0.0,0.0,0.0,0.0,0.0,0.0,0.0,0.0,0.0,0.0,0.0,0.0,0.0,0.0,0.0,0.0,0.0,0.0,0.0,0.0,0.0,0.0,0.0,0.0,0.0,0.0,0.0,0.0,0.0,0.0,0.0,0.0,0.0,0.0,0.0,0.0,0.0,0.0,0.0,0.0,0.0,0.0,0.0,0.0,0.0,0.0,0.0,0.0,0.0,0.0,0.0,0.0,0.0,0.0,0.0,0.0,0.0,0.0,0.0,0.0,0.0,0.0,0.0,0.0,0.0,0.0,0.0,0.0,0.0,0.0,0.0,2.1341,2.1812,2.2778,2.3274,2.3325,2.2161,2.1664,0.0,0.0,0.0,0.0,0.0,0.0,0.0,0.0,0.0,0.0,0.0,0.0,0.0,0.0,0.0,0.0,0.0,0.0,0.0,0.0,0.0,0.0,0.0,0.0,0.0,0.0,0.0,0.0,0.0,0.0,0.0,0.0,0.0,0.0,0.0,0.0,0.0,0.0,0.0,0.0,0.0,0.0,0.0,0.0,0.0,0.0,0.0,0.0,0.0,0.0,0.0,0.0,0.0,0.0,0.0,0.0,0.0,0.0,0.0,0.0,0.0,0.0,0.0,0.0,0.0,0.0,0.0,0.0,0.0,0.0,0.0,0.0,0.0,0.0,0.0,0.0,0.0,0.0,0.0,0.0,0.0,0.0,0.0,0.0,0.0,0.0,0.0,0.0,0.0,0.0,0.0,0.0,0.0,0.0,0.0,0.0,0.0,0.0,0.0,0.0,0.0,0.0,0.0,0.0,0.0,0.0,0.0,0.0,0.0,2.0994,2.1104,2.1155,2.1162,2.0706,2.0529,0.0,0.0,0.0,0.0,0.0,0.0,0.0,0.0,0.0,0.0,0.0,0.0,0.0,0.0,0.0,0.0,0.0,0.0,0.0,0.0,0.0,0.0,0.0,0.0,0.0,0.0,0.0,0.0,0.0,0.0,0.0,0.0,0.0,0.0,0.0,0.0,0.0,0.0,0.0,0.0,0.0,0.0,0.0,0.0,0.0,0.0,0.0,0.0,0.0,0.0,0.0,0.0,0.0,0.0,0.0,0.0,0.0,0.0,0.0,0.0,0.0,0.0,0.0,0.0,0.0,0.0,0.0,0.0,0.0,0.0,0.0,0.0,0.0,0.0,0.0,0.0,0.0,0.0,0.0,0.0,0.0,0.0,0.0,0.0,0.0,0.0,0.0,0.0,0.0,0.0,0.0,0.0,0.0,0.0,0.0,0.0,0.0,0.0,0.0,0.0,0.0,0.0,0.0,0.0,0.0,0.0,0.0,0.0,0.0,1.8418,1.8816,1.9083,1.9182,1.9151,1.9253,1.9595,0.0,0.0,0.0,0.0,0.0,0.0,0.0,0.0,0.0,0.0,0.0,0.0,0.0,0.0,0.0,0.0,0.0,0.0,0.0,0.0,0.0,0.0,0.0,0.0,0.0,0.0,0.0,0.0,0.0,0.0,0.0,0.0,0.0,0.0,0.0,0.0,0.0,0.0,0.0,0.0,0.0,0.0,0.0,0.0,0.0,0.0,0.0,0.0,0.0,0.0,0.0,0.0,0.0,0.0,0.0,0.0,0.0,0.0,0.0,0.0,0.0,0.0,0.0,0.0,0.0,0.0,0.0,0.0,0.0,0.0,0.0,0.0,0.0,0.0,0.0,0.0,0.0,0.0,0.0,0.0,0.0,0.0,0.0,0.0,0.0,0.0,0.0,0.0,0.0,0.0,0.0,0.0,0.0,0.0,0.0,0.0,0.0,0.0,0.0,0.0,0.0,0.0,0.0,0.0,0.0,0.0,0.0,0.0,1.4502,1.6043,1.6952,1.7255,1.7505,1.7918,0.0,0.0,0.0,0.0,0.0,0.0,0.0,0.0,0.0,0.0,0.0,0.0,0.0,0.0,0.0,0.0,0.0,0.0,0.0,0.0,0.0,0.0,0.0,0.0,0.0,0.0,0.0,0.0,0.0,0.0,0.0,0.0,0.0,0.0,0.0,0.0,0.0,0.0,0.0,0.0,0.0,0.0,0.0,0.0,0.0,0.0,0.0,0.0,0.0,0.0,0.0,0.0,0.0,0.0,0.0,0.0,0.0,0.0,0.0,0.0,0.0,0.0,0.0,0.0,0.0,0.0,0.0,0.0,0.0,0.0,0.0,0.0,0.0,0.0,0.0,0.0,0.0,0.0,0.0,0.0,0.0,0.0,0.0,0.0,0.0,0.0,0.0,0.0,0.0,0.0,0.0,0.0,0.0,0.0,0.0,0.0,0.0,0.0,0.0,0.0,0.0,0.0,0.0,0.0,0.0,0.0,0.0,0.0,0.0,1.3052,1.2647,1.3097,1.4442,1.5325,1.6211,0.0,0.0,0.0,0.0,0.0,0.0,0.0,0.0,0.0,0.0,0.0,0.0,0.0,0.0,0.0,0.0,0.0,0.0,0.0,0.0,0.0,0.0,0.0,0.0,0.0,0.0,0.0,0.0,0.0,0.0,0.0,0.0,0.0,0.0,0.0,0.0,0.0,0.0,0.0,0.0,0.0,0.0,0.0,0.0,0.0,0.0,0.0,0.0,0.0,0.0,0.0,0.0,0.0,0.0,0.0,0.0,0.0,0.0,0.0,0.0,0.0,0.0,0.0,0.0,0.0,0.0,0.0,0.0,0.0,0.0,0.0,0.0,0.0,0.0,0.0,0.0,0.0,0.0,0.0,0.0,0.0,0.0,0.0,0.0,0.0,0.0,0.0,0.0,0.0,0.0,0.0,0.0,0.0,0.0,0.0,0.0,0.0,0.0,0.0,0.0,0.0,0.0,0.0,0.0,0.0,0.0,0.0,0.0,1.3723,1.1955,1.0915,1.0846,1.183,1.3477,1.4955,0.0,0.0,0.0,0.0,0.0,0.0,0.0,0.0,0.0,0.0,0.0,0.0,0.0,0.0,0.0,0.0,0.0,0.0,0.0,0.0,0.0,0.0,0.0,0.0,0.0,0.0,0.0,0.0,0.0,0.0,0.0,0.0,0.0,0.0,0.0,0.0,0.0,0.0,0.0,0.0,0.0,0.0,0.0,0.0,0.0,0.0,0.0,0.0,0.0,0.0,0.0,0.0,0.0,0.0,0.0,0.0,0.0,0.0,0.0,0.0,0.0,0.0,0.0,0.0,0.0,0.0,0.0,0.0,0.0,0.0,0.0,0.0,0.0,0.0,0.0,0.0,0.0,0.0,0.0,0.0,0.0,0.0,0.0,0.0,0.0,0.0,0.0,0.0,0.0,0.0,0.0,0.0,0.0,0.0,0.0,0.0,0.0,0.0,0.0,0.0,0.0,0.0,0.0,0.0,0.0,0.0,0.0,0.0,1.2932,1.1291,1.0293,0.9779,0.9772,1.2013,1.3973,0.0,0.0,0.0,0.0,0.0,0.0,0.0,0.0,0.0,0.0,0.0,0.0,0.0,0.0,0.0,0.0,0.0,0.0,0.0,0.0,0.0,0.0,0.0,0.0,0.0,0.0,0.0,0.0,0.0,0.0,0.0,0.0,0.0,0.0,0.0,0.0,0.0,0.0,0.0,0.0,0.0,0.0,0.0,0.0,0.0,0.0,0.0,0.0,0.0,0.0,0.0,0.0,0.0,0.0,0.0,0.0,0.0,0.0,0.0,0.0,0.0,0.0,0.0,0.0,0.0,0.0,0.0,0.0,0.0,0.0,0.0,0.0,0.0,0.0,0.0,0.0,0.0,0.0,0.0,0.0,0.0,0.0,0.0,0.0,0.0,0.0,0.0,0.0,0.0,0.0,0.0,0.0,0.0,0.0,0.0,0.0,0.0,0.0,0.0,0.0,0.0,0.0,0.0,0.0,0.0,0.0,0.0,0.0,1.2691,1.0942,1.0042,0.9657,0.9884,1.1677,1.3209,0.0,0.0,0.0,0.0,0.0,0.0,0.0,0.0,0.0,0.0,0.0,0.0,0.0,0.0,0.0,0.0,0.0,0.0,0.0,0.0,0.0,0.0,0.0,0.0,0.0,0.0,0.0,0.0,0.0,0.0,0.0,0.0,0.0,0.0,0.0,0.0,0.0,0.0,0.0,0.0,0.0,0.0,0.0,0.0,0.0,0.0,0.0,0.0,1.856,0.0,0.0,0.0,0.0,0.0,0.0,0.0,0.0,0.0,0.0,0.0,0.0,0.0,0.0,0.0,0.0,0.0,0.0,0.0,0.0,0.0,0.0,0.0,0.0,0.0,0.0,0.0,0.0,0.0,0.0,0.0,0.0,0.0,0.0,0.0,0.0,0.0,0.0,0.0,0.0,0.0,0.0,0.0,0.0,0.0,0.0,0.0,0.0,0.0,0.0,0.0,0.0,0.0,0.0,0.0,0.0,0.0,0.0,0.0,1.2532,1.0826,1.0047,0.9697,0.9812,1.1321,1.2715,0.0,0.0,0.0,0.0,0.0,0.0,0.0,0.0,0.0,0.0,0.0,0.0,0.0,0.0,0.0,0.0,0.0,0.0,0.0,0.0,0.0,0.0,0.0,0.0,0.0,0.0,0.0,0.0,0.0,0.0,0.0,0.0,0.0,0.0,0.0,0.0,0.0,0.0,0.0,0.0,0.0,0.0,0.0,0.0,0.0,0.0,0.0,0.0,0.0,0.0,0.0,0.0,0.0,0.0,0.0,0.0,0.0,0.0,0.0,0.0,0.0,0.0,0.0,0.0,0.0,0.0,0.0,0.0,0.0,0.0,0.0,0.0,0.0,0.0,0.0,0.0,0.0,0.0,0.0,0.0,0.0,0.0,0.0,0.0,0.0,0.0,0.0,0.0,0.0,0.0,0.0,0.0,0.0,0.0,0.0,0.0,0.0,0.0,0.0,0.0,0.0,0.0,0.0,0.0,0.0,0.0,0.0,1.3744,1.2247,1.0762,1.0103,0.9742,0.9617,1.0918,1.2202,1.3433,0.0,0.0,0.0,0.0,0.0,0.0,0.0,0.0,0.0,0.0,0.0,0.0,0.0,0.0,0.0,0.0,0.0,0.0,0.0,0.0,0.0,0.0,0.0,0.0,0.0,0.0,0.0,0.0,0.0,0.0,0.0,0.0,0.0,0.0,0.0,0.0,0.0,0.0,1.8186,1.8956,0.0,0.0,0.0,0.0,0.0,0.0,0.0,0.0,2.0182,0.0,0.0,0.0,0.0,0.0,0.0,0.0,0.0,0.0,0.0,0.0,0.0,0.0,0.0,0.0,0.0,0.0,0.0,0.0,0.0,0.0,0.0,0.0,0.0,0.0,0.0,0.0,0.0,0.0,0.0,0.0,0.0,0.0,0.0,0.0,0.0,0.0,0.0,0.0,0.0,0.0,0.0,0.0,0.0,0.0,0.0,0.0,0.0,0.0,0.0,0.0,0.0,0.0,0.0,0.0,0.0,1.482,1.3028,1.166,1.0726,0.9861,0.9432,0.9535,1.0398,1.1186,1.1941,0.0,0.0,0.0,0.0,0.0,0.0,0.0,0.0,0.0,0.0,0.0,0.0,0.0,0.0,0.0,0.0,0.0,0.0,0.0,0.0,0.0,0.0,0.0,0.0,0.0,0.0,0.0,0.0,0.0,0.0,0.0,0.0,0.0,0.0,0.0,0.0,0.0,0.0,0.0,2.0135,2.0631,0.0,0.0,0.0,0.0,0.0,0.0,0.0,0.0,2.0548,0.0,0.0,0.0,0.0,0.0,0.0,0.0,0.0,0.0,0.0,0.0,0.0,0.0,0.0,0.0,0.0,0.0,0.0,0.0,0.0,0.0,0.0,0.0,0.0,0.0,0.0,0.0,0.0,0.0,0.0,0.0,0.0,0.0,0.0,0.0,0.0,0.0,0.0,0.0,0.0,0.0,0.0,0.0,0.0,0.0,0.0,0.0,0.0,0.0,0.0,0.0,0.0,0.0,0.0,0.0,1.4509,1.2812,1.1423,1.0428,0.9657,0.934,0.9405,1.0066,1.0899,0.0,0.0,0.0,0.0,0.0,0.0,0.0,0.0,0.0,0.0,0.0,0.0,0.0,0.0,0.0,0.0,0.0,0.0,0.0,0.0,0.0,0.0,0.0,0.0,0.0,0.0,0.0,0.0,0.0,0.0,0.0,0.0,0.0,0.0,0.0,0.0,0.0,0.0,0.0,0.0,2.1114,2.1397,2.1526,0.0,0.0,0.0,0.0,0.0,0.0,2.159,2.1717,0.0,0.0,0.0,0.0,0.0,0.0,0.0,0.0,0.0,0.0,0.0,0.0,0.0,0.0,0.0,0.0,0.0,0.0,0.0,0.0,0.0,0.0,0.0,0.0,0.0,0.0,0.0,0.0,0.0,0.0,0.0,0.0,0.0,0.0,0.0,0.0,0.0,0.0,0.0,0.0,0.0,0.0,0.0,0.0,0.0,0.0,0.0,0.0,0.0,0.0,0.0,0.0,0.0,0.0,0.0,1.3824,1.2373,1.1062,0.9941,0.9399,0.9102,0.9125,0.9746,1.0699,0.0,0.0,0.0,0.0,0.0,0.0,0.0,0.0,0.0,0.0,0.0,0.0,0.0,0.0,0.0,0.0,0.0,0.0,0.0,0.0,0.0,0.0,0.0,0.0,0.0,0.0,0.0,0.0,0.0,0.0,0.0,0.0,0.0,0.0,0.0,0.0,0.0,0.0,0.0,0.0,0.0,2.2107,2.2506,2.2883,0.0,0.0,0.0,0.0,2.2973,2.2901,0.0,0.0,0.0,0.0,0.0,0.0,0.0,0.0,0.0,0.0,0.0,0.0,0.0,0.0,0.0,0.0,0.0,0.0,0.0,0.0,0.0,0.0,0.0,0.0,0.0,0.0,0.0,0.0,0.0,0.0,0.0,0.0,0.0,0.0,0.0,0.0,0.0,0.0,0.0,0.0,0.0,0.0,0.0,0.0,0.0,0.0,0.0,0.0,0.0,0.0,0.0,0.0,0.0,0.0,0.0,0.0,1.241,1.1058,0.9981,0.9168,0.8728,0.8486,0.8437,0.9238,1.0216,0.0,0.0,0.0,0.0,0.0,0.0,0.0,0.0,0.0,0.0,0.0,0.0,0.0,0.0,0.0,0.0,0.0,0.0,0.0,0.0,0.0,0.0,0.0,0.0,0.0,0.0,0.0,0.0,0.0,0.0,0.0,0.0,0.0,0.0,0.0,0.0,0.0,0.0,0.0,0.0,0.0,2.2883,2.2682,2.3302,2.3705,0.0,0.0,2.4202,2.422,2.4045,0.0,0.0,0.0,0.0,0.0,0.0,0.0,0.0,0.0,0.0,0.0,0.0,0.0,0.0,0.0,0.0,0.0,0.0,0.0,0.0,0.0,0.0,0.0,0.0,0.0,0.0,0.0,0.0,0.0,0.0,0.0,0.0,0.0,0.0,0.0,0.0,0.0,0.0,0.0,0.0,0.0,0.0,0.0,0.0,0.0,0.0,0.0,0.0,0.0,0.0,0.0,0.0,0.0,0.0,0.0,1.4045,1.1709,1.0341,0.9243,0.8352,0.7926,0.7748,0.7796,0.8448,0.9621,0.0,0.0,0.0,0.0,0.0,0.0,0.0,0.0,0.0,0.0,0.0,0.0,0.0,0.0,0.0,0.0,0.0,0.0,0.0,0.0,0.0,0.0,0.0,0.0,0.0,0.0,0.0,0.0,0.0,0.0,0.0,0.0,0.0,0.0,0.0,0.0,0.0,0.0,0.0,0.0,0.0,0.0,2.3708,2.419,0.0,0.0,0.0,2.5644,2.5644,0.0,0.0,0.0,0.0,0.0,0.0,0.0,0.0,0.0,0.0,0.0,0.0,0.0,0.0,0.0,0.0,0.0,0.0,0.0,0.0,0.0,0.0,0.0,0.0,0.0,0.0,0.0,0.0,0.0,0.0,0.0,0.0,0.0,0.0,0.0,0.0,0.0,0.0,0.0,0.0,0.0,0.0,0.0,0.0,0.0,0.0,0.0,0.0,0.0,0.0,0.0,0.0,0.0,0.0,0.0,0.0,0.0,1.0962,0.9593,0.8427,0.7375,0.7074,0.6966,0.7068,0.7706,0.0,0.0,0.0,0.0,0.0,0.0,0.0,0.0,0.0,0.0,0.0,0.0,0.0,0.0,0.0,0.0,0.0,0.0,0.0,0.0,0.0,0.0,0.0,0.0,0.0,0.0,0.0,1.6489,0.0,0.0,0.0,0.0,0.0,0.0,0.0,0.0,0.0,0.0,0.0,0.0,0.0,0.0,2.429,2.4703,2.5127,2.5569,0.0,0.0,2.692,2.692,2.6591,2.6252,0.0,0.0,0.0,0.0,0.0,0.0,0.0,0.0,0.0,0.0,0.0,0.0,0.0,0.0,0.0,0.0,0.0,0.0,0.0,0.0,0.0,0.0,0.0,0.0,0.0,0.0,0.0,0.0,0.0,0.0,0.0,0.0,0.0,0.0,0.0,0.0,0.0,0.0,0.0,0.0,0.0,0.0,0.0,0.0,0.0,0.0,0.0,0.0,0.0,0.0,0.0,0.0,0.0,0.0,1.2314,0.9969,0.858,0.733,0.6191,0.6156,0.6144,0.61,0.7121,0.8432,0.0,0.0,0.0,0.0,0.0,0.0,0.0,0.0,0.0,0.0,0.0,0.0,0.0,0.0,0.0,0.0,0.0,0.0,0.0,0.0,0.0,0.0,0.0,0.0,0.0,0.0,0.0,0.0,0.0,0.0,0.0,0.0,0.0,0.0,0.0,0.0,0.0,0.0,0.0,0.0,0.0,2.5231,2.5484,2.5947,2.6464,0.0,2.7369,2.7777,2.7835,2.7656,2.7305,2.6695,0.0,0.0,0.0,0.0,0.0,0.0,0.0,0.0,0.0,0.0,0.0,0.0,0.0,0.0,0.0,0.0,0.0,0.0,0.0,0.0,0.0,0.0,0.0,0.0,0.0,0.0,0.0,0.0,0.0,0.0,0.0,0.0,0.0,0.0,0.0,0.0,0.0,0.0,0.0,0.0,0.0,0.0,0.0,0.0,0.0,0.0,0.0,0.0,0.0,0.0,0.0,0.0,0.0,1.1997,0.9326,0.7797,0.6535,0.561,0.5469,0.5529,0.574,0.6681,0.7923,0.0,0.0,0.0,0.0,0.0,0.0,0.0,0.0,0.0,0.0,0.0,0.0,0.0,0.0,0.0,0.0,0.0,0.0,0.0,0.0,0.0,0.0,0.0,0.0,0.0,0.0,0.0,0.0,1.7376,1.783,1.8724,0.0,0.0,0.0,0.0,0.0,0.0,0.0,0.0,0.0,0.0,2.5703,2.6338,2.6795,0.0,0.0,2.8382,2.8643,2.8643,2.8126,2.7679,2.754,2.6584,0.0,0.0,0.0,0.0,0.0,0.0,0.0,0.0,0.0,0.0,0.0,0.0,0.0,0.0,0.0,0.0,0.0,0.0,0.0,0.0,0.0,0.0,0.0,0.0,0.0,0.0,0.0,0.0,0.0,0.0,0.0,0.0,0.0,0.0,0.0,0.0,0.0,0.0,0.0,0.0,0.0,0.0,0.0,0.0,0.0,0.0,0.0,0.0,0.0,0.0,0.0,0.0,1.1723,0.8871,0.7217,0.5935,0.502,0.5074,0.531,0.5711,0.6629,0.7822,0.0,0.0,0.0,0.0,0.0,0.0,0.0,0.0,0.0,0.0,0.0,0.0,0.0,0.0,0.0,0.0,0.0,0.0,0.0,0.0,0.0,0.0,0.0,0.0,0.0,0.0,0.0,0.0,1.755,1.814,1.9626,0.0,0.0,0.0,0.0,0.0,0.0,0.0,0.0,0.0,0.0,2.6089,2.6672,2.7115,2.7696,2.8414,2.8809,2.8972,2.8911,2.8487,2.8106,2.8012,0.0,0.0,0.0,0.0,0.0,0.0,0.0,0.0,0.0,0.0,0.0,0.0,0.0,0.0,0.0,0.0,0.0,0.0,0.0,0.0,0.0,0.0,0.0,0.0,0.0,0.0,0.0,0.0,0.0,0.0,1.9255,0.0,0.0,0.0,0.0,0.0,0.0,0.0,0.0,0.0,0.0,0.0,0.0,0.0,0.0,0.0,0.0,0.0,0.0,0.0,0.0,0.0,0.0,1.1399,0.8454,0.6939,0.5548,0.4426,0.5026,0.5603,0.6015,0.7033,0.8208,0.9583,0.0,0.0,0.0,0.0,0.0,0.0,0.0,0.0,0.0,0.0,0.0,0.0,0.0,0.0,0.0,0.0,0.0,0.0,0.0,0.0,0.0,0.0,0.0,0.0,0.0,0.0,1.7818,1.8197,1.8969,0.0,0.0,0.0,0.0,0.0,0.0,0.0,0.0,0.0,0.0,2.5789,2.6261,2.6498,2.6893,2.7408,2.8146,2.842,2.8605,2.8544,2.8646,2.8594,0.0,0.0,0.0,0.0,0.0,0.0,0.0,0.0,0.0,0.0,0.0,0.0,0.0,0.0,0.0,0.0,0.0,0.0,0.0,0.0,0.0,0.0,0.0,0.0,0.0,0.0,0.0,1.6829,1.6854,0.0,0.0,0.0,0.0,0.0,0.0,0.0,0.0,0.0,0.0,0.0,1.5758,1.5755,0.0,0.0,0.0,0.0,0.0,0.0,0.0,0.0,0.0,0.0,0.0,0.0,1.1642,0.9056,0.7273,0.6047,0.5401,0.5867,0.6515,0.7328,0.815,0.9471,1.1336,0.0,0.0,0.0,0.0,0.0,0.0,0.0,0.0,0.0,0.0,0.0,0.0,0.0,0.0,0.0,0.0,0.0,0.0,0.0,0.0,0.0,0.0,0.0,0.0,0.0,1.8822,0.0,0.0,0.0,0.0,0.0,0.0,0.0,0.0,0.0,0.0,0.0,2.4699,2.5263,2.5949,2.6525,2.6854,2.7224,2.7621,0.0,0.0,0.0,0.0,0.0,0.0,0.0,0.0,0.0,0.0,0.0,0.0,0.0,0.0,2.8125,2.7063,2.7363,2.7693,2.7218,0.0,0.0,0.0,0.0,0.0,0.0,0.0,0.0,0.0,0.0,0.0,0.0,0.0,0.0,1.6045,0.0,1.6439,0.0,0.0,0.0,0.0,0.0,0.0,0.0,0.0,1.4125,1.3699,1.3389,1.341,1.3761,0.0,1.4436,1.5289,0.0,0.0,0.0,0.0,0.0,0.0,0.0,0.0,1.1678,0.9351,0.7767,0.6772,0.648,0.6971,0.782,0.8965,1.0027,1.1305,1.2841,1.3611,1.4346,0.0,0.0,0.0,0.0,0.0,0.0,0.0,0.0,0.0,0.0,0.0,0.0,0.0,0.0,0.0,0.0,0.0,0.0,0.0,0.0,0.0,0.0,0.0,1.9844,0.0,0.0,0.0,0.0,0.0,0.0,0.0,0.0,0.0,2.3669,2.4156,2.4631,2.506,2.5904,2.6571,2.6748,0.0,0.0,0.0,0.0,0.0,0.0,0.0,2.8829,2.9379,2.9527,2.9792,3.0346,3.0352,3.0335,3.0335,0.0,0.0,2.8703,2.9072,2.9429,2.8804,2.9067,2.9194,2.8726,2.855,2.8373,0.0,0.0,0.0,0.0,0.0,0.0,0.0,0.0,1.594,1.5594,0.0,1.5492,0.0,0.0,0.0,0.0,0.0,1.5792,0.0,0.0,1.3085,1.2626,1.1663,1.2096,1.2264,1.2157,1.2175,1.221,1.2429,1.5595,0.0,0.0,0.0,0.0,0.0,0.0,1.152,0.9396,0.8373,0.7769,0.7612,0.8305,0.942,1.099,1.2544,1.3568,1.4051,1.4241,1.4528,1.5138,1.5633,0.0,0.0,0.0,0.0,0.0,0.0,0.0,0.0,0.0,0.0,0.0,0.0,0.0,0.0,0.0,0.0,0.0,0.0,0.0,0.0,2.1213,0.0,0.0,0.0,0.0,0.0,0.0,0.0,0.0,0.0,0.0,2.3756,2.422,2.4558,2.455,0.0,0.0,0.0,0.0,2.8,2.8657,2.8734,2.8819,2.9188,2.9683,2.9941,2.9681,0.0,0.0,3.1703,3.1766,3.1766,3.1766,3.1766,3.138,3.0043,3.0504,3.0803,3.02,3.0334,3.0532,3.0259,2.9948,2.9636,1.8409,0.0,0.0,0.0,0.0,1.663,1.6158,1.586,1.5394,1.4861,1.4279,1.4624,0.0,0.0,0.0,0.0,0.0,0.0,1.2942,1.2298,1.1523,1.1168,1.1151,1.0914,1.0934,1.1102,1.1047,1.1142,1.1451,1.2652,1.3843,1.5023,0.0,0.0,0.0,0.0,1.1785,1.009,0.9573,0.9287,0.913,1.0129,1.1574,1.3413,1.4435,1.5167,1.5685,1.5732,1.5918,1.6206,1.6597,0.0,0.0,0.0,0.0,0.0,0.0,0.0,0.0,0.0,0.0,0.0,0.0,0.0,0.0,0.0,0.0,0.0,0.0,0.0,2.2049,2.1799,2.184,0.0,0.0,0.0,0.0,0.0,0.0,0.0,0.0,0.0,2.4978,2.5109,2.5313,0.0,0.0,2.6572,2.6757,2.7467,2.816,2.8565,2.8888,0.0,2.953,2.9664,2.9984,3.0425,3.1381,3.2241,3.2648,3.2918,3.3053,3.3035,3.3035,3.2802,3.2265,3.1995,3.1854,3.1515,3.1486,3.1498,3.1187,3.1055,3.0875,1.7385,1.6909,1.7349,1.7294,1.6851,1.614,1.5594,1.5165,1.4758,1.4126,1.3409,1.3538,1.3429,1.316,1.34,0.0,0.0,0.0,1.1797,1.1543,1.0822,1.0535,1.0566,1.0408,1.0415,1.062,1.0427,1.0503,1.0777,1.1127,1.1817,1.2777,0.0,0.0,1.3592,1.2963,1.2026,1.0862,1.0728,1.0727,1.0863,1.2304,1.3752,1.5222,1.5875,1.6429,1.685,1.6747,1.6885,1.7235,1.7281,1.7516,0.0,0.0,0.0,0.0,0.0,0.0,0.0,0.0,0.0,0.0,0.0,2.3257,2.314,0.0,0.0,0.0,2.3685,2.3594,2.2966,2.2937,0.0,0.0,0.0,0.0,0.0,0.0,0.0,2.5542,2.5796,2.6082,2.629,2.6398,2.6269,2.5831,2.6571,2.7146,2.7208,0.0,2.8608,2.8941,2.9329,2.9695,2.9981,3.0167,3.0546,3.1337,3.2015,3.2641,3.3,3.3162,3.3269,3.341,3.341,3.3357,3.3145,3.2751,3.2489,3.2431,3.2582,3.2644,3.2453,3.2453,3.2314,1.6432,1.6153,1.6649,1.6683,1.6331,1.5546,1.4683,1.3804,1.4022,1.3441,1.2349,1.2416,1.2427,1.239,1.2298,0.0,1.2041,1.1521,1.1075,1.066,1.0705,1.0466,0.9989,1.0305,1.0481,1.0449,1.0194,1.0159,1.0311,1.0682,1.09,1.1128,1.2421,1.2949,1.2765,1.2583,1.2217,1.1664,1.1802,1.2146,1.2762,1.4593,1.5849,1.6521,1.7055,1.7484,1.7764,1.7537,1.771,1.8239,1.7829,1.8046,1.9026,0.0,0.0,0.0,0.0,0.0,0.0,0.0,0.0,0.0,0.0,0.0,0.0,0.0,0.0,2.4513,2.4923,0.0,2.4316,2.4453,0.0,0.0,0.0,2.5202,2.5611,2.5872,2.6113,2.6392,0.0,0.0,2.7514,2.7792,2.7466,2.6383,2.7317,2.7911,2.7568,2.842,2.922,2.9529,2.9928,3.0282,3.0599,3.0912,3.1315,3.2021,3.2482,3.2643,3.2984,3.2895,3.2821,3.3223,3.3228,3.3228,3.3245,3.2883,3.2728,3.3051,3.3335,3.3529,3.3386,3.3368,3.3279,1.5723,1.5345,1.5187,1.5211,1.5304,1.473,1.4217,1.3789,1.3369,1.3011,1.2644,1.2233,1.1875,1.156,1.1223,1.0993,1.0883,1.0503,1.0365,1.0466,1.0064,1.0153,1.0613,1.0305,1.0213,1.0319,1.0025,1.009,1.0435,1.0356,1.0503,1.0971,1.1653,1.2099,1.2335,1.2486,1.2426,1.2232,1.3027,1.3981,1.5056,1.6136,1.7013,1.7579,1.8415,1.8973,1.9246,1.919,1.9361,1.9737,1.9424,1.9509,2.0112,2.0184,0.0,0.0,0.0,0.0,0.0,0.0,0.0,0.0,0.0,2.3372,2.3977,0.0,2.4952,0.0,2.5445,2.5468,2.5341,2.5565,0.0,0.0,2.6471,2.6697,2.6354,2.7008,2.7398,2.7193,2.7545,2.7876,2.8207,2.8517,2.8622,2.8538,2.8067,2.7725,2.789,2.8642,2.933,2.969,3.0393,3.0864,3.0928,3.1084,3.1289,3.1763,3.1921,3.2203,3.2908,3.2937,3.3027,3.3476,3.3319,3.3286,3.3486,3.3059,3.2759,3.2961,3.2567,3.203,3.203,3.2047,3.212,1.5181,1.4828,1.4582,1.4507,1.4428,1.3913,1.3582,1.3343,1.2788,1.2457,1.225,1.1425,1.086,1.0508,1.012,1.0017,1.0074,0.9931,1.0003,1.0257,1.0134,1.0269,1.0573,1.0334,1.0251,1.0325,1.0265,1.035,1.0537,1.0478,1.0665,1.1086,1.1467,1.197,1.2616,1.3028,1.3132,1.2928,1.4178,1.5348,1.6407,1.711,1.7852,1.8551,1.9042,1.9577,2.0213,2.0216,2.0401,2.0854,2.0567,2.0701,2.1359,2.135,2.1509,0.0,0.0,0.0,0.0,0.0,0.0,0.0,0.0,0.0,0.0,0.0,2.5965,2.6507,2.6583,2.66,2.6624,2.655,2.6569,2.6741,2.7087,2.7159,2.6985,2.757,2.7913,2.77,2.794,2.8385,2.8864,2.9031,2.9301,2.9783,2.9254,2.8839,2.8882,2.9384,2.9866,3.0042,3.0595,3.0943,3.0943,3.1106,3.135,3.1579,3.1618,3.1848,3.225,3.222,3.2348,3.2967,3.2962,3.2898,3.325,3.3084,3.2777,3.2686,3.2207,3.1798,3.1926,3.1993,3.2068,1.4708,1.4369,1.4359,1.4046,1.3576,1.3142,1.2912,1.2784,1.2213,1.1778,1.1423,1.0446,0.9842,0.958,0.929,0.929,0.9562,0.9677,0.9841,1.0078,1.0441,1.0486,1.0226,1.039,1.0444,1.0427,1.0622,1.0659,1.0627,1.078,1.1017,1.1272,1.1615,1.23,1.3248,1.3895,1.4143,1.4002,1.5341,1.6402,1.7268,1.7805,1.8526,1.941,1.9442,1.9921,2.0773,2.0859,2.1131,2.1702,2.1534,2.1775,2.249,2.2505,2.2699,0.0,2.3895,0.0,0.0,0.0,0.0,0.0,0.0,0.0,0.0,2.6592,2.7085,2.7979,2.7932,2.7847,2.7802,2.7514,2.7414,2.7656,2.7415,2.7281,2.7463,2.7762,2.8015,2.8039,2.8256,2.8795,2.9523,2.9523,2.9724,3.0355,3.0351,3.0233,3.0101,3.0321,3.0557,3.0572,3.0807,3.1076,3.1091,3.1286,3.152,3.152,3.1489,3.1472,3.1635,3.1406,3.145,3.2251,3.2459,3.2587,3.2953,3.2984,3.284,3.2459,3.2062,3.1905,3.2268,3.2288,3.2441,1.4196,1.3824,1.3501,1.3075,1.2636,1.2236,1.2173,1.2278,1.1535,1.0863,1.0321,1.0105,0.9855,0.958,0.9427,0.9355,0.9451,0.9674,0.9804,0.9864,1.0168,1.0288,1.029,1.0219,1.0324,1.0528,1.0224,1.0264,1.0605,1.0709,1.0827,1.1073,1.1874,1.27,1.3539,0.0,0.0,0.0,1.6789,1.7587,1.8471,1.8836,1.936,2.0087,2.0328,0.0,2.1453,2.1508,2.1774,2.2343,2.2616,0.0,0.0,0.0,0.0,0.0,0.0,0.0,0.0,0.0,0.0,0.0,2.8078,2.8158,2.7748,2.8396,2.8743,2.8627,2.8603,2.8445,2.8148,2.837,2.8232,2.7691,2.8023,2.8127,2.76,2.7731,2.8129,2.8743,2.8847,2.9254,3.0169,3.0366,3.0517,3.0885,3.0957,3.0891,3.0911,3.1055,3.1279,3.1309,3.1572,3.1911,3.1911,3.1647,3.1565,3.1467,3.112,3.1144,3.1445,3.1497,3.1699,3.2503,3.248,3.2548,3.3206,3.2905,3.2539,3.231,3.2074,3.1824,3.1936,3.1685,3.1574,1.3832,0.0,1.3412,1.3097,0.0,1.2368,1.2161,1.2007,1.1223,1.0624,1.0146,0.9828,0.964,0.948,0.9253,0.9162,0.9175,0.946,0.9728,0.9918,1.0133,1.0276,1.0361,1.0347,1.0351,1.045,1.0309,1.0429,1.0783,1.0837,1.113,1.1672,1.2569,1.3438,1.4389,1.5939,1.6916,1.7265,1.7726,1.8311,1.9001,1.9532,1.9963,2.0441,2.0763,0.0,0.0,0.0,0.0,0.0,0.0,0.0,0.0,2.4412,0.0,2.5334,2.6551,2.734,2.7616,2.8377,2.8902,2.9158,2.9726,2.9737,2.8995,2.9512,2.9814,2.96,2.9556,2.946,2.9109,2.9058,2.8814,2.8259,2.8255,2.8117,2.7866,2.7819,2.8159,2.8595,2.8791,2.9138,3.0238,3.0376,3.067,3.1152,3.1369,3.1462,3.1509,3.1415,3.1314,3.133,3.166,3.193,3.193,3.1918,3.1828,3.1828,3.1497,3.1233,3.1482,3.1316,3.1482,3.2242,3.235,3.2484,3.3249,3.3174,3.2838,3.2573,3.2267,3.1899,3.1691,3.1404,3.1242,1.3582,1.3378,1.3455,1.331,1.2929,1.273,1.2264,1.1676,0.0,0.0,0.0,0.9591,0.9332,0.9266,0.8982,0.8859,0.8883,0.9254,0.9587,0.9911,1.0171,1.0313,1.0306,1.0461,1.0454,1.0314,1.0512,1.075,1.0989,1.11,1.1621,1.2478,1.3359,1.4372,1.5487,1.724,1.8164,1.8168,1.8489,1.8875,1.9412,2.0052,2.0516,2.0828,2.1142,2.1615,2.2236,2.2495,2.2781,2.3218,2.3597,2.3917,2.424,2.5125,2.5929,2.6645,2.7972,2.8861,2.9189,2.9747,3.0177,3.0559,3.0892,3.0823,3.0138,3.0428,3.0592,3.0522,3.0472,3.0283,2.9926,2.9513,2.9154,2.8707,2.8374,2.8086,2.7969,2.797,2.8073,2.8432,2.8597,2.9048,3.0142,3.0371,3.0602,3.127,3.1587,3.1824,3.1793,3.1573,3.1453,3.1468,3.1749,3.1807,3.1757,3.1925,3.2155,3.2012,3.1699,3.1482,3.14,3.1114,3.1241,3.2134,3.2196,3.2572,3.3312,3.3444,3.3312,3.2917,3.2505,3.2174,3.1783,3.1472,3.1339,1.3564,1.3233,1.317,1.3036,1.2725,1.248,1.1843,1.1048,1.0803,1.0267,0.9522,0.9315,0.907,0.8781,0.8709,0.8619,0.8673,0.9217,0.9479,0.9509,1.0051,1.0159,0.9911,1.0203,1.0338,1.0346,1.059,1.0835,1.1034,1.1593,1.218,1.2818,1.3953,1.5292,1.6798,1.8114,1.8898,1.9079,1.9345,1.9837,2.041,2.0721,2.1237,2.1879,2.1888,2.2193,2.2843,2.2634,2.2933,2.384,2.4217,2.4645,2.5271,2.5967,2.6706,2.7474,2.8258,2.8993,2.9716,3.0429,3.1012,3.1355,3.1492,3.1302,3.0926,3.1181,3.1262,3.0926,3.0622,3.0283,2.9926,2.9585,2.9154,2.8779,2.8666,2.8335,2.7785,2.7903,2.82,2.8605,2.8931,2.9489,3.0561,3.0779,3.0922,3.13,3.1536,3.1474,3.1586,3.1936,3.2205,3.2253,3.2284,3.2316,3.2188,3.2044,3.1913,3.1851,3.1496,3.1285,3.1219,3.1076,3.1323,3.2139,3.2207,3.2541,3.3312,3.3492,3.3312,3.2901,3.2736,3.2572,3.2174,3.197,3.1802,1.3409,1.329,1.3162,1.3012,1.2847,1.248,1.1868,1.1201,1.0942,1.0447,0.9869,0.9462,0.9254,0.9131,0.8919,0.8788,0.8736,0.9102,0.9354,0.9479,0.9751,0.9867,0.9869,1.0053,1.0172,1.0333,1.073,1.1075,1.142,1.2076,1.2819,1.3699,1.5224,1.675,1.8252,1.8992,1.9581,2.0038,1.9908,2.0129,2.0824,2.1161,2.1565,2.2038,2.2168,2.2428,2.2702,2.2925,2.3335,2.3985,2.4451,2.492,2.5487,2.6306,2.7085,2.7656,2.8734,2.9625,3.014,3.0867,3.1388,3.1559,3.1559,3.1508,3.1319,3.1474,3.1489,3.1347,3.0939,3.0584,3.0228,2.9871,2.9513,2.9066,2.8835,2.8563,2.8274,2.813,2.8278,2.865,2.8966,2.9629,3.082,3.0894,3.1209,3.1835,3.1916,3.1686,3.1472,3.1633,3.1872,3.1872,3.2015,3.2126,3.2158,3.2142,3.2158,3.2094,3.1775,3.1536,3.1471,3.1304,3.1442,3.2112,3.2282,3.2616,3.3347,3.3492,3.3312,3.2901,3.2819,3.267,3.2339,3.2174,3.197,1.3314,1.3382,1.3214,1.3113,1.2997,1.2578,1.2067,1.1554,1.1134,1.0763,1.0394,0.974,0.9455,0.9456,0.9107,0.8894,0.8841,0.9009,0.9196,0.9368,0.9464,0.9627,0.9814,0.9918,1.0119,1.0399,1.0929,1.1446,1.1966,1.279,1.3876,1.5163,1.6705,1.8144,1.9402,1.9884,2.0332,2.073,2.0473,2.0561,2.1136,2.1617,2.1986,2.2124,2.2416,2.2603,2.2685,2.3185,2.377,2.4263,2.4856,2.5351,2.5871,2.668,2.7391,2.785,2.8996,2.9997,3.0513,3.1223,3.1559,3.1559,3.1559,3.1559,3.1559,3.1559,3.1559,3.1559,3.1152,3.0726,3.037,3.0014,2.9656,2.9298,2.8995,2.8779,2.8707,2.8491,2.8465,2.8816,2.9195,2.9892,3.0824,3.1146,3.1528,3.2277,3.2222,3.184,3.1625,3.1472,3.1395,3.1443,3.1633,3.1776,3.1824,3.1983,3.2126,3.2189,3.1921,3.1653,3.1605,3.135,3.1487,3.2071,3.2404,3.2786,3.3479,3.3738,3.364,3.3476,3.3394,3.323,3.2834,3.267,3.2314,1.3481,1.3409,1.3382,1.329,1.3146,1.2803,1.2357,1.1837,1.1319,1.1059,1.0838,0.9983,0.9556,0.9436,0.9022,0.884,0.883,0.902,0.9059,0.9017,0.9356,0.9559,0.9635,0.9836,1.0164,1.0687,1.1384,1.2051,1.2721,1.3983,1.5615,1.7502,1.8397,1.9083,1.9811,2.0604,2.1074,2.1163,2.1472,2.1633,2.1537,2.213,2.2415,2.2378,2.2713,2.2981,2.3196,2.3637,2.4316,2.5185,2.5641,2.6186,2.6808,2.7331,2.7722,2.8084,2.8923,2.9783,3.0868,3.1364,3.1559,3.1559,3.1559,3.1559,3.1559,3.1559,3.1559,3.1489,3.0939,3.0513,3.037,2.9799,2.9457,2.9417,2.9329,2.9154,2.8898,2.8995,2.9193,2.9143,2.9911,3.0575,3.1322,3.1834,3.2166,3.2479,3.2299,3.1993,3.184,3.1609,3.1395,3.1395,3.1443,3.1474,3.149,3.1458,3.157,3.1554,3.1506,3.1508,3.1448,3.1402,3.1464,3.2427,3.2681,3.3144,3.3839,3.4376,3.4621,3.4376,3.4376,3.4376,3.4049,3.3656,3.3022,1.3739,1.3739,1.3668,1.3573,1.3406,1.2992,1.2554,1.2067,1.1393,1.109,1.0991,1.0203,0.9827,0.9748,0.9396,0.9123,0.8986,0.9094,0.9079,0.8954,0.9126,0.928,0.943,0.98,1.0228,1.0786,1.1859,1.27,1.3546,1.5386,1.7239,1.8739,1.9443,2.014,2.091,2.1279,2.1555,2.1735,2.2097,2.2328,2.2415,2.2659,2.2896,2.2971,2.3147,2.3351,2.3649,2.4176,2.489,2.5683,2.6243,2.6852,2.7332,2.7695,2.8057,2.8491,2.9354,3.0228,3.0939,3.1347,3.1559,3.1559,3.1559,3.1559,3.1559,3.1559,3.1559,3.1489,3.1081,3.0726,3.0726,3.0085,2.972,2.9841,2.9745,2.9606,2.965,3.0048,3.029,3.0345,3.0908,3.1564,3.2176,3.2726,3.2894,3.274,3.2452,3.2299,3.2069,3.1625,3.1472,3.1411,3.1554,3.1586,3.1458,3.1395,3.1395,3.1395,3.1395,3.1427,3.1619,3.1636,3.1937,3.2938,3.3243,3.3662,3.4392,3.4604,3.4783,3.4881,3.4783,3.4702,3.4539,3.4376,3.3969,1.3997,1.4091,1.3905,1.3739,1.3573,1.3113,1.27,1.2234,1.1494,1.1196,1.1177,1.0408,1.0143,1.0154,0.9716,0.9376,0.9198,0.9202,0.9122,0.9035,0.9054,0.9144,0.9327,0.9863,1.0459,1.1192,1.2411,1.3662,1.4906,1.6944,1.8693,1.9775,2.0408,2.106,2.1754,2.1906,2.2066,2.2278,2.2557,2.2906,2.327,2.3477,2.3577,2.3556,2.3543,2.3722,2.4177,2.4834,2.557,2.6258,2.6939,2.742,2.7695,2.8057,2.8418,2.8923,2.9783,3.0513,3.0868,3.1294,3.1559,3.1559,3.1559,3.1559,3.1559,3.1559,3.1559,3.1559,3.1364,3.1152,3.0939,3.0524,3.0346,3.0518,3.0397,3.0371,3.0653,3.1014,3.1195,3.1325,3.1803,3.2426,3.2993,3.3515,3.3668,3.3137,3.2833,3.2604,3.2222,3.1856,3.1565,3.1522,3.1854,3.1948,3.1679,3.1681,3.1649,3.1665,3.1713,3.1808,3.1999,3.2046,3.2363,3.313,3.358,3.4212,3.5014,3.5243,3.5342,3.5258,3.5209,3.5159,3.4946,3.4946,3.4865,1.4257,1.4348,1.4091,1.381,1.3573,1.3142,1.2725,1.2246,1.1586,1.1345,1.129,1.0609,1.0441,1.0667,0.9919,0.9474,0.9377,0.9282,0.9178,0.9028,0.9202,0.9309,0.9346,0.9999,1.0925,1.2047,1.3138,1.5049,1.7647,1.8814,1.9965,2.1064,2.146,2.1782,2.2145,2.2486,2.2591,2.2668,2.2918,2.3427,2.3998,2.463,2.4598,2.4099,2.4034,2.4301,2.489,2.5651,2.631,2.6939,2.768,2.8072,2.8145,2.8491,2.8923,2.9298,3.0014,3.0442,3.0584,3.1223,3.1559,3.1559,3.1559,3.1559,3.1559,3.1559,3.163,3.163,3.1559,3.1418,3.1169,3.0993,3.092,3.1019,3.1317,3.1441,3.149,3.1573,3.1713,3.2052,3.2467,3.3068,3.3676,3.4122,3.4139,3.3761,3.3365,3.3061,3.273,3.2255,3.2017,3.2119,3.2326,3.2404,3.2013,3.2187,3.2395,3.2379,3.2456,3.2427,3.2364,3.2428,3.2986,3.358,3.4375,3.5128,3.5822,3.6237,3.6552,3.645,3.6161,3.5977,3.5601,3.5402,3.5369,1.4303,1.4257,1.3975,1.3716,1.3409,1.29,1.2582,1.2298,1.1601,1.1404,1.1453,1.0916,1.0683,1.0744,1.029,0.9956,0.9788,0.9643,0.9463,0.922,0.9281,0.9436,0.9846,1.0613,1.1668,1.2896,1.4257,1.6172,1.8492,1.977,2.0833,2.1749,2.2375,2.2817,2.3278,2.3479,2.3479,2.3293,2.3542,2.3996,2.4416,2.483,2.5146,2.5345,2.5119,2.5257,2.5626,2.6389,2.7055,2.7707,2.8454,2.8995,2.9282,2.9568,2.9855,3.0014,3.0513,3.0781,3.0868,3.1277,3.1559,3.1559,3.1559,3.163,3.1559,3.1559,3.17,3.1912,3.1894,3.1912,3.1998,3.1704,3.1577,3.1958,3.1943,3.2052,3.2234,3.2434,3.2634,3.2902,3.3388,3.4001,3.4296,3.4423,3.4365,3.4139,3.3592,3.3314,3.3286,3.3028,3.2789,3.3038,3.3378,3.3621,3.3525,3.3299,3.3267,3.3188,3.3299,3.3609,3.366,3.3774,3.4261,3.5015,3.5642,3.5957,3.6675,3.6824,3.7159,3.7073,3.6782,3.6495,3.6246,3.6062,3.5879,1.4303,1.4093,1.3834,1.3549,1.3238,1.2835,1.2517,1.2298,1.1684,1.1511,1.1551,1.1033,1.079,1.0894,1.0632,1.0405,1.0207,0.9929,0.9733,0.9625,0.9577,0.9836,1.0454,1.1405,1.2579,1.3975,1.5909,1.7809,1.9445,2.0786,2.1743,2.2483,2.3106,2.3666,2.4053,2.4115,2.3991,2.3852,2.3914,2.4232,2.4709,2.5282,2.5801,2.6224,2.6197,2.6163,2.6276,2.6916,2.754,2.8216,2.9003,2.967,3.0069,3.0299,3.037,3.0442,3.0797,3.1064,3.1223,3.1559,3.1841,3.1912,3.1982,3.1929,3.1912,3.1912,3.2052,3.2263,3.2333,3.2474,3.2738,3.2539,3.2505,3.2926,3.2986,3.3153,3.3373,3.3634,3.3785,3.3844,3.4389,3.4782,3.4932,3.4875,3.4724,3.4667,3.4115,3.3882,3.3932,3.3748,3.3619,3.3872,3.4183,3.4462,3.4545,3.4542,3.4252,3.4156,3.4255,3.46,3.4832,3.5063,3.5509,3.6308,3.6828,3.7014,3.7215,3.7366,3.7416,3.7381,3.7176,3.6853,3.6734,3.6597,3.6396,1.4233,1.3973,1.3716,1.3378,1.3067,1.2954,1.268,1.2263,1.1875,1.171,1.1614,1.0956,1.0864,1.1073,1.0903,1.0759,1.0635,1.0174,1.0039,1.019,1.0139,1.0491,1.1197,1.2358,1.3754,1.5258,1.7941,1.9761,2.0762,2.186,2.2691,2.3111,2.3688,2.407,2.4177,2.4239,2.4162,2.41,2.4023,2.428,2.5095,2.5894,2.6419,2.669,2.6985,2.6941,2.6641,2.7317,2.7915,2.834,2.9265,3.0045,3.0364,3.0484,3.0463,3.0555,3.0801,3.1172,3.1595,3.186,3.2211,3.2491,3.2631,3.2561,3.2561,3.2561,3.2631,3.2701,3.2701,3.2859,3.3247,3.3589,3.3764,3.3961,3.4271,3.4636,3.4764,3.4932,3.5007,3.4932,3.5231,3.5381,3.5231,3.5306,3.5324,3.5131,3.4947,3.4845,3.471,3.464,3.4396,3.4522,3.4945,3.54,3.5587,3.5659,3.5335,3.5125,3.5194,3.5393,3.5774,3.5991,3.6359,3.6997,3.7284,3.7471,3.7742,3.7878,3.7792,3.7724,3.7484,3.7347,3.7193,3.7056,3.6833,1.3973,1.3716,1.3549,1.337,1.3175,1.2894,1.2699,1.2614,1.2138,1.1852,1.1706,1.1382,1.1178,1.1095,1.111,1.1139,1.1169,1.0889,1.0682,1.0633,1.0966,1.1476,1.2236,1.3426,1.5316,1.7616,1.9434,2.0674,2.1425,2.2233,2.2864,2.3451,2.3913,2.4377,2.4718,2.4795,2.4672,2.4487,2.4595,2.4828,2.5153,2.5865,2.6406,2.6738,2.7256,2.7448,2.741,2.7852,2.8367,2.8972,2.9593,3.0205,3.0651,3.0806,3.0943,3.115,3.127,3.1547,3.1895,3.2017,3.2279,3.263,3.2719,3.2719,3.2719,3.2701,3.2841,3.3069,3.3139,3.326,3.3684,3.4266,3.4487,3.4252,3.4694,3.5082,3.5082,3.5082,3.5157,3.5381,3.553,3.5605,3.5754,3.5829,3.5713,3.5815,3.5615,3.5463,3.5895,3.5931,3.6193,3.6365,3.6595,3.6355,3.6333,3.6425,3.6285,3.6062,3.6119,3.624,3.6492,3.6846,3.7217,3.7471,3.7657,3.7913,3.8186,3.8289,3.8203,3.8186,3.8101,3.7895,3.7655,3.7467,3.7296,1.3787,1.3597,1.3358,1.3278,1.3259,1.2898,1.2794,1.283,1.2392,1.2104,1.1926,1.1603,1.1448,1.1356,1.1387,1.1522,1.1665,1.1719,1.1742,1.1773,1.192,1.2548,1.3504,1.5178,1.72,1.9477,2.0734,2.1572,2.2314,2.2845,2.3367,2.3779,2.4102,2.4493,2.4913,2.504,2.498,2.4857,2.5119,2.534,2.5596,2.6024,2.6503,2.6858,2.7393,2.7752,2.7867,2.8278,2.8676,2.9211,2.9766,3.036,3.0905,3.1092,3.1261,3.1463,3.1549,3.1708,3.2165,3.2322,3.2552,3.2961,3.3121,3.3121,3.3121,3.3121,3.326,3.34,3.3487,3.3539,3.3857,3.455,3.4847,3.4667,3.5136,3.5402,3.5456,3.5456,3.553,3.5754,3.5829,3.5978,3.6052,3.607,3.601,3.6279,3.621,3.6249,3.6856,3.6966,3.7214,3.7374,3.7215,3.6992,3.6947,3.706,3.7206,3.7072,3.695,3.7093,3.7316,3.7522,3.7862,3.7913,3.8135,3.822,3.8512,3.858,3.8563,3.8597,3.8666,3.858,3.8375,3.8049,3.7809,1.3692,1.3549,1.3142,1.3145,1.3284,1.3067,1.2912,1.2885,1.2559,1.2289,1.2052,1.1713,1.1601,1.1722,1.1693,1.1898,1.2222,1.2476,1.3033,1.3435,1.3476,1.3837,1.5224,1.7253,1.9214,2.0933,2.1711,2.2487,2.3351,2.3634,2.3991,2.4062,2.4435,2.4623,2.4855,2.5005,2.5226,2.5288,2.5472,2.5756,2.6032,2.6379,2.6731,2.7013,2.747,2.7831,2.8142,2.8656,2.8907,2.899,2.9875,3.0519,3.0968,3.1275,3.1389,3.1488,3.1527,3.1926,3.2417,3.2611,3.2965,3.3605,3.3678,3.3817,3.3678,3.3678,3.3678,3.3747,3.3747,3.3747,3.3945,3.4477,3.4845,3.5119,3.5577,3.6015,3.6126,3.6126,3.6126,3.6126,3.6201,3.6275,3.6275,3.6275,3.6588,3.6918,3.7038,3.7249,3.7644,3.7891,3.7614,3.7765,3.7986,3.7765,3.7783,3.7891,3.806,3.7807,3.7787,3.7986,3.8095,3.8389,3.8562,3.8546,3.8598,3.8683,3.8821,3.8993,3.9061,3.9111,3.9162,3.9214,3.9025,3.8666,3.8443,1.331,1.321,1.3017,1.3099,1.329,1.3023,1.2917,1.289,1.2412,1.2052,1.1833,1.1692,1.1675,1.1712,1.2123,1.2439,1.2752,1.3025,1.38,1.4835,1.5198,1.6057,1.7443,1.8915,2.0462,2.1921,2.2387,2.3032,2.376,2.3924,2.4031,2.431,2.4662,2.4978,2.5256,2.5566,2.5823,2.5839,2.5884,2.5994,2.6126,2.6434,2.6661,2.6777,2.7377,2.7886,2.8219,2.9045,2.9495,2.9578,3.004,3.0556,3.0894,3.1044,3.1193,3.1407,3.169,3.2084,3.2515,3.2825,3.3239,3.3762,3.3747,3.3817,3.3817,3.3817,3.3817,3.3817,3.3817,3.3817,3.389,3.4275,3.466,3.5064,3.5687,3.6146,3.6182,3.6201,3.6201,3.6201,3.6442,3.659,3.6664,3.6849,3.7296,3.7877,3.8139,3.8266,3.8613,3.8947,3.8798,3.9114,3.9272,3.8877,3.8652,3.8784,3.877,3.8494,3.8583,3.8971,3.9032,3.9243,3.9313,3.9348,3.9441,3.9547,3.9548,3.9687,3.965,3.9838,3.9733,3.9804,3.9524,3.9284,3.9233,1.3069,1.2988,1.2749,1.2851,1.3141,1.2712,1.2682,1.2777,1.2243,1.2015,1.2006,1.1851,1.1943,1.2186,1.2658,1.3022,1.3332,1.3858,1.4726,1.5805,1.6994,1.8063,1.9097,2.0037,2.1158,2.2412,2.2855,2.3399,2.3955,2.4061,2.4205,2.4364,2.4655,2.482,2.5018,2.5605,2.5852,2.5885,2.6106,2.6311,2.6344,2.665,2.6812,2.6896,2.7385,2.7853,2.849,2.9344,2.976,2.99,3.0296,3.0685,3.0879,3.1055,3.1184,3.1377,3.1616,3.1983,3.2514,3.2845,3.3211,3.3601,3.3678,3.3608,3.3539,3.3469,3.34,3.3539,3.3539,3.3678,3.3872,3.4165,3.4568,3.499,3.5449,3.5779,3.5925,3.6109,3.6182,3.6275,3.6516,3.6812,3.6812,3.72,3.7669,3.8198,3.8444,3.8878,3.937,3.9713,3.9981,3.9981,3.9981,3.9509,3.9477,3.9714,3.9943,3.9659,3.9765,4.0078,3.9867,3.9961,3.9898,3.9969,4.02,4.038,4.0454,4.0544,4.0737,4.0735,4.0505,4.047,4.0294,4.0048,4.003,1.292,1.2798,1.2469,1.2555,1.2814,1.2348,1.2356,1.2533,1.2058,1.204,1.2294,1.2139,1.2354,1.2958,1.3285,1.3656,1.3977,1.4817,1.5848,1.7056,1.8426,1.9634,2.0101,2.0676,2.1634,2.2649,2.3125,2.362,2.4081,2.431,2.4479,2.4575,2.4601,2.4637,2.5043,2.547,2.5651,2.598,2.6439,2.6729,2.6796,2.6986,2.7081,2.7071,2.7361,2.7866,2.8553,2.9293,2.9743,2.98,3.0502,3.0944,3.1009,3.1249,3.1377,3.1414,3.1524,3.1873,3.2459,3.2698,3.296,3.3513,3.3469,3.3278,3.3191,3.2981,3.2981,3.3348,3.3278,3.3469,3.3784,3.4128,3.4403,3.4644,3.4827,3.5083,3.5394,3.5797,3.6146,3.6201,3.659,3.6738,3.6886,3.7219,3.7647,3.8328,3.8746,3.9357,3.9817,4.0162,4.0237,4.0294,4.0216,4.0059,4.0284,4.0565,4.092,4.1028,4.1184,4.1202,4.0614,4.0524,4.0431,4.0525,4.1274,4.1586,4.1601,4.1692,4.1818,4.1639,4.1335,4.1389,4.1515,4.1088,4.0857,1.2554,1.2425,1.239,1.2396,1.2408,1.2249,1.2198,1.2212,1.184,1.1879,1.2208,1.2255,1.2592,1.3192,1.3872,1.4321,1.4737,1.5699,1.687,1.8454,1.9479,2.0525,2.1098,2.1443,2.206,2.2893,2.3406,2.3817,2.4176,2.4518,2.4812,2.5013,2.5177,2.5587,2.5844,2.6059,2.6685,2.697,2.7127,2.72,2.7228,2.734,2.7297,2.7168,2.7398,2.7655,2.7991,2.8887,2.9474,2.9935,3.0599,3.1148,3.1249,3.1377,3.1377,3.1433,3.1689,3.2056,3.2514,3.2795,3.313,3.3342,3.3242,3.3139,3.2841,3.2701,3.2841,3.3191,3.3278,3.34,3.3765,3.3872,3.3967,3.4131,3.4121,3.416,3.4413,3.5103,3.5742,3.6091,3.6479,3.6812,3.6812,3.7421,3.7925,3.8456,3.9009,3.9736,4.0162,4.0511,4.0588,4.0607,4.0607,4.0567,4.0834,4.1215,4.1728,4.201,4.2201,4.2216,4.163,4.1368,4.1365,4.1829,4.2609,4.2728,4.2682,4.2885,4.3049,4.2515,4.2209,4.2282,4.2371,4.1924,4.1709,1.216,1.2047,1.2095,1.2082,1.1997,1.1985,1.1978,1.1888,1.1591,1.1861,1.2356,1.2458,1.298,1.3874,1.4492,1.5006,1.5802,1.6873,1.8274,1.9568,2.0344,2.0933,2.1695,2.1912,2.2265,2.2878,2.3304,2.3662,2.4005,2.4504,2.4812,2.5017,2.5336,2.5499,2.5884,2.6332,2.6615,2.6863,2.7234,2.7441,2.7421,2.7494,2.734,2.7133,2.7278,2.7415,2.7734,2.8293,2.8961,2.9595,3.0291,3.0938,3.1359,3.1377,3.1377,3.1433,3.1561,3.1909,3.2294,3.2496,3.2657,3.2954,3.2856,3.2666,3.2403,3.2281,3.2351,3.2701,3.2911,3.3209,3.3747,3.3817,3.3747,3.3575,3.3581,3.3569,3.3536,3.4234,3.4975,3.5374,3.5852,3.6257,3.6626,3.7236,3.7925,3.8363,3.8934,3.966,4.0316,4.0705,4.0996,4.1016,4.1094,4.1133,4.1306,4.1788,4.2543,4.2707,4.2831,4.2799,4.2466,4.2413,4.2442,4.2961,4.3329,4.3695,4.3708,4.3918,4.4086,4.3819,4.3641,4.3463,4.3248,4.3015,4.2836,1.1755,1.1692,1.1764,1.1748,1.17,1.1729,1.1753,1.1717,1.1556,1.2031,1.2718,1.2818,1.3605,1.4537,1.5235,1.595,1.7006,1.798,1.9281,2.0464,2.0762,2.1374,2.2045,2.2248,2.2384,2.2671,2.3184,2.3542,2.3888,2.4384,2.4851,2.4923,2.5072,2.5346,2.5453,2.5887,2.6394,2.6572,2.7057,2.7356,2.7399,2.7445,2.7357,2.715,2.7046,2.7105,2.7388,2.7796,2.8276,2.9061,2.9485,3.0245,3.0946,3.1249,3.1313,3.1313,3.1239,3.1393,3.169,3.1884,3.2007,3.237,3.2156,3.2036,3.1947,3.1771,3.1841,3.2193,3.2561,3.2999,3.3539,3.3539,3.34,3.3278,3.3139,3.2861,3.2647,3.3051,3.3456,3.446,3.4933,3.5354,3.5998,3.659,3.7464,3.8213,3.8859,3.9528,4.0258,4.082,4.1055,4.1172,4.1172,4.1523,4.1736,4.2184,4.2962,4.321,4.3297,4.3214,4.3214,4.3355,4.3382,4.3594,4.3899,4.428,4.4641,4.4769,4.4902,4.499,4.4725,4.4263,4.4086,4.4174,4.3908,1.1481,1.1623,1.1694,1.1716,1.1713,1.1753,1.175,1.1729,1.1966,1.2372,1.289,1.368,1.4284,1.5084,1.6269,1.7356,1.823,1.8973,1.9741,2.0823,2.1207,2.181,2.2487,2.2565,2.2652,2.2994,2.3358,2.3614,2.3836,2.4401,2.4782,2.5055,2.5165,2.5276,2.5569,2.6006,2.6331,2.6511,2.6986,2.7278,2.7337,2.7381,2.7242,2.7048,2.6796,2.6743,2.6844,2.7114,2.7639,2.8318,2.9026,2.976,3.0301,3.0473,3.062,3.0879,3.075,3.0846,3.1169,3.1198,3.1357,3.1579,3.1375,3.1355,3.1474,3.1347,3.1418,3.1912,3.2333,3.2701,3.2859,3.2911,3.2841,3.2631,3.221,3.1735,3.1341,3.1313,3.1845,3.3162,3.3813,3.4525,3.522,3.5938,3.6754,3.7671,3.8463,3.9261,3.9971,4.0569,4.1035,4.1172,4.1172,4.168,4.2187,4.2676,4.3242,4.3433,4.3546,4.3628,4.3711,4.4041,4.417,4.4317,4.4555,4.4864,4.5184,4.5483,4.5511,4.5453,4.5247,4.4971,4.4971,4.4971,4.4794,1.0973,1.1145,1.1388,1.1508,1.154,1.1721,1.1805,1.1855,1.2081,1.2643,1.3403,1.4058,1.4875,1.5803,1.6469,1.7657,1.882,1.9698,2.04,2.1315,2.1735,2.2281,2.2934,2.29,2.2902,2.3044,2.3272,2.3511,2.3752,2.4213,2.4662,2.4944,2.5128,2.5276,2.5514,2.5861,2.6171,2.648,2.6901,2.7195,2.7244,2.7347,2.7127,2.6628,2.6591,2.651,2.6361,2.6461,2.6822,2.7378,2.7875,2.8567,2.9086,2.9409,2.9709,3.0361,3.0426,3.0431,3.0596,3.054,3.0626,3.0891,3.0598,3.0623,3.0822,3.0852,3.0922,3.1401,3.163,3.1929,3.214,3.2123,3.207,3.1788,3.1277,3.0638,3.0046,2.9673,3.0389,3.1548,3.2282,3.3146,3.4336,3.5144,3.6034,3.7005,3.8003,3.8857,3.9641,4.0239,4.0782,4.1094,4.1269,4.2012,4.2539,4.2988,4.332,4.3555,4.3793,4.3876,4.4041,4.437,4.473,4.504,4.5312,4.547,4.5845,4.6095,4.5993,4.5996,4.6181,4.6172,4.5987,4.587,4.5511,1.0472,1.0711,1.1012,1.1206,1.133,1.164,1.1873,1.1996,1.231,1.3016,1.4011,1.4519,1.542,1.6515,1.7173,1.7975,1.9223,2.0262,2.1003,2.1649,2.2085,2.2702,2.3153,2.322,2.3088,2.3108,2.2962,2.3237,2.3682,2.4093,2.4453,2.4765,2.5072,2.5183,2.5348,2.5734,2.5953,2.6281,2.6701,2.705,2.7062,2.7097,2.6859,2.6092,2.6258,2.6227,2.6006,2.6039,2.6191,2.6566,2.7005,2.7463,2.7944,2.8064,2.8575,2.9561,2.9839,2.9987,2.9861,2.9605,2.9513,2.9969,2.953,2.9612,2.9971,2.9997,3.0107,3.0501,3.0593,3.0563,3.0691,3.0949,3.0771,3.0451,3.0058,2.9585,2.8718,2.8334,2.8416,2.9464,3.0495,3.172,3.2902,3.4034,3.4922,3.6059,3.7053,3.825,3.9071,3.9751,4.0273,4.0954,4.1421,4.2242,4.2809,4.3281,4.3516,4.3633,4.3876,4.4041,4.4288,4.4616,4.5018,4.5486,4.5734,4.5936,4.634,4.6575,4.6351,4.6398,4.7087,4.7041,4.6405,4.6127,4.5915,1.0156,1.0621,1.0651,1.0901,1.1315,1.1646,1.1804,1.1992,1.304,1.3756,1.4375,1.5482,1.6249,1.6969,1.8197,1.9079,1.9805,2.0411,2.107,2.1748,2.225,2.2817,2.3414,2.3412,2.327,2.3155,2.2856,2.3083,2.3545,2.399,2.4401,2.4693,2.4851,2.4979,2.5221,2.5624,2.5861,2.6136,2.6482,2.6609,2.6453,2.6462,2.6255,2.5949,2.5768,2.5616,2.5542,2.5529,2.5785,2.611,2.6458,2.6851,2.7263,2.7361,2.7391,2.7685,2.813,2.8527,2.8477,2.8279,2.8223,2.8506,2.8019,2.8084,2.8489,2.8788,2.8821,2.9049,2.9033,2.8937,2.8879,2.8959,2.8844,2.8664,2.8377,2.7916,2.7217,2.704,2.716,2.7478,2.8585,3.0161,3.152,3.2659,3.3808,3.502,3.6201,3.7317,3.8396,3.904,3.9877,4.0556,4.1257,4.2056,4.2764,4.3273,4.3531,4.3691,4.3876,4.4205,4.4534,4.4882,4.5291,4.5698,4.5943,4.6127,4.6286,4.638,4.6394,4.6639,4.7075,4.6824,4.6325,4.6301,4.6356,0.9591,1.0207,1.0376,1.069,1.1058,1.1367,1.1863,1.2529,1.3266,1.4253,1.5226,1.5994,1.6823,1.7738,1.886,1.9459,1.9837,2.0428,2.1186,2.1766,2.2274,2.2841,2.3412,2.3367,2.3188,2.3088,2.2889,2.286,2.3323,2.3734,2.411,2.447,2.471,2.4923,2.5221,2.5514,2.5844,2.6081,2.6208,2.6171,2.6018,2.5839,2.5589,2.5119,2.5025,2.4946,2.4843,2.5,2.5114,2.5356,2.5593,2.5802,2.5928,2.5968,2.6048,2.6008,2.6224,2.6718,2.7185,2.6918,2.6931,2.6809,2.6474,2.6508,2.6951,2.7053,2.7078,2.7143,2.7216,2.7189,2.6998,2.6964,2.6918,2.6828,2.6677,2.6322,2.5957,2.5895,2.5934,2.6226,2.6677,2.8332,2.9833,3.1071,3.2475,3.4113,3.5066,3.6046,3.7259,3.8365,3.9239,4.0175,4.091,4.169,4.2438,4.3026,4.3366,4.3546,4.3711,4.4041,4.4636,4.5046,4.5454,4.5881,4.6166,4.625,4.6331,4.6494,4.6637,4.6759,4.6945,4.6758,4.6507,4.6669,4.6562,0.9122,0.9735,1.0036,1.0388,1.083,1.1162,1.1888,1.2814,1.3534,1.4679,1.6026,1.6823,1.7695,1.8482,1.9261,1.9654,1.9671,2.04,2.1217,2.1843,2.2274,2.2792,2.3238,2.3256,2.3055,2.3005,2.2736,2.2757,2.298,2.3357,2.3768,2.4159,2.4487,2.4858,2.5221,2.5514,2.5861,2.6063,2.6136,2.5916,2.5529,2.5349,2.4918,2.4532,2.4282,2.422,2.4029,2.4092,2.4248,2.4454,2.4595,2.475,2.4774,2.4804,2.4707,2.4606,2.4654,2.48,2.5248,2.5322,2.5334,2.5161,2.4862,2.4867,2.4948,2.5043,2.5154,2.517,2.5187,2.5241,2.524,2.5073,2.5102,2.5052,2.4961,2.4749,2.4568,2.4608,2.4786,2.5143,2.5669,2.6457,2.7947,2.9329,3.1043,3.2969,3.4131,3.4863,3.608,3.7401,3.8427,3.938,4.026,4.1053,4.1954,4.2608,4.2991,4.338,4.3546,4.3958,4.4472,4.5046,4.5535,4.5861,4.6185,4.6288,4.6352,4.6618,4.6803,4.6681,4.6681,4.6845,4.6865,4.6905,4.6698,0.8896,0.9276,0.9608,1.0018,1.053,1.127,1.1961,1.2834,1.393,1.5242,1.6698,1.8002,1.8783,1.9187,1.9513,1.9762,1.9625,2.0337,2.1113,2.1672,2.2095,2.2585,2.2976,2.3038,2.2887,2.2854,2.2603,2.2519,2.2672,2.2826,2.344,2.4091,2.4227,2.4668,2.5116,2.5514,2.5806,2.5953,2.6008,2.5569,2.511,2.4825,2.4569,2.4081,2.3751,2.3562,2.3582,2.3495,2.3517,2.3718,2.378,2.3822,2.3899,2.377,2.3558,2.3332,2.3317,2.3281,2.3202,2.3734,2.3969,2.3829,2.3456,2.3053,2.3052,2.284,2.2904,2.3236,2.3285,2.323,2.333,2.3423,2.3443,2.3476,2.35,2.358,2.3463,2.3464,2.3677,2.4021,2.4685,2.5604,2.6524,2.8056,2.9553,3.1547,3.3022,3.3768,3.5014,3.6303,3.7346,3.8362,3.9332,4.0345,4.1453,4.2011,4.2364,4.2799,4.3131,4.3628,4.4288,4.48,4.5127,4.5637,4.5881,4.6104,4.6266,4.6432,4.6493,4.637,4.6411,4.6577,4.6639,4.6578,4.6332,0.8485,0.8776,0.9253,0.9811,1.0476,1.1214,1.2188,1.3289,1.4349,1.5889,1.7584,1.8774,1.9385,1.9546,1.97,1.9899,1.9887,2.0474,2.1053,2.1449,2.1793,2.2122,2.2415,2.2434,2.2182,2.2232,2.208,2.203,2.2063,2.2282,2.2515,2.302,2.3742,2.4582,2.5116,2.5441,2.5734,2.5734,2.5679,2.5221,2.4889,2.4406,2.4099,2.3707,2.3171,2.3001,2.2975,2.292,2.3064,2.3127,2.3066,2.3071,2.3126,2.2871,2.2484,2.22,2.2244,2.1973,2.1735,2.2287,2.2635,2.2026,2.1462,2.107,2.123,2.1105,2.1159,2.1318,2.1648,2.179,2.179,2.1873,2.1848,2.1994,2.2202,2.2478,2.2656,2.2693,2.3234,2.3853,2.4254,2.495,2.5833,2.6871,2.8381,3.0007,3.1405,3.2865,3.4141,3.5295,3.6438,3.7439,3.8394,3.9353,4.0414,4.1081,4.1695,4.2132,4.2633,4.3131,4.3628,4.3958,4.437,4.4964,4.5535,4.5698,4.5942,4.6185,4.6266,4.6266,4.6266,4.6328,4.6308,4.6266,4.6185,0.8302,0.8608,0.9015,0.9645,1.0369,1.1193,1.226,1.3541,1.4565,1.6257,1.8306,1.9322,1.9716,1.9716,1.9808,1.9845,1.9962,2.0382,2.0881,2.1235,2.1492,2.1662,2.1812,2.1878,2.1827,2.1674,2.1674,2.1725,2.1776,2.1725,2.2057,2.2559,2.3154,2.3914,2.4703,2.5296,2.5551,2.5459,2.5348,2.4944,2.4573,2.4128,2.3697,2.3336,2.2771,2.2523,2.2421,2.2266,2.22,2.2379,2.2403,2.2393,2.2338,2.2117,2.1622,2.1397,2.124,2.1082,2.1039,2.1059,2.1388,2.0898,2.0169,1.9848,1.9738,1.9779,1.9965,2.0117,2.0419,2.0674,2.0769,2.1016,2.1067,2.1365,2.1785,2.2111,2.2209,2.2388,2.3067,2.3755,2.4171,2.4605,2.569,2.6723,2.8341,2.9775,3.0982,3.2296,3.3573,3.459,3.5623,3.661,3.7469,3.8331,3.9214,3.9831,4.0518,4.121,4.1714,4.2216,4.2716,4.3131,4.3628,4.4288,4.478,4.5209,4.5535,4.5779,4.6023,4.6266,4.6266,4.6266,4.6266,4.6266,4.6266,0.8508,0.8971,0.8995,0.9473,1.0219,1.1173,1.2259,1.3478,1.4695,1.6376,1.8392,1.9592,1.9945,1.9733,1.9841,1.9823,1.9821,2.011,2.052,2.0983,2.1097,2.1361,2.1508,2.1522,2.1471,2.1674,2.1623,2.1573,2.1623,2.1573,2.1837,2.2051,2.2435,2.3031,2.385,2.4755,2.5186,2.5203,2.5096,2.462,2.405,2.3756,2.3461,2.2983,2.242,2.2127,2.2135,2.165,2.1525,2.1582,2.1646,2.1601,2.1479,2.1344,2.1014,2.0734,2.0409,2.0315,2.0367,2.0302,2.0274,2.0085,1.9537,1.923,1.9054,1.9022,1.9223,1.9528,1.9764,2.0039,2.032,2.0632,2.0658,2.0966,2.1445,2.182,2.1982,2.2194,2.2859,2.371,2.4069,2.4504,2.5616,2.6901,2.8412,2.966,3.0708,3.1885,3.316,3.4072,3.5115,3.6064,3.6927,3.7436,3.8271,3.8715,3.9331,4.0095,4.0789,4.1192,4.1779,4.2281,4.2863,4.3546,4.4041,4.4452,4.4964,4.5372,4.5698,4.6104,4.6266,4.6266,4.6266,4.6266,4.6266,0.8279,0.8614,0.9012,0.9593,1.0335,1.1417,1.2424,1.3573,1.5409,1.7017,1.8077,1.9142,1.9608,1.9674,1.9843,1.9868,1.9795,2.033,2.0752,2.0369,2.0607,2.0782,2.0909,2.096,2.1011,2.1113,2.1181,2.1181,2.1165,2.1216,2.1213,2.1425,2.1928,2.2551,2.3325,2.4008,2.4203,2.422,2.4274,2.4059,2.3303,2.3227,2.3053,2.2656,2.2075,2.1902,2.1972,2.136,2.0989,2.1028,2.1044,2.0868,2.0999,2.0922,2.0692,2.0618,2.0515,2.078,2.0847,2.0703,2.0261,1.9851,1.936,1.903,1.8749,1.8832,1.8958,1.9223,1.9626,1.9826,2.0023,2.0265,2.0506,2.1064,2.1518,2.1763,2.2016,2.2221,2.2725,2.3585,2.4149,2.5006,2.608,2.7358,2.8829,2.9849,3.0852,3.2028,3.3299,3.4006,3.4815,3.5784,3.6555,3.6847,3.7344,3.7791,3.822,3.8905,3.9501,4.001,4.0602,4.135,4.1835,4.2459,4.3004,4.3609,4.4205,4.48,4.5454,4.5881,4.5942,4.6185,4.6266,4.6266,4.6266,0.828,0.8563,0.9065,0.9722,1.0489,1.1488,1.2571,1.3912,1.5778,1.695,1.7686,1.8472,1.9051,1.9335,1.9589,1.9798,1.9701,2.0081,2.0411,1.9953,2.022,2.038,2.0395,2.0344,2.0447,2.0601,2.0668,2.0617,2.0652,2.0719,2.0838,2.1107,2.1406,2.1895,2.2592,2.3003,2.3574,2.3679,2.3749,2.3448,2.2988,2.279,2.2597,2.2292,2.1936,2.1709,2.1669,2.1275,2.0758,2.0723,2.0516,2.0274,2.0556,2.0513,2.0498,2.0718,2.0773,2.0939,2.0923,2.1102,2.0658,2.0342,1.9674,1.9184,1.9062,1.9308,1.9447,1.965,1.9907,2.0188,2.0428,2.0616,2.111,2.1669,2.1949,2.2266,2.2295,2.2512,2.2813,2.3675,2.4321,2.5336,2.6591,2.8023,2.9435,3.0215,3.1003,3.2193,3.3285,3.3831,3.4349,3.5121,3.5819,3.6063,3.641,3.686,3.7291,3.7808,3.8375,3.9044,3.9645,4.0418,4.0856,4.1273,4.1873,4.2569,4.3463,4.4123,4.4698,4.5209,4.5454,4.5779,4.6185,4.6266,4.6266,0.8443,0.8725,0.914,0.9771,1.06,1.1353,1.2725,1.4466,1.5273,1.6242,1.7156,1.7713,1.8312,1.8856,1.8981,1.9148,1.9425,1.9562,1.9643,1.981,1.9797,1.9931,1.9983,2.0034,2.0086,2.0138,2.0138,2.0241,2.0138,2.0462,2.0668,2.0873,2.1126,2.148,2.1865,2.2267,2.29,2.3111,2.318,2.2883,2.2587,2.2405,2.214,2.1876,2.164,2.1521,2.1395,2.0988,2.0558,2.0308,1.9974,1.9933,1.9837,1.9817,2.0315,2.0692,2.0696,2.0862,2.1091,2.1251,2.1313,2.1081,2.052,2.001,1.9848,2.0029,2.0197,2.048,2.0796,2.1105,2.144,2.1906,2.2293,2.256,2.2777,2.2927,2.2936,2.3091,2.3201,2.372,2.4149,2.5189,2.6714,2.8182,2.9631,3.0444,3.1234,3.2163,3.3145,3.3423,3.391,3.4349,3.4947,3.5209,3.5661,3.6199,3.6731,3.7268,3.7869,3.8578,3.908,3.9652,4.0203,4.0593,4.0868,4.1518,4.2383,4.3112,4.3856,4.4288,4.4862,4.5454,4.5861,4.6104,4.6104,0.816,0.8537,0.8916,0.9505,1.0242,1.1059,1.2296,1.3743,1.4577,1.5402,1.6177,1.6793,1.7428,1.8108,1.8425,1.8535,1.8731,1.8891,1.8881,1.8968,1.9101,1.9205,1.9376,1.9569,1.9724,1.9931,1.9968,1.9864,2.0138,2.0359,2.0478,2.0668,2.0826,2.1046,2.1213,2.1441,2.1987,2.2415,2.2517,2.2378,2.2121,2.1914,2.1602,2.1377,2.1309,2.1184,2.095,2.0644,2.0242,1.9979,1.9639,1.9569,1.9787,1.9946,2.0391,2.0982,2.1197,2.1423,2.1635,2.1723,2.1794,2.1992,2.1715,2.1318,2.0953,2.0865,2.1094,2.133,2.1555,2.177,2.2159,2.2555,2.297,2.3257,2.3374,2.3456,2.3443,2.3265,2.3462,2.372,2.4235,2.5311,2.6838,2.8386,2.98,3.0587,3.1437,3.2309,3.294,3.3205,3.3558,3.3998,3.4514,3.4896,3.52,3.5724,3.6218,3.6768,3.7507,3.8146,3.8703,3.916,3.9652,3.9999,4.0268,4.0735,4.1378,4.2151,4.2997,4.3711,4.4288,4.4964,4.5535,4.5779,4.5982,0.7923,0.8305,0.8704,0.924,0.9942,1.0784,1.1642,1.2428,1.3378,1.4328,1.5182,1.5758,1.647,1.7343,1.7699,1.795,1.8067,1.8362,1.8408,1.8356,1.8318,1.8632,1.8893,1.9011,1.922,1.9413,1.945,1.9346,1.9776,2.005,2.0205,2.0498,2.0625,2.0667,2.082,2.087,2.1073,2.1458,2.1726,2.1725,2.1589,2.1369,2.1115,2.0928,2.0895,2.0754,2.0538,2.0273,2.0012,1.9751,1.9397,1.9325,1.9648,2.0029,2.0384,2.0899,2.1189,2.1499,2.1845,2.2045,2.231,2.2667,2.2902,2.2678,2.2296,2.2068,2.2133,2.2193,2.2218,2.2365,2.2709,2.305,2.3493,2.3762,2.3909,2.3966,2.3715,2.3525,2.3634,2.3892,2.4687,2.5763,2.7076,2.8632,2.9909,3.0727,3.1464,3.2264,3.2763,3.3029,3.3293,3.3734,3.4311,3.486,3.5093,3.5508,3.6154,3.6821,3.733,3.794,3.8412,3.8736,3.9168,3.944,3.967,4.0081,4.0503,4.1468,4.2331,4.2869,4.3336,4.3896,4.4636,4.5454,4.5616,0.7708,0.8106,0.8524,0.9027,0.962,1.0426,1.074,1.0724,1.208,1.3199,1.4202,1.4769,1.5684,1.6584,1.6976,1.7266,1.7463,1.7726,1.7793,1.7911,1.8003,1.8213,1.8318,1.837,1.8684,1.8698,1.875,1.8893,1.922,1.9583,1.9931,2.0364,2.0152,2.0097,2.0169,2.0203,2.035,2.0628,2.0889,2.1033,2.1267,2.111,2.0809,2.0566,2.0527,2.042,2.02,1.9961,1.9795,1.9577,1.9386,1.9155,1.9555,2.0059,2.0411,2.0726,2.1029,2.1521,2.1948,2.2295,2.2833,2.3243,2.359,2.355,2.3314,2.284,2.2781,2.2998,2.3052,2.3086,2.3404,2.3734,2.4069,2.433,2.4423,2.4403,2.4189,2.3892,2.3806,2.4086,2.4683,2.5774,2.6967,2.8525,2.9743,3.0678,3.1518,3.2189,3.2645,3.291,3.325,3.3693,3.4345,3.5061,3.5467,3.5901,3.639,3.6971,3.736,3.7808,3.8252,3.8474,3.8645,3.8897,3.914,3.9337,3.9791,4.0604,4.1232,4.1656,4.2115,4.2709,4.3502,4.4492,4.523,0.7419,0.793,0.8471,0.8835,0.9152,0.9768,1.0019,1.009,1.121,1.2353,1.3358,1.4173,1.5056,1.6033,1.6152,1.6471,1.6895,1.7001,1.7001,1.716,1.7424,1.774,1.7845,1.8003,1.8213,1.8422,1.8475,1.8461,1.8693,1.9057,1.928,1.9278,1.9336,1.9514,1.9463,1.9463,1.9654,1.9972,2.0194,2.0632,2.1046,2.1113,2.1004,2.0539,2.0242,2.0047,1.9818,1.9555,1.9475,1.9421,1.9403,1.9461,1.9727,2.0087,2.0366,2.0668,2.0873,2.1454,2.2024,2.2451,2.2937,2.3609,2.3956,2.4119,2.3991,2.3538,2.3441,2.3668,2.3841,2.3881,2.4093,2.4365,2.4661,2.4783,2.4915,2.4755,2.4578,2.4321,2.3978,2.4413,2.4851,2.5846,2.7032,2.8243,2.9447,3.0511,3.1441,3.2172,3.2657,3.3072,3.3561,3.4038,3.4751,3.5351,3.5806,3.6294,3.677,3.6972,3.7296,3.7671,3.8138,3.8282,3.8375,3.8465,3.8608,3.8919,3.9171,3.9597,4.0105,4.0668,4.1208,4.1936,4.2386,4.3311,4.4143,0.695,0.7458,0.803,0.8345,0.8648,0.9109,0.9363,0.9594,1.0497,1.1466,1.2464,1.3498,1.4546,1.5405,1.5512,1.582,1.6246,1.6365,1.6471,1.663,1.6961,1.7279,1.749,1.7687,1.7964,1.816,1.8304,1.838,1.8202,1.8405,1.8585,1.8498,1.8731,1.8799,1.8686,1.8798,1.8999,1.9403,1.9656,2.0136,2.0775,2.0858,2.0755,2.0281,2.0039,1.9779,1.9497,1.9375,1.9394,1.9394,1.9417,1.9283,1.9476,1.9713,2.0051,2.0301,2.0681,2.1246,2.1943,2.2555,2.2987,2.3646,2.4204,2.4261,2.4451,2.4063,2.3896,2.4059,2.3716,2.377,2.4044,2.4373,2.4492,2.4674,2.4927,2.5032,2.4664,2.4321,2.4413,2.4725,2.5287,2.5965,2.7097,2.7964,2.9234,3.0704,3.1624,3.2344,3.2803,3.3246,3.3707,3.4322,3.4984,3.5602,3.6074,3.6656,3.7242,3.7321,3.7321,3.754,3.7943,3.803,3.8191,3.8168,3.8252,3.8531,3.8881,3.9299,3.9698,4.0367,4.0851,4.1279,4.1689,4.2087,4.2831,0.6549,0.7001,0.7471,0.7791,0.8087,0.8451,0.8761,0.9107,0.9929,1.0795,1.1678,1.2994,1.3998,1.4618,1.4931,1.5316,1.5636,1.5873,1.5992,1.6271,1.6749,1.6961,1.7173,1.7424,1.7647,1.7816,1.7998,1.7767,1.7524,1.7789,1.7916,1.7838,1.7819,1.7794,1.8019,1.8222,1.8465,1.876,1.9145,1.9562,2.0066,2.0498,2.0344,2.0193,1.9986,1.9725,1.9442,1.9249,1.928,1.9354,1.9301,1.914,1.9161,1.9382,1.9603,1.9876,2.0279,2.0911,2.1628,2.238,2.2918,2.356,2.4078,2.4345,2.4524,2.4467,2.4316,2.4204,2.3871,2.3888,2.4153,2.4344,2.4535,2.4721,2.5011,2.5263,2.4835,2.4527,2.4863,2.5125,2.5651,2.6246,2.7171,2.7941,2.9152,3.0732,3.1732,3.2351,3.2988,3.3492,3.3985,3.4513,3.5258,3.5822,3.6372,3.6832,3.7388,3.7604,3.7512,3.7607,3.7747,3.7851,3.7927,3.7883,3.8062,3.8481,3.8943,3.9402,3.9775,4.0121,4.0579,4.0963,4.0844,4.119,4.1505,0.657,0.7289,0.7308,0.7461,0.7776,0.7995,0.8343,0.8825,0.9821,1.0736,1.1548,1.2362,1.3288,1.4126,1.435,1.4703,1.5206,1.5417,1.5577,1.5749,1.6324,1.6643,1.6842,1.716,1.7278,1.7393,1.7455,1.7214,1.6999,1.7132,1.7158,1.6981,1.7183,1.7145,1.7008,1.7261,1.7638,1.8052,1.8441,1.8782,1.9155,1.962,1.9983,1.9807,1.9579,1.9416,1.9277,1.9095,1.9166,1.9208,1.9068,1.8823,1.8757,1.8885,1.914,1.9307,1.97,2.0437,2.1135,2.1869,2.2428,2.3153,2.3638,2.4081,2.4231,2.4293,2.4321,2.4507,2.4376,2.4483,2.4695,2.4709,2.478,2.4816,2.5023,2.507,2.4835,2.5074,2.5437,2.5651,2.5966,2.6741,2.7725,2.859,2.9451,3.0745,3.1721,3.2356,3.3369,3.3799,3.4139,3.4733,3.5344,3.6113,3.6729,3.6836,3.7223,3.7454,3.7671,3.7671,3.7671,3.7671,3.7763,3.7855,3.8132,3.8494,3.8993,3.9563,3.979,4.018,4.0485,4.0631,4.0403,4.0378,4.0786]}]]